Wetterdaten: Donnerstag, 28.03.2019
Datum Zeit Temp. A. Pool Temp. Temp. 5cm Feuchte A. Luftdruck Regen Wind Richtung Richtung Sonnenschein ET UV Solar Taupunkt Windchill Windben Empfang
28.03.2019 00:00 4,6 C 7,8 C 3,9 C 87 % 1032,5 hPa 0,0 l/m 2,7 km/h (1 Bft) SW 236 0 min 0,000 mm 0,0 UV-I 0 W/m 2,6 C 4,6 C 4,8 km/h (1 Bft) 100,00 %
28.03.2019 00:02 4,6 C 7,8 C 3,9 C 87 % 1032,5 hPa 0,0 l/m 2,9 km/h (1 Bft) SW 236 0 min 0,000 mm 0,0 UV-I 0 W/m 2,6 C 4,6 C 4,8 km/h (1 Bft) 100,00 %
28.03.2019 00:04 4,6 C 7,8 C 3,9 C 86 % 1032,5 hPa 0,0 l/m 2,7 km/h (1 Bft) SW 236 0 min 0,000 mm 0,0 UV-I 0 W/m 2,5 C 4,6 C 4,8 km/h (1 Bft) 100,00 %
28.03.2019 00:06 4,6 C 7,8 C 3,9 C 86 % 1032,6 hPa 0,0 l/m 2,1 km/h (1 Bft) SW 236 0 min 0,000 mm 0,0 UV-I 0 W/m 2,5 C 4,6 C 3,2 km/h (1 Bft) 100,00 %
28.03.2019 00:08 4,6 C 7,8 C 3,9 C 86 % 1032,6 hPa 0,0 l/m 1,6 km/h (1 Bft) SW 236 0 min 0,000 mm 0,0 UV-I 0 W/m 2,5 C 4,6 C 3,2 km/h (1 Bft) 100,00 %
28.03.2019 00:10 4,6 C 7,8 C 3,9 C 86 % 1032,5 hPa 0,0 l/m 1,9 km/h (1 Bft) SW 236 0 min 0,000 mm 0,0 UV-I 0 W/m 2,5 C 4,6 C 3,2 km/h (1 Bft) 98,00 %
28.03.2019 00:12 4,7 C 7,8 C 3,9 C 86 % 1032,5 hPa 0,0 l/m 2,5 km/h (1 Bft) SW 236 0 min 0,000 mm 0,0 UV-I 0 W/m 2,6 C 4,7 C 4,8 km/h (1 Bft) 94,74 %
28.03.2019 00:14 4,7 C 7,8 C 3,9 C 86 % 1032,5 hPa 0,0 l/m 2,4 km/h (1 Bft) SW 236 0 min 0,000 mm 0,0 UV-I 0 W/m 2,6 C 4,7 C 3,2 km/h (1 Bft) 98,11 %
28.03.2019 00:16 4,7 C 7,8 C 3,9 C 86 % 1032,5 hPa 0,0 l/m 2,0 km/h (1 Bft) SW 236 0 min 0,000 mm 0,0 UV-I 0 W/m 2,6 C 4,7 C 3,2 km/h (1 Bft) 96,00 %
28.03.2019 00:18 4,6 C 7,8 C 3,9 C 86 % 1032,5 hPa 0,0 l/m 2,6 km/h (1 Bft) SW 236 0 min 0,000 mm 0,0 UV-I 0 W/m 2,5 C 4,6 C 3,2 km/h (1 Bft) 97,22 %
28.03.2019 00:20 4,6 C 7,8 C 3,9 C 86 % 1032,5 hPa 0,0 l/m 3,6 km/h (1 Bft) SW 236 0 min 0,000 mm 0,0 UV-I 0 W/m 2,5 C 4,6 C 4,8 km/h (1 Bft) 94,00 %
28.03.2019 00:22 4,6 C 7,8 C 3,9 C 86 % 1032,6 hPa 0,0 l/m 4,3 km/h (1 Bft) SW 235 0 min 0,000 mm 0,0 UV-I 0 W/m 2,5 C 4,6 C 4,8 km/h (1 Bft) 94,23 %
28.03.2019 00:24 4,6 C 7,8 C 3,9 C 86 % 1032,5 hPa 0,0 l/m 3,7 km/h (1 Bft) SW 235 0 min 0,000 mm 0,0 UV-I 0 W/m 2,5 C 4,6 C 4,8 km/h (1 Bft) 95,83 %
28.03.2019 00:26 4,6 C 7,8 C 3,9 C 86 % 1032,5 hPa 0,0 l/m 2,5 km/h (1 Bft) SW 235 0 min 0,000 mm 0,0 UV-I 0 W/m 2,5 C 4,6 C 3,2 km/h (1 Bft) 95,12 %
28.03.2019 00:28 4,6 C 7,8 C 3,9 C 86 % 1032,6 hPa 0,0 l/m 3,0 km/h (1 Bft) SW 235 0 min 0,000 mm 0,0 UV-I 0 W/m 2,5 C 4,6 C 4,8 km/h (1 Bft) 92,45 %
28.03.2019 00:30 4,6 C 7,8 C 3,9 C 86 % 1032,5 hPa 0,0 l/m 3,3 km/h (1 Bft) SW 235 0 min 0,000 mm 0,0 UV-I 0 W/m 2,5 C 4,6 C 4,8 km/h (1 Bft) 94,74 %
28.03.2019 00:32 4,6 C 7,8 C 3,9 C 86 % 1032,6 hPa 0,0 l/m 3,5 km/h (1 Bft) SW 235 0 min 0,000 mm 0,0 UV-I 0 W/m 2,5 C 4,6 C 4,8 km/h (1 Bft) 96,00 %
28.03.2019 00:34 4,6 C 7,8 C 3,9 C 86 % 1032,5 hPa 0,0 l/m 3,7 km/h (1 Bft) SW 235 0 min 0,000 mm 0,0 UV-I 0 W/m 2,5 C 4,6 C 4,8 km/h (1 Bft) 97,87 %
28.03.2019 00:36 4,6 C 7,8 C 3,9 C 86 % 1032,5 hPa 0,0 l/m 3,9 km/h (1 Bft) SW 235 0 min 0,000 mm 0,0 UV-I 0 W/m 2,5 C 4,6 C 4,8 km/h (1 Bft) 91,49 %
28.03.2019 00:38 4,6 C 7,8 C 3,9 C 87 % 1032,6 hPa 0,0 l/m 3,3 km/h (1 Bft) SW 235 0 min 0,000 mm 0,0 UV-I 0 W/m 2,6 C 4,6 C 4,8 km/h (1 Bft) 95,12 %
28.03.2019 00:40 4,5 C 7,8 C 3,9 C 87 % 1032,6 hPa 0,0 l/m 3,4 km/h (1 Bft) SW 235 0 min 0,000 mm 0,0 UV-I 0 W/m 2,5 C 4,5 C 4,8 km/h (1 Bft) 94,34 %
28.03.2019 00:42 4,5 C 7,8 C 3,9 C 87 % 1032,5 hPa 0,0 l/m 3,9 km/h (1 Bft) SW 235 0 min 0,000 mm 0,0 UV-I 0 W/m 2,5 C 4,5 C 4,8 km/h (1 Bft) 94,00 %
28.03.2019 00:44 4,5 C 7,8 C 3,9 C 87 % 1032,6 hPa 0,0 l/m 4,2 km/h (1 Bft) S-SW 201 0 min 0,000 mm 0,0 UV-I 0 W/m 2,5 C 4,5 C 6,4 km/h (2 Bft) 95,12 %
28.03.2019 00:46 4,5 C 7,8 C 3,9 C 87 % 1032,6 hPa 0,0 l/m 4,0 km/h (1 Bft) S-SW 201 0 min 0,000 mm 0,0 UV-I 0 W/m 2,5 C 4,5 C 4,8 km/h (1 Bft) 96,00 %
28.03.2019 00:48 4,5 C 7,8 C 3,9 C 87 % 1032,6 hPa 0,0 l/m 4,0 km/h (1 Bft) SW 231 0 min 0,000 mm 0,0 UV-I 0 W/m 2,5 C 4,5 C 4,8 km/h (1 Bft) 98,00 %
28.03.2019 00:50 4,5 C 7,8 C 3,9 C 87 % 1032,6 hPa 0,0 l/m 3,1 km/h (1 Bft) SW 230 0 min 0,000 mm 0,0 UV-I 0 W/m 2,5 C 4,5 C 4,8 km/h (1 Bft) 97,37 %
28.03.2019 00:52 4,5 C 7,8 C 3,9 C 87 % 1032,6 hPa 0,0 l/m 3,7 km/h (1 Bft) SW 226 0 min 0,000 mm 0,0 UV-I 0 W/m 2,5 C 4,5 C 4,8 km/h (1 Bft) 98,21 %
28.03.2019 00:54 4,6 C 7,8 C 3,9 C 86 % 1032,6 hPa 0,0 l/m 4,6 km/h (1 Bft) SW 223 0 min 0,000 mm 0,0 UV-I 0 W/m 2,5 C 4,6 C 6,4 km/h (2 Bft) 97,87 %
28.03.2019 00:56 4,6 C 7,8 C 3,9 C 86 % 1032,6 hPa 0,0 l/m 4,2 km/h (1 Bft) SW 223 0 min 0,000 mm 0,0 UV-I 0 W/m 2,5 C 4,6 C 6,4 km/h (2 Bft) 93,62 %
28.03.2019 00:58 4,6 C 7,8 C 3,9 C 87 % 1032,6 hPa 0,0 l/m 3,9 km/h (1 Bft) SW 222 0 min 0,000 mm 0,0 UV-I 0 W/m 2,6 C 4,6 C 6,4 km/h (2 Bft) 95,45 %
28.03.2019 01:00 4,6 C 7,8 C 3,9 C 87 % 1032,6 hPa 0,0 l/m 4,1 km/h (1 Bft) SW 221 0 min 0,000 mm 0,0 UV-I 0 W/m 2,6 C 4,6 C 4,8 km/h (1 Bft) 94,00 %
28.03.2019 01:02 4,5 C 7,8 C 3,9 C 87 % 1032,6 hPa 0,0 l/m 4,5 km/h (1 Bft) SW 223 0 min 0,000 mm 0,0 UV-I 0 W/m 2,5 C 4,5 C 6,4 km/h (2 Bft) 89,58 %
28.03.2019 01:04 4,5 C 7,8 C 3,9 C 87 % 1032,6 hPa 0,0 l/m 4,5 km/h (1 Bft) SW 214 0 min 0,000 mm 0,0 UV-I 0 W/m 2,5 C 4,5 C 6,4 km/h (2 Bft) 94,74 %
28.03.2019 01:06 4,5 C 7,8 C 3,9 C 87 % 1032,5 hPa 0,0 l/m 4,5 km/h (1 Bft) SW 215 0 min 0,000 mm 0,0 UV-I 0 W/m 2,5 C 4,5 C 6,4 km/h (2 Bft) 92,45 %
28.03.2019 01:08 4,5 C 7,8 C 3,9 C 87 % 1032,5 hPa 0,0 l/m 4,6 km/h (1 Bft) SW 219 0 min 0,000 mm 0,0 UV-I 0 W/m 2,5 C 4,5 C 6,4 km/h (2 Bft) 97,73 %
28.03.2019 01:10 4,5 C 7,8 C 3,9 C 87 % 1032,5 hPa 0,0 l/m 3,8 km/h (1 Bft) SW 219 0 min 0,000 mm 0,0 UV-I 0 W/m 2,5 C 4,5 C 6,4 km/h (2 Bft) 96,00 %
28.03.2019 01:12 4,5 C 7,8 C 3,9 C 87 % 1032,6 hPa 0,0 l/m 4,0 km/h (1 Bft) SW 220 0 min 0,000 mm 0,0 UV-I 0 W/m 2,5 C 4,5 C 6,4 km/h (2 Bft) 92,00 %
28.03.2019 01:14 4,4 C 7,8 C 3,9 C 87 % 1032,5 hPa 0,0 l/m 4,4 km/h (1 Bft) SW 219 0 min 0,000 mm 0,0 UV-I 0 W/m 2,4 C 4,4 C 6,4 km/h (2 Bft) 92,11 %
28.03.2019 01:16 4,4 C 7,8 C 3,9 C 87 % 1032,5 hPa 0,0 l/m 4,2 km/h (1 Bft) SW 219 0 min 0,000 mm 0,0 UV-I 0 W/m 2,4 C 4,4 C 6,4 km/h (2 Bft) 98,00 %
28.03.2019 01:18 4,4 C 7,8 C 3,9 C 87 % 1032,6 hPa 0,0 l/m 4,7 km/h (1 Bft) SW 215 0 min 0,000 mm 0,0 UV-I 0 W/m 2,4 C 4,4 C 6,4 km/h (2 Bft) 97,87 %
28.03.2019 01:20 4,4 C 7,8 C 3,9 C 87 % 1032,5 hPa 0,0 l/m 4,7 km/h (1 Bft) S-SW 198 0 min 0,000 mm 0,0 UV-I 0 W/m 2,4 C 4,4 C 6,4 km/h (2 Bft) 97,56 %
28.03.2019 01:22 4,4 C 7,8 C 3,9 C 87 % 1032,5 hPa 0,0 l/m 4,9 km/h (1 Bft) SW 225 0 min 0,000 mm 0,0 UV-I 0 W/m 2,4 C 4,4 C 6,4 km/h (2 Bft) 98,00 %
28.03.2019 01:24 4,4 C 7,8 C 3,9 C 87 % 1032,6 hPa 0,0 l/m 4,5 km/h (1 Bft) SW 217 0 min 0,000 mm 0,0 UV-I 0 W/m 2,4 C 4,4 C 6,4 km/h (2 Bft) 94,34 %
28.03.2019 01:26 4,4 C 7,8 C 3,9 C 87 % 1032,5 hPa 0,0 l/m 4,7 km/h (1 Bft) S-SW 197 0 min 0,000 mm 0,0 UV-I 0 W/m 2,4 C 4,4 C 6,4 km/h (2 Bft) 100,00 %
28.03.2019 01:28 4,4 C 7,8 C 3,9 C 87 % 1032,5 hPa 0,0 l/m 4,4 km/h (1 Bft) SW 225 0 min 0,000 mm 0,0 UV-I 0 W/m 2,4 C 4,4 C 6,4 km/h (2 Bft) 97,87 %
28.03.2019 01:30 4,4 C 7,8 C 3,9 C 87 % 1032,5 hPa 0,0 l/m 4,7 km/h (1 Bft) S-SW 212 0 min 0,000 mm 0,0 UV-I 0 W/m 2,4 C 4,4 C 6,4 km/h (2 Bft) 100,00 %
28.03.2019 01:32 4,4 C 7,8 C 3,9 C 87 % 1032,5 hPa 0,0 l/m 5,1 km/h (1 Bft) W-SW 242 0 min 0,000 mm 0,0 UV-I 0 W/m 2,4 C 4,4 C 6,4 km/h (2 Bft) 100,00 %
28.03.2019 01:34 4,4 C 7,8 C 3,9 C 87 % 1032,5 hPa 0,0 l/m 5,0 km/h (1 Bft) SW 233 0 min 0,000 mm 0,0 UV-I 0 W/m 2,4 C 4,4 C 6,4 km/h (2 Bft) 98,00 %
28.03.2019 01:36 4,4 C 7,8 C 3,9 C 87 % 1032,5 hPa 0,0 l/m 5,0 km/h (1 Bft) SW 233 0 min 0,000 mm 0,0 UV-I 0 W/m 2,4 C 4,4 C 6,4 km/h (2 Bft) 100,00 %
28.03.2019 01:38 4,4 C 7,8 C 3,9 C 87 % 1032,5 hPa 0,0 l/m 4,5 km/h (1 Bft) SW 236 0 min 0,000 mm 0,0 UV-I 0 W/m 2,4 C 4,4 C 6,4 km/h (2 Bft) 97,87 %
28.03.2019 01:40 4,4 C 7,8 C 3,9 C 87 % 1032,5 hPa 0,0 l/m 3,9 km/h (1 Bft) SW 216 0 min 0,000 mm 0,0 UV-I 0 W/m 2,4 C 4,4 C 4,8 km/h (1 Bft) 97,87 %
28.03.2019 01:42 4,4 C 7,8 C 3,9 C 87 % 1032,5 hPa 0,0 l/m 4,4 km/h (1 Bft) SW 219 0 min 0,000 mm 0,0 UV-I 0 W/m 2,4 C 4,4 C 6,4 km/h (2 Bft) 95,74 %
28.03.2019 01:44 4,4 C 7,8 C 3,9 C 87 % 1032,5 hPa 0,0 l/m 5,6 km/h (1 Bft) S-SW 205 0 min 0,000 mm 0,0 UV-I 0 W/m 2,4 C 4,4 C 8,0 km/h (2 Bft) 97,87 %
28.03.2019 01:46 4,5 C 7,8 C 3,9 C 87 % 1032,5 hPa 0,0 l/m 6,0 km/h (2 Bft) SW 219 0 min 0,000 mm 0,0 UV-I 0 W/m 2,5 C 4,5 C 8,0 km/h (2 Bft) 100,00 %
28.03.2019 01:48 4,5 C 7,8 C 3,9 C 87 % 1032,4 hPa 0,0 l/m 6,5 km/h (2 Bft) SW 219 0 min 0,000 mm 0,0 UV-I 0 W/m 2,5 C 4,4 C 8,0 km/h (2 Bft) 100,00 %
28.03.2019 01:50 4,4 C 7,8 C 3,9 C 87 % 1032,4 hPa 0,0 l/m 6,5 km/h (2 Bft) S-SW 211 0 min 0,000 mm 0,0 UV-I 0 W/m 2,4 C 4,3 C 8,0 km/h (2 Bft) 100,00 %
28.03.2019 01:52 4,4 C 7,8 C 3,9 C 87 % 1032,4 hPa 0,0 l/m 4,5 km/h (1 Bft) SW 232 0 min 0,000 mm 0,0 UV-I 0 W/m 2,4 C 4,4 C 6,4 km/h (2 Bft) 100,00 %
28.03.2019 01:54 4,5 C 7,8 C 3,9 C 87 % 1032,4 hPa 0,0 l/m 5,7 km/h (1 Bft) S-SW 209 0 min 0,000 mm 0,0 UV-I 0 W/m 2,5 C 4,5 C 8,0 km/h (2 Bft) 100,00 %
28.03.2019 01:56 4,5 C 7,8 C 3,9 C 87 % 1032,4 hPa 0,0 l/m 6,5 km/h (2 Bft) SW 229 0 min 0,000 mm 0,0 UV-I 0 W/m 2,5 C 4,4 C 9,7 km/h (2 Bft) 98,00 %
28.03.2019 01:58 4,6 C 7,8 C 3,9 C 86 % 1032,4 hPa 0,0 l/m 4,8 km/h (1 Bft) W-SW 244 0 min 0,000 mm 0,0 UV-I 0 W/m 2,5 C 4,6 C 6,4 km/h (2 Bft) 100,00 %
28.03.2019 02:00 4,6 C 7,8 C 3,9 C 86 % 1032,4 hPa 0,0 l/m 5,2 km/h (1 Bft) W-SW 241 0 min 0,000 mm 0,0 UV-I 0 W/m 2,5 C 4,6 C 8,0 km/h (2 Bft) 96,43 %
28.03.2019 02:02 4,6 C 7,8 C 3,9 C 86 % 1032,4 hPa 0,0 l/m 5,7 km/h (1 Bft) SW 225 0 min 0,000 mm 0,0 UV-I 0 W/m 2,5 C 4,6 C 8,0 km/h (2 Bft) 100,00 %
28.03.2019 02:04 4,6 C 7,8 C 3,9 C 86 % 1032,4 hPa 0,0 l/m 5,4 km/h (1 Bft) SW 220 0 min 0,000 mm 0,0 UV-I 0 W/m 2,5 C 4,6 C 8,0 km/h (2 Bft) 100,00 %
28.03.2019 02:06 4,6 C 7,8 C 3,9 C 86 % 1032,4 hPa 0,0 l/m 4,4 km/h (1 Bft) SW 223 0 min 0,000 mm 0,0 UV-I 0 W/m 2,5 C 4,6 C 8,0 km/h (2 Bft) 100,00 %
28.03.2019 02:08 4,6 C 7,8 C 3,9 C 86 % 1032,4 hPa 0,0 l/m 4,4 km/h (1 Bft) SW 222 0 min 0,000 mm 0,0 UV-I 0 W/m 2,5 C 4,6 C 8,0 km/h (2 Bft) 100,00 %
28.03.2019 02:10 4,6 C 7,8 C 3,9 C 86 % 1032,4 hPa 0,0 l/m 4,7 km/h (1 Bft) SW 228 0 min 0,000 mm 0,0 UV-I 0 W/m 2,5 C 4,6 C 6,4 km/h (2 Bft) 100,00 %
28.03.2019 02:12 4,6 C 7,8 C 3,9 C 86 % 1032,4 hPa 0,0 l/m 4,2 km/h (1 Bft) SW 228 0 min 0,000 mm 0,0 UV-I 0 W/m 2,5 C 4,6 C 6,4 km/h (2 Bft) 100,00 %
28.03.2019 02:14 4,5 C 7,8 C 3,9 C 86 % 1032,4 hPa 0,0 l/m 3,7 km/h (1 Bft) SW 236 0 min 0,000 mm 0,0 UV-I 0 W/m 2,4 C 4,5 C 6,4 km/h (2 Bft) 94,59 %
28.03.2019 02:16 4,5 C 7,8 C 3,9 C 86 % 1032,4 hPa 0,0 l/m 4,3 km/h (1 Bft) SW 236 0 min 0,000 mm 0,0 UV-I 0 W/m 2,4 C 4,5 C 6,4 km/h (2 Bft) 96,00 %
28.03.2019 02:18 4,5 C 7,8 C 3,9 C 87 % 1032,4 hPa 0,0 l/m 3,7 km/h (1 Bft) SW 236 0 min 0,000 mm 0,0 UV-I 0 W/m 2,5 C 4,5 C 6,4 km/h (2 Bft) 96,00 %
28.03.2019 02:20 4,5 C 7,8 C 3,9 C 87 % 1032,4 hPa 0,0 l/m 4,9 km/h (1 Bft) SW 229 0 min 0,000 mm 0,0 UV-I 0 W/m 2,5 C 4,5 C 8,0 km/h (2 Bft) 93,62 %
28.03.2019 02:22 4,5 C 7,8 C 3,9 C 87 % 1032,4 hPa 0,0 l/m 4,0 km/h (1 Bft) SW 231 0 min 0,000 mm 0,0 UV-I 0 W/m 2,5 C 4,5 C 6,4 km/h (2 Bft) 88,00 %
28.03.2019 02:24 4,5 C 7,8 C 3,9 C 87 % 1032,4 hPa 0,0 l/m 4,6 km/h (1 Bft) SW 229 0 min 0,000 mm 0,0 UV-I 0 W/m 2,5 C 4,5 C 8,0 km/h (2 Bft) 94,74 %
28.03.2019 02:26 4,4 C 7,8 C 3,9 C 87 % 1032,4 hPa 0,0 l/m 6,4 km/h (2 Bft) SW 232 0 min 0,000 mm 0,0 UV-I 0 W/m 2,4 C 4,4 C 8,0 km/h (2 Bft) 92,45 %
28.03.2019 02:28 4,4 C 7,8 C 3,9 C 87 % 1032,4 hPa 0,0 l/m 6,5 km/h (2 Bft) W-SW 246 0 min 0,000 mm 0,0 UV-I 0 W/m 2,4 C 4,3 C 8,0 km/h (2 Bft) 93,62 %
28.03.2019 02:30 4,4 C 7,8 C 3,9 C 87 % 1032,5 hPa 0,0 l/m 5,0 km/h (1 Bft) W-SW 238 0 min 0,000 mm 0,0 UV-I 0 W/m 2,4 C 4,4 C 8,0 km/h (2 Bft) 94,00 %
28.03.2019 02:32 4,4 C 7,8 C 3,9 C 87 % 1032,4 hPa 0,0 l/m 4,7 km/h (1 Bft) SW 219 0 min 0,000 mm 0,0 UV-I 0 W/m 2,4 C 4,4 C 6,4 km/h (2 Bft) 95,74 %
28.03.2019 02:34 4,4 C 7,8 C 3,9 C 87 % 1032,4 hPa 0,0 l/m 4,5 km/h (1 Bft) W-SW 243 0 min 0,000 mm 0,0 UV-I 0 W/m 2,4 C 4,4 C 6,4 km/h (2 Bft) 95,65 %
28.03.2019 02:36 4,4 C 7,8 C 3,9 C 87 % 1032,4 hPa 0,0 l/m 4,8 km/h (1 Bft) SW 234 0 min 0,000 mm 0,0 UV-I 0 W/m 2,4 C 4,4 C 6,4 km/h (2 Bft) 97,06 %
28.03.2019 02:38 4,5 C 7,8 C 3,9 C 87 % 1032,4 hPa 0,0 l/m 4,8 km/h (1 Bft) SW 231 0 min 0,000 mm 0,0 UV-I 0 W/m 2,5 C 4,5 C 6,4 km/h (2 Bft) 95,45 %
28.03.2019 02:40 4,6 C 7,8 C 3,9 C 87 % 1032,4 hPa 0,0 l/m 5,7 km/h (1 Bft) SW 225 0 min 0,000 mm 0,0 UV-I 0 W/m 2,6 C 4,6 C 6,4 km/h (2 Bft) 97,56 %
28.03.2019 02:42 4,6 C 7,8 C 3,9 C 86 % 1032,3 hPa 0,0 l/m 5,6 km/h (1 Bft) S-SW 213 0 min 0,000 mm 0,0 UV-I 0 W/m 2,5 C 4,6 C 8,0 km/h (2 Bft) 96,00 %
28.03.2019 02:44 4,6 C 7,8 C 3,9 C 86 % 1032,3 hPa 0,0 l/m 5,7 km/h (1 Bft) SW 219 0 min 0,000 mm 0,0 UV-I 0 W/m 2,5 C 4,6 C 8,0 km/h (2 Bft) 98,00 %
28.03.2019 02:46 4,5 C 7,8 C 3,9 C 87 % 1032,3 hPa 0,0 l/m 5,8 km/h (2 Bft) SW 232 0 min 0,000 mm 0,0 UV-I 0 W/m 2,5 C 4,5 C 9,7 km/h (2 Bft) 96,00 %
28.03.2019 02:48 4,5 C 7,8 C 3,9 C 87 % 1032,4 hPa 0,0 l/m 6,1 km/h (2 Bft) S-SW 210 0 min 0,000 mm 0,0 UV-I 0 W/m 2,5 C 4,5 C 9,7 km/h (2 Bft) 97,87 %
28.03.2019 02:50 4,5 C 7,8 C 3,9 C 87 % 1032,3 hPa 0,0 l/m 5,3 km/h (1 Bft) SW 229 0 min 0,000 mm 0,0 UV-I 0 W/m 2,5 C 4,5 C 8,0 km/h (2 Bft) 94,74 %
28.03.2019 02:52 4,5 C 7,8 C 3,9 C 87 % 1032,3 hPa 0,0 l/m 6,2 km/h (2 Bft) S-SW 203 0 min 0,000 mm 0,0 UV-I 0 W/m 2,5 C 4,5 C 8,0 km/h (2 Bft) 98,00 %
28.03.2019 02:54 4,6 C 7,8 C 3,9 C 87 % 1032,3 hPa 0,0 l/m 5,3 km/h (1 Bft) SW 218 0 min 0,000 mm 0,0 UV-I 0 W/m 2,6 C 4,6 C 8,0 km/h (2 Bft) 100,00 %
28.03.2019 02:56 4,6 C 7,8 C 3,9 C 86 % 1032,3 hPa 0,0 l/m 5,7 km/h (1 Bft) SW 214 0 min 0,000 mm 0,0 UV-I 0 W/m 2,5 C 4,6 C 8,0 km/h (2 Bft) 100,00 %
28.03.2019 02:58 4,6 C 7,8 C 3,9 C 86 % 1032,3 hPa 0,0 l/m 4,8 km/h (1 Bft) SW 219 0 min 0,000 mm 0,0 UV-I 0 W/m 2,5 C 4,6 C 6,4 km/h (2 Bft) 100,00 %
28.03.2019 03:00 4,6 C 7,8 C 3,9 C 86 % 1032,2 hPa 0,0 l/m 4,0 km/h (1 Bft) SW 219 0 min 0,000 mm 0,0 UV-I 0 W/m 2,5 C 4,6 C 6,4 km/h (2 Bft) 98,00 %
28.03.2019 03:02 4,6 C 7,8 C 3,9 C 87 % 1032,2 hPa 0,0 l/m 4,3 km/h (1 Bft) SW 228 0 min 0,000 mm 0,0 UV-I 0 W/m 2,6 C 4,6 C 6,4 km/h (2 Bft) 97,37 %
28.03.2019 03:04 4,6 C 7,8 C 3,9 C 87 % 1032,2 hPa 0,0 l/m 4,5 km/h (1 Bft) W-SW 240 0 min 0,000 mm 0,0 UV-I 0 W/m 2,6 C 4,6 C 6,4 km/h (2 Bft) 100,00 %
28.03.2019 03:06 4,5 C 7,8 C 3,9 C 87 % 1032,2 hPa 0,0 l/m 4,0 km/h (1 Bft) SW 228 0 min 0,000 mm 0,0 UV-I 0 W/m 2,5 C 4,5 C 4,8 km/h (1 Bft) 94,74 %
28.03.2019 03:08 4,5 C 7,8 C 3,9 C 87 % 1032,2 hPa 0,0 l/m 4,9 km/h (1 Bft) W-SW 240 0 min 0,000 mm 0,0 UV-I 0 W/m 2,5 C 4,5 C 6,4 km/h (2 Bft) 100,00 %
28.03.2019 03:10 4,4 C 7,8 C 3,9 C 87 % 1032,2 hPa 0,0 l/m 5,0 km/h (1 Bft) SW 222 0 min 0,000 mm 0,0 UV-I 0 W/m 2,4 C 4,4 C 6,4 km/h (2 Bft) 100,00 %
28.03.2019 03:12 4,4 C 7,8 C 3,9 C 87 % 1032,2 hPa 0,0 l/m 4,6 km/h (1 Bft) SW 215 0 min 0,000 mm 0,0 UV-I 0 W/m 2,4 C 4,4 C 6,4 km/h (2 Bft) 100,00 %
28.03.2019 03:14 4,4 C 7,8 C 3,9 C 87 % 1032,2 hPa 0,0 l/m 5,0 km/h (1 Bft) SW 220 0 min 0,000 mm 0,0 UV-I 0 W/m 2,4 C 4,4 C 6,4 km/h (2 Bft) 100,00 %
28.03.2019 03:16 4,5 C 7,8 C 3,9 C 87 % 1032,3 hPa 0,0 l/m 4,9 km/h (1 Bft) SW 221 0 min 0,000 mm 0,0 UV-I 0 W/m 2,5 C 4,5 C 6,4 km/h (2 Bft) 97,56 %
28.03.2019 03:18 4,5 C 7,8 C 3,9 C 87 % 1032,3 hPa 0,0 l/m 4,8 km/h (1 Bft) SW 214 0 min 0,000 mm 0,0 UV-I 0 W/m 2,5 C 4,5 C 6,4 km/h (2 Bft) 100,00 %
28.03.2019 03:20 4,5 C 7,8 C 3,9 C 87 % 1032,3 hPa 0,0 l/m 4,4 km/h (1 Bft) S-SW 209 0 min 0,000 mm 0,0 UV-I 0 W/m 2,5 C 4,5 C 6,4 km/h (2 Bft) 97,87 %
28.03.2019 03:22 4,5 C 7,8 C 3,9 C 87 % 1032,3 hPa 0,0 l/m 5,3 km/h (1 Bft) SW 219 0 min 0,000 mm 0,0 UV-I 0 W/m 2,5 C 4,5 C 8,0 km/h (2 Bft) 100,00 %
28.03.2019 03:24 4,6 C 7,8 C 3,9 C 87 % 1032,3 hPa 0,0 l/m 4,2 km/h (1 Bft) SW 220 0 min 0,000 mm 0,0 UV-I 0 W/m 2,6 C 4,6 C 6,4 km/h (2 Bft) 100,00 %
28.03.2019 03:26 4,6 C 7,8 C 3,9 C 87 % 1032,3 hPa 0,0 l/m 3,6 km/h (1 Bft) SW 229 0 min 0,000 mm 0,0 UV-I 0 W/m 2,6 C 4,6 C 6,4 km/h (2 Bft) 100,00 %
28.03.2019 03:28 4,6 C 7,8 C 3,9 C 87 % 1032,3 hPa 0,0 l/m 5,0 km/h (1 Bft) SW 223 0 min 0,000 mm 0,0 UV-I 0 W/m 2,6 C 4,6 C 8,0 km/h (2 Bft) 100,00 %
28.03.2019 03:30 4,6 C 7,8 C 3,9 C 87 % 1032,4 hPa 0,0 l/m 4,5 km/h (1 Bft) W-SW 237 0 min 0,000 mm 0,0 UV-I 0 W/m 2,6 C 4,6 C 6,4 km/h (2 Bft) 100,00 %
28.03.2019 03:32 4,5 C 7,8 C 3,9 C 87 % 1032,4 hPa 0,0 l/m 5,0 km/h (1 Bft) SW 232 0 min 0,000 mm 0,0 UV-I 0 W/m 2,5 C 4,5 C 8,0 km/h (2 Bft) 98,00 %
28.03.2019 03:34 4,5 C 7,8 C 3,9 C 87 % 1032,4 hPa 0,0 l/m 3,7 km/h (1 Bft) S-SW 211 0 min 0,000 mm 0,0 UV-I 0 W/m 2,5 C 4,5 C 6,4 km/h (2 Bft) 96,30 %
28.03.2019 03:36 4,5 C 7,8 C 3,9 C 87 % 1032,4 hPa 0,0 l/m 5,5 km/h (1 Bft) SW 220 0 min 0,000 mm 0,0 UV-I 0 W/m 2,5 C 4,5 C 8,0 km/h (2 Bft) 97,56 %
28.03.2019 03:38 4,5 C 7,8 C 3,9 C 87 % 1032,3 hPa 0,0 l/m 4,2 km/h (1 Bft) SW 225 0 min 0,000 mm 0,0 UV-I 0 W/m 2,5 C 4,5 C 6,4 km/h (2 Bft) 97,18 %
28.03.2019 03:40 4,4 C 7,8 C 3,9 C 87 % 1032,3 hPa 0,0 l/m 3,6 km/h (1 Bft) SW 219 0 min 0,000 mm 0,0 UV-I 0 W/m 2,4 C 4,4 C 4,8 km/h (1 Bft) 97,87 %
28.03.2019 03:42 4,5 C 7,8 C 3,9 C 87 % 1032,3 hPa 0,0 l/m 3,5 km/h (1 Bft) SW 227 0 min 0,000 mm 0,0 UV-I 0 W/m 2,5 C 4,5 C 6,4 km/h (2 Bft) 94,74 %
28.03.2019 03:44 4,5 C 7,8 C 3,9 C 87 % 1032,3 hPa 0,0 l/m 4,3 km/h (1 Bft) S-SW 211 0 min 0,000 mm 0,0 UV-I 0 W/m 2,5 C 4,5 C 6,4 km/h (2 Bft) 95,74 %
28.03.2019 03:46 4,5 C 7,8 C 3,9 C 87 % 1032,3 hPa 0,0 l/m 5,9 km/h (2 Bft) S-SW 207 0 min 0,000 mm 0,0 UV-I 0 W/m 2,5 C 4,5 C 8,0 km/h (2 Bft) 97,87 %
28.03.2019 03:48 4,5 C 7,8 C 3,9 C 87 % 1032,2 hPa 0,0 l/m 5,7 km/h (1 Bft) S-SW 213 0 min 0,000 mm 0,0 UV-I 0 W/m 2,5 C 4,5 C 8,0 km/h (2 Bft) 96,43 %
28.03.2019 03:50 4,5 C 7,8 C 3,9 C 87 % 1032,3 hPa 0,0 l/m 5,2 km/h (1 Bft) S-SW 213 0 min 0,000 mm 0,0 UV-I 0 W/m 2,5 C 4,5 C 8,0 km/h (2 Bft) 97,87 %
28.03.2019 03:52 4,5 C 7,8 C 3,9 C 87 % 1032,3 hPa 0,0 l/m 4,4 km/h (1 Bft) S-SW 213 0 min 0,000 mm 0,0 UV-I 0 W/m 2,5 C 4,5 C 6,4 km/h (2 Bft) 97,37 %
28.03.2019 03:54 4,5 C 7,8 C 3,9 C 87 % 1032,2 hPa 0,0 l/m 4,4 km/h (1 Bft) SW 227 0 min 0,000 mm 0,0 UV-I 0 W/m 2,5 C 4,5 C 6,4 km/h (2 Bft) 100,00 %
28.03.2019 03:56 4,5 C 7,8 C 3,9 C 87 % 1032,2 hPa 0,0 l/m 4,5 km/h (1 Bft) SW 215 0 min 0,000 mm 0,0 UV-I 0 W/m 2,5 C 4,5 C 6,4 km/h (2 Bft) 100,00 %
28.03.2019 03:58 4,5 C 7,8 C 3,9 C 87 % 1032,2 hPa 0,0 l/m 3,8 km/h (1 Bft) SW 218 0 min 0,000 mm 0,0 UV-I 0 W/m 2,5 C 4,5 C 6,4 km/h (2 Bft) 100,00 %
28.03.2019 04:00 4,4 C 7,8 C 3,9 C 87 % 1032,2 hPa 0,0 l/m 3,3 km/h (1 Bft) S-SW 208 0 min 0,000 mm 0,0 UV-I 0 W/m 2,4 C 4,4 C 4,8 km/h (1 Bft) 100,00 %
28.03.2019 04:02 4,5 C 7,8 C 3,9 C 87 % 1032,2 hPa 0,0 l/m 3,6 km/h (1 Bft) S-SW 213 0 min 0,000 mm 0,0 UV-I 0 W/m 2,5 C 4,5 C 4,8 km/h (1 Bft) 100,00 %
28.03.2019 04:04 4,4 C 7,8 C 3,9 C 87 % 1032,2 hPa 0,0 l/m 5,6 km/h (1 Bft) S-SW 213 0 min 0,000 mm 0,0 UV-I 0 W/m 2,4 C 4,4 C 8,0 km/h (2 Bft) 100,00 %
28.03.2019 04:06 4,4 C 7,8 C 3,9 C 87 % 1032,2 hPa 0,0 l/m 6,2 km/h (2 Bft) SW 220 0 min 0,000 mm 0,0 UV-I 0 W/m 2,4 C 4,4 C 8,0 km/h (2 Bft) 98,18 %
28.03.2019 04:08 4,4 C 7,8 C 3,9 C 87 % 1032,2 hPa 0,0 l/m 5,1 km/h (1 Bft) SW 222 0 min 0,000 mm 0,0 UV-I 0 W/m 2,4 C 4,4 C 6,4 km/h (2 Bft) 100,00 %
28.03.2019 04:10 4,4 C 7,8 C 3,9 C 87 % 1032,2 hPa 0,0 l/m 4,5 km/h (1 Bft) SW 216 0 min 0,000 mm 0,0 UV-I 0 W/m 2,4 C 4,4 C 6,4 km/h (2 Bft) 100,00 %
28.03.2019 04:12 4,4 C 7,8 C 3,9 C 87 % 1032,2 hPa 0,0 l/m 4,8 km/h (1 Bft) SW 219 0 min 0,000 mm 0,0 UV-I 0 W/m 2,4 C 4,4 C 6,4 km/h (2 Bft) 97,87 %
28.03.2019 04:14 4,4 C 7,8 C 3,9 C 87 % 1032,2 hPa 0,0 l/m 4,1 km/h (1 Bft) SW 217 0 min 0,000 mm 0,0 UV-I 0 W/m 2,4 C 4,4 C 6,4 km/h (2 Bft) 100,00 %
28.03.2019 04:16 4,4 C 7,8 C 3,9 C 87 % 1032,2 hPa 0,0 l/m 3,7 km/h (1 Bft) SW 214 0 min 0,000 mm 0,0 UV-I 0 W/m 2,4 C 4,4 C 4,8 km/h (1 Bft) 100,00 %
28.03.2019 04:18 4,4 C 7,8 C 3,9 C 87 % 1032,2 hPa 0,0 l/m 4,7 km/h (1 Bft) S-SW 213 0 min 0,000 mm 0,0 UV-I 0 W/m 2,4 C 4,4 C 6,4 km/h (2 Bft) 100,00 %
28.03.2019 04:20 4,4 C 7,8 C 3,9 C 88 % 1032,2 hPa 0,0 l/m 3,1 km/h (1 Bft) S-SW 213 0 min 0,000 mm 0,0 UV-I 0 W/m 2,6 C 4,4 C 4,8 km/h (1 Bft) 100,00 %
28.03.2019 04:22 4,4 C 7,8 C 3,9 C 88 % 1032,2 hPa 0,0 l/m 3,6 km/h (1 Bft) SW 215 0 min 0,000 mm 0,0 UV-I 0 W/m 2,6 C 4,4 C 4,8 km/h (1 Bft) 97,14 %
28.03.2019 04:24 4,4 C 7,8 C 3,9 C 88 % 1032,2 hPa 0,0 l/m 3,6 km/h (1 Bft) SW 232 0 min 0,000 mm 0,0 UV-I 0 W/m 2,6 C 4,4 C 6,4 km/h (2 Bft) 96,43 %
28.03.2019 04:26 4,4 C 7,8 C 3,9 C 88 % 1032,2 hPa 0,0 l/m 4,0 km/h (1 Bft) W-SW 245 0 min 0,000 mm 0,0 UV-I 0 W/m 2,6 C 4,4 C 4,8 km/h (1 Bft) 93,62 %
28.03.2019 04:28 4,4 C 7,8 C 3,9 C 88 % 1032,2 hPa 0,0 l/m 3,8 km/h (1 Bft) SW 234 0 min 0,000 mm 0,0 UV-I 0 W/m 2,6 C 4,4 C 4,8 km/h (1 Bft) 95,74 %
28.03.2019 04:30 4,4 C 7,8 C 3,9 C 88 % 1032,2 hPa 0,0 l/m 4,4 km/h (1 Bft) SW 223 0 min 0,000 mm 0,0 UV-I 0 W/m 2,6 C 4,4 C 6,4 km/h (2 Bft) 95,12 %
28.03.2019 04:32 4,3 C 7,8 C 3,9 C 88 % 1032,1 hPa 0,0 l/m 5,4 km/h (1 Bft) S-SW 212 0 min 0,000 mm 0,0 UV-I 0 W/m 2,5 C 4,3 C 8,0 km/h (2 Bft) 96,00 %
28.03.2019 04:34 4,3 C 7,8 C 3,9 C 88 % 1032,1 hPa 0,0 l/m 4,5 km/h (1 Bft) SW 217 0 min 0,000 mm 0,0 UV-I 0 W/m 2,5 C 4,3 C 6,4 km/h (2 Bft) 94,00 %
28.03.2019 04:36 4,3 C 7,8 C 3,9 C 88 % 1032,2 hPa 0,0 l/m 4,4 km/h (1 Bft) SW 215 0 min 0,000 mm 0,0 UV-I 0 W/m 2,5 C 4,3 C 6,4 km/h (2 Bft) 97,56 %
28.03.2019 04:38 4,3 C 7,8 C 3,9 C 88 % 1032,2 hPa 0,0 l/m 3,8 km/h (1 Bft) SW 215 0 min 0,000 mm 0,0 UV-I 0 W/m 2,5 C 4,3 C 6,4 km/h (2 Bft) 92,45 %
28.03.2019 04:40 4,3 C 7,8 C 3,9 C 89 % 1032,2 hPa 0,0 l/m 4,7 km/h (1 Bft) S-SW 213 0 min 0,000 mm 0,0 UV-I 0 W/m 2,7 C 4,3 C 6,4 km/h (2 Bft) 94,44 %
28.03.2019 04:42 4,3 C 7,8 C 3,9 C 89 % 1032,2 hPa 0,0 l/m 4,0 km/h (1 Bft) S-SW 213 0 min 0,000 mm 0,0 UV-I 0 W/m 2,7 C 4,3 C 4,8 km/h (1 Bft) 90,91 %
28.03.2019 04:44 4,3 C 7,8 C 3,9 C 89 % 1032,2 hPa 0,0 l/m 4,3 km/h (1 Bft) S-SW 209 0 min 0,000 mm 0,0 UV-I 0 W/m 2,7 C 4,3 C 6,4 km/h (2 Bft) 95,74 %
28.03.2019 04:46 4,3 C 7,8 C 3,9 C 89 % 1032,2 hPa 0,0 l/m 4,5 km/h (1 Bft) S-SW 209 0 min 0,000 mm 0,0 UV-I 0 W/m 2,7 C 4,3 C 6,4 km/h (2 Bft) 97,62 %
28.03.2019 04:48 4,3 C 7,8 C 3,9 C 89 % 1032,2 hPa 0,0 l/m 4,7 km/h (1 Bft) S-SW 211 0 min 0,000 mm 0,0 UV-I 0 W/m 2,7 C 4,3 C 6,4 km/h (2 Bft) 93,62 %
28.03.2019 04:50 4,3 C 7,8 C 3,9 C 89 % 1032,2 hPa 0,0 l/m 4,5 km/h (1 Bft) S-SW 211 0 min 0,000 mm 0,0 UV-I 0 W/m 2,7 C 4,3 C 6,4 km/h (2 Bft) 94,34 %
28.03.2019 04:52 4,3 C 7,8 C 3,9 C 88 % 1032,2 hPa 0,0 l/m 4,9 km/h (1 Bft) S-SW 211 0 min 0,000 mm 0,0 UV-I 0 W/m 2,5 C 4,3 C 6,4 km/h (2 Bft) 92,00 %
28.03.2019 04:54 4,3 C 7,8 C 3,9 C 88 % 1032,2 hPa 0,0 l/m 4,6 km/h (1 Bft) S-SW 211 0 min 0,000 mm 0,0 UV-I 0 W/m 2,5 C 4,3 C 6,4 km/h (2 Bft) 90,24 %
28.03.2019 04:56 4,3 C 7,8 C 3,9 C 88 % 1032,3 hPa 0,0 l/m 4,9 km/h (1 Bft) S-SW 211 0 min 0,000 mm 0,0 UV-I 0 W/m 2,5 C 4,3 C 6,4 km/h (2 Bft) 90,24 %
28.03.2019 04:58 4,3 C 7,8 C 3,9 C 88 % 1032,3 hPa 0,0 l/m 4,6 km/h (1 Bft) SW 214 0 min 0,000 mm 0,0 UV-I 0 W/m 2,5 C 4,3 C 6,4 km/h (2 Bft) 94,00 %
28.03.2019 05:00 4,3 C 7,8 C 3,9 C 88 % 1032,2 hPa 0,0 l/m 3,7 km/h (1 Bft) S-SW 213 0 min 0,000 mm 0,0 UV-I 0 W/m 2,5 C 4,3 C 4,8 km/h (1 Bft) 94,00 %
28.03.2019 05:02 4,3 C 7,8 C 3,9 C 88 % 1032,3 hPa 0,0 l/m 3,7 km/h (1 Bft) SW 214 0 min 0,000 mm 0,0 UV-I 0 W/m 2,5 C 4,3 C 4,8 km/h (1 Bft) 95,12 %
28.03.2019 05:04 4,3 C 7,8 C 3,9 C 88 % 1032,3 hPa 0,0 l/m 4,6 km/h (1 Bft) SW 214 0 min 0,000 mm 0,0 UV-I 0 W/m 2,5 C 4,3 C 6,4 km/h (2 Bft) 94,00 %
28.03.2019 05:06 4,3 C 7,8 C 3,9 C 88 % 1032,3 hPa 0,0 l/m 4,5 km/h (1 Bft) SW 214 0 min 0,000 mm 0,0 UV-I 0 W/m 2,5 C 4,3 C 6,4 km/h (2 Bft) 87,80 %
28.03.2019 05:08 4,3 C 7,8 C 3,9 C 88 % 1032,3 hPa 0,0 l/m 2,8 km/h (1 Bft) S-SW 213 0 min 0,000 mm 0,0 UV-I 0 W/m 2,5 C 4,3 C 4,8 km/h (1 Bft) 96,23 %
28.03.2019 05:10 4,3 C 7,8 C 3,9 C 88 % 1032,3 hPa 0,0 l/m 2,1 km/h (1 Bft) S-SW 213 0 min 0,000 mm 0,0 UV-I 0 W/m 2,5 C 4,3 C 3,2 km/h (1 Bft) 95,12 %
28.03.2019 05:12 4,3 C 7,8 C 3,9 C 88 % 1032,4 hPa 0,0 l/m 2,6 km/h (1 Bft) S-SW 213 0 min 0,000 mm 0,0 UV-I 0 W/m 2,5 C 4,3 C 3,2 km/h (1 Bft) 94,00 %
28.03.2019 05:14 4,3 C 7,8 C 3,9 C 89 % 1032,4 hPa 0,0 l/m 2,2 km/h (1 Bft) S-SW 213 0 min 0,000 mm 0,0 UV-I 0 W/m 2,7 C 4,3 C 3,2 km/h (1 Bft) 98,00 %
28.03.2019 05:16 4,2 C 7,8 C 3,3 C 88 % 1032,4 hPa 0,0 l/m 1,7 km/h (1 Bft) S-SW 213 0 min 0,000 mm 0,0 UV-I 0 W/m 2,4 C 4,2 C 3,2 km/h (1 Bft) 97,87 %
28.03.2019 05:18 4,1 C 7,8 C 3,3 C 89 % 1032,4 hPa 0,0 l/m 1,9 km/h (1 Bft) S-SW 213 0 min 0,000 mm 0,0 UV-I 0 W/m 2,5 C 4,1 C 3,2 km/h (1 Bft) 98,00 %
28.03.2019 05:20 4,1 C 7,8 C 3,3 C 89 % 1032,4 hPa 0,0 l/m 2,0 km/h (1 Bft) S-SW 213 0 min 0,000 mm 0,0 UV-I 0 W/m 2,5 C 4,1 C 3,2 km/h (1 Bft) 97,44 %
28.03.2019 05:22 4,0 C 7,8 C 3,3 C 89 % 1032,4 hPa 0,0 l/m 1,6 km/h (1 Bft) S-SW 213 0 min 0,000 mm 0,0 UV-I 0 W/m 2,4 C 4,0 C 3,2 km/h (1 Bft) 96,15 %
28.03.2019 05:24 3,9 C 7,8 C 3,3 C 90 % 1032,4 hPa 0,0 l/m 2,8 km/h (1 Bft) S-SW 213 0 min 0,000 mm 0,0 UV-I 0 W/m 2,4 C 3,9 C 4,8 km/h (1 Bft) 97,92 %
28.03.2019 05:26 3,9 C 7,8 C 3,3 C 90 % 1032,4 hPa 0,0 l/m 4,1 km/h (1 Bft) S-SW 213 0 min 0,000 mm 0,0 UV-I 0 W/m 2,4 C 3,9 C 4,8 km/h (1 Bft) 97,37 %
28.03.2019 05:28 4,1 C 7,8 C 3,3 C 90 % 1032,4 hPa 0,0 l/m 3,3 km/h (1 Bft) S-SW 213 0 min 0,000 mm 0,0 UV-I 0 W/m 2,6 C 4,1 C 4,8 km/h (1 Bft) 98,00 %
28.03.2019 05:30 4,1 C 7,8 C 3,3 C 90 % 1032,4 hPa 0,0 l/m 2,4 km/h (1 Bft) S-SW 213 0 min 0,000 mm 0,0 UV-I 0 W/m 2,6 C 4,1 C 4,8 km/h (1 Bft) 95,74 %
28.03.2019 05:32 4,2 C 7,8 C 3,3 C 89 % 1032,4 hPa 0,0 l/m 3,1 km/h (1 Bft) S-SW 213 0 min 0,000 mm 0,0 UV-I 0 W/m 2,6 C 4,2 C 4,8 km/h (1 Bft) 97,87 %
28.03.2019 05:34 4,2 C 7,8 C 3,3 C 89 % 1032,4 hPa 0,0 l/m 2,5 km/h (1 Bft) S-SW 213 0 min 0,000 mm 0,0 UV-I 0 W/m 2,6 C 4,2 C 4,8 km/h (1 Bft) 96,23 %
28.03.2019 05:36 4,2 C 7,8 C 3,9 C 89 % 1032,5 hPa 0,0 l/m 2,5 km/h (1 Bft) S-SW 213 0 min 0,000 mm 0,0 UV-I 0 W/m 2,6 C 4,2 C 3,2 km/h (1 Bft) 97,56 %
28.03.2019 05:38 4,2 C 7,8 C 3,9 C 89 % 1032,5 hPa 0,0 l/m 2,3 km/h (1 Bft) S-SW 213 0 min 0,000 mm 0,0 UV-I 0 W/m 2,6 C 4,2 C 3,2 km/h (1 Bft) 98,00 %
28.03.2019 05:40 4,2 C 7,8 C 3,9 C 88 % 1032,4 hPa 0,0 l/m 2,7 km/h (1 Bft) S-SW 213 0 min 0,000 mm 0,0 UV-I 0 W/m 2,4 C 4,2 C 4,8 km/h (1 Bft) 98,11 %
28.03.2019 05:42 4,2 C 7,8 C 3,9 C 88 % 1032,5 hPa 0,0 l/m 2,9 km/h (1 Bft) S-SW 213 0 min 0,000 mm 0,0 UV-I 0 W/m 2,4 C 4,2 C 4,8 km/h (1 Bft) 100,00 %
28.03.2019 05:44 4,2 C 7,8 C 3,9 C 88 % 1032,4 hPa 0,0 l/m 3,4 km/h (1 Bft) S-SW 213 0 min 0,000 mm 0,0 UV-I 1 W/m 2,4 C 4,2 C 4,8 km/h (1 Bft) 94,00 %
28.03.2019 05:46 4,2 C 7,8 C 3,9 C 88 % 1032,4 hPa 0,0 l/m 2,9 km/h (1 Bft) S-SW 213 0 min 0,000 mm 0,0 UV-I 5 W/m 2,4 C 4,2 C 4,8 km/h (1 Bft) 100,00 %
28.03.2019 05:48 4,2 C 7,8 C 3,9 C 88 % 1032,5 hPa 0,0 l/m 3,0 km/h (1 Bft) S-SW 213 0 min 0,000 mm 0,0 UV-I 5 W/m 2,4 C 4,2 C 4,8 km/h (1 Bft) 100,00 %
28.03.2019 05:50 4,2 C 7,8 C 3,9 C 88 % 1032,4 hPa 0,0 l/m 2,2 km/h (1 Bft) S-SW 213 0 min 0,000 mm 0,0 UV-I 5 W/m 2,4 C 4,2 C 3,2 km/h (1 Bft) 97,87 %
28.03.2019 05:52 4,2 C 7,8 C 3,9 C 88 % 1032,4 hPa 0,0 l/m 1,6 km/h (1 Bft) S-SW 213 0 min 0,000 mm 0,0 UV-I 5 W/m 2,4 C 4,2 C 3,2 km/h (1 Bft) 93,62 %
28.03.2019 05:54 4,2 C 7,8 C 3,9 C 88 % 1032,5 hPa 0,0 l/m 2,6 km/h (1 Bft) S-SW 213 0 min 0,000 mm 0,0 UV-I 7 W/m 2,4 C 4,2 C 3,2 km/h (1 Bft) 100,00 %
28.03.2019 05:56 4,2 C 7,8 C 3,9 C 88 % 1032,5 hPa 0,0 l/m 2,6 km/h (1 Bft) S-SW 213 0 min 0,000 mm 0,0 UV-I 7 W/m 2,4 C 4,2 C 4,8 km/h (1 Bft) 100,00 %
28.03.2019 05:58 4,2 C 7,8 C 3,3 C 88 % 1032,5 hPa 0,0 l/m 1,7 km/h (1 Bft) S-SW 213 0 min 0,000 mm 0,0 UV-I 7 W/m 2,4 C 4,2 C 3,2 km/h (1 Bft) 100,00 %
28.03.2019 06:00 4,2 C 7,8 C 3,3 C 88 % 1032,5 hPa 0,0 l/m 1,8 km/h (1 Bft) S-SW 213 0 min 0,000 mm 0,0 UV-I 8 W/m 2,4 C 4,2 C 3,2 km/h (1 Bft) 100,00 %
28.03.2019 06:02 4,2 C 7,8 C 3,3 C 88 % 1032,5 hPa 0,0 l/m 1,7 km/h (1 Bft) S-SW 213 0 min 0,000 mm 0,0 UV-I 9 W/m 2,4 C 4,2 C 3,2 km/h (1 Bft) 100,00 %
28.03.2019 06:04 4,2 C 7,8 C 3,9 C 88 % 1032,5 hPa 0,0 l/m 2,0 km/h (1 Bft) S-SW 213 0 min 0,000 mm 0,0 UV-I 10 W/m 2,4 C 4,2 C 3,2 km/h (1 Bft) 100,00 %
28.03.2019 06:06 4,2 C 7,8 C 3,9 C 88 % 1032,5 hPa 0,0 l/m 1,6 km/h (1 Bft) S-SW 213 0 min 0,000 mm 0,0 UV-I 11 W/m 2,4 C 4,2 C 3,2 km/h (1 Bft) 97,87 %
28.03.2019 06:08 4,3 C 7,8 C 3,9 C 88 % 1032,5 hPa 0,0 l/m 2,0 km/h (1 Bft) S-SW 213 0 min 0,000 mm 0,0 UV-I 12 W/m 2,5 C 4,3 C 3,2 km/h (1 Bft) 97,87 %
28.03.2019 06:10 4,3 C 7,8 C 3,9 C 88 % 1032,5 hPa 0,0 l/m 1,9 km/h (1 Bft) S-SW 213 0 min 0,000 mm 0,0 UV-I 14 W/m 2,5 C 4,3 C 3,2 km/h (1 Bft) 98,21 %
28.03.2019 06:12 4,3 C 7,8 C 3,9 C 88 % 1032,5 hPa 0,0 l/m 2,8 km/h (1 Bft) S-SW 213 0 min 0,000 mm 0,0 UV-I 16 W/m 2,5 C 4,3 C 3,2 km/h (1 Bft) 97,87 %
28.03.2019 06:14 4,3 C 7,8 C 3,9 C 88 % 1032,5 hPa 0,0 l/m 3,2 km/h (1 Bft) S-SW 213 0 min 0,000 mm 0,0 UV-I 17 W/m 2,5 C 4,3 C 4,8 km/h (1 Bft) 97,37 %
28.03.2019 06:16 4,3 C 7,8 C 3,9 C 88 % 1032,6 hPa 0,0 l/m 2,7 km/h (1 Bft) S-SW 213 0 min 0,000 mm 0,0 UV-I 19 W/m 2,5 C 4,3 C 4,8 km/h (1 Bft) 98,00 %
28.03.2019 06:18 4,3 C 7,8 C 3,9 C 88 % 1032,6 hPa 0,0 l/m 2,7 km/h (1 Bft) S-SW 213 0 min 0,000 mm 0,0 UV-I 20 W/m 2,5 C 4,3 C 4,8 km/h (1 Bft) 100,00 %
28.03.2019 06:20 4,3 C 7,8 C 3,9 C 88 % 1032,6 hPa 0,0 l/m 3,2 km/h (1 Bft) S-SW 213 0 min 0,000 mm 0,0 UV-I 22 W/m 2,5 C 4,3 C 4,8 km/h (1 Bft) 97,87 %
28.03.2019 06:22 4,3 C 7,8 C 3,9 C 88 % 1032,6 hPa 0,0 l/m 3,1 km/h (1 Bft) S-SW 213 0 min 0,000 mm 0,0 UV-I 25 W/m 2,5 C 4,3 C 4,8 km/h (1 Bft) 95,74 %
28.03.2019 06:24 4,3 C 7,8 C 3,9 C 88 % 1032,6 hPa 0,0 l/m 3,4 km/h (1 Bft) S-SW 213 0 min 0,000 mm 0,0 UV-I 26 W/m 2,5 C 4,3 C 4,8 km/h (1 Bft) 96,00 %
28.03.2019 06:26 4,3 C 7,8 C 4,4 C 88 % 1032,6 hPa 0,0 l/m 3,9 km/h (1 Bft) S-SW 213 0 min 0,000 mm 0,0 UV-I 29 W/m 2,5 C 4,3 C 4,8 km/h (1 Bft) 97,87 %
28.03.2019 06:28 4,3 C 7,8 C 4,4 C 88 % 1032,6 hPa 0,0 l/m 3,5 km/h (1 Bft) S-SW 213 0 min 0,000 mm 0,0 UV-I 32 W/m 2,5 C 4,3 C 4,8 km/h (1 Bft) 92,11 %
28.03.2019 06:30 4,3 C 7,8 C 4,4 C 88 % 1032,6 hPa 0,0 l/m 3,9 km/h (1 Bft) S-SW 213 0 min 0,000 mm 0,0 UV-I 33 W/m 2,5 C 4,3 C 4,8 km/h (1 Bft) 98,11 %
28.03.2019 06:32 4,3 C 7,8 C 4,4 C 88 % 1032,6 hPa 0,0 l/m 3,9 km/h (1 Bft) S-SW 213 0 min 0,000 mm 0,0 UV-I 36 W/m 2,5 C 4,3 C 6,4 km/h (2 Bft) 97,87 %
28.03.2019 06:34 4,3 C 7,8 C 4,4 C 88 % 1032,7 hPa 0,0 l/m 3,8 km/h (1 Bft) S-SW 213 0 min 0,000 mm 0,0 UV-I 39 W/m 2,5 C 4,3 C 6,4 km/h (2 Bft) 98,00 %
28.03.2019 06:36 4,3 C 7,8 C 4,4 C 88 % 1032,7 hPa 0,0 l/m 3,5 km/h (1 Bft) S-SW 213 0 min 0,000 mm 0,0 UV-I 40 W/m 2,5 C 4,3 C 4,8 km/h (1 Bft) 95,45 %
28.03.2019 06:38 4,3 C 7,8 C 4,4 C 88 % 1032,7 hPa 0,0 l/m 3,6 km/h (1 Bft) S-SW 213 0 min 0,000 mm 0,0 UV-I 43 W/m 2,5 C 4,3 C 4,8 km/h (1 Bft) 98,00 %
28.03.2019 06:40 4,3 C 7,8 C 5,0 C 88 % 1032,7 hPa 0,0 l/m 2,5 km/h (1 Bft) S-SW 213 0 min 0,000 mm 0,0 UV-I 45 W/m 2,5 C 4,3 C 3,2 km/h (1 Bft) 95,74 %
28.03.2019 06:42 4,4 C 7,8 C 5,0 C 88 % 1032,7 hPa 0,0 l/m 3,1 km/h (1 Bft) S-SW 213 0 min 0,000 mm 0,0 UV-I 48 W/m 2,6 C 4,4 C 4,8 km/h (1 Bft) 100,00 %
28.03.2019 06:44 4,4 C 7,8 C 5,0 C 88 % 1032,7 hPa 0,0 l/m 2,8 km/h (1 Bft) S-SW 213 0 min 0,000 mm 0,0 UV-I 51 W/m 2,6 C 4,4 C 4,8 km/h (1 Bft) 94,00 %
28.03.2019 06:46 4,4 C 7,8 C 5,0 C 88 % 1032,7 hPa 0,0 l/m 3,9 km/h (1 Bft) S-SW 213 0 min 0,000 mm 0,0 UV-I 54 W/m 2,6 C 4,4 C 4,8 km/h (1 Bft) 97,87 %
28.03.2019 06:48 4,4 C 7,8 C 5,0 C 88 % 1032,7 hPa 0,0 l/m 4,3 km/h (1 Bft) S-SW 213 0 min 0,000 mm 0,0 UV-I 58 W/m 2,6 C 4,4 C 6,4 km/h (2 Bft) 97,56 %
28.03.2019 06:50 4,5 C 7,8 C 5,6 C 88 % 1032,7 hPa 0,0 l/m 4,7 km/h (1 Bft) S-SW 209 0 min 0,000 mm 0,0 UV-I 62 W/m 2,7 C 4,5 C 6,4 km/h (2 Bft) 98,11 %
28.03.2019 06:52 4,6 C 7,8 C 5,6 C 88 % 1032,7 hPa 0,0 l/m 4,0 km/h (1 Bft) W 263 0 min 0,000 mm 0,0 UV-I 64 W/m 2,8 C 4,6 C 4,8 km/h (1 Bft) 97,87 %
28.03.2019 06:54 4,6 C 7,8 C 5,6 C 88 % 1032,8 hPa 0,0 l/m 4,1 km/h (1 Bft) SW 225 0 min 0,000 mm 0,0 UV-I 67 W/m 2,8 C 4,6 C 4,8 km/h (1 Bft) 97,87 %
28.03.2019 06:56 4,6 C 7,8 C 5,6 C 87 % 1032,8 hPa 0,0 l/m 3,5 km/h (1 Bft) S-SW 209 0 min 0,000 mm 0,0 UV-I 71 W/m 2,6 C 4,6 C 6,4 km/h (2 Bft) 97,56 %
28.03.2019 06:58 4,6 C 7,8 C 5,6 C 87 % 1032,8 hPa 0,0 l/m 4,0 km/h (1 Bft) S-SW 206 0 min 0,000 mm 0,0 UV-I 74 W/m 2,6 C 4,6 C 6,4 km/h (2 Bft) 96,23 %
28.03.2019 07:00 4,7 C 7,8 C 6,1 C 87 % 1032,8 hPa 0,0 l/m 3,2 km/h (1 Bft) S-SW 206 0 min 0,025 mm 0,0 UV-I 79 W/m 2,7 C 4,7 C 4,8 km/h (1 Bft) 92,00 %
28.03.2019 07:02 4,7 C 7,8 C 6,1 C 87 % 1032,8 hPa 0,0 l/m 2,3 km/h (1 Bft) S-SW 206 0 min 0,000 mm 0,0 UV-I 82 W/m 2,7 C 4,7 C 4,8 km/h (1 Bft) 97,37 %
28.03.2019 07:04 4,8 C 7,8 C 6,1 C 87 % 1032,8 hPa 0,0 l/m 4,1 km/h (1 Bft) S-SW 206 0 min 0,000 mm 0,0 UV-I 84 W/m 2,8 C 4,8 C 6,4 km/h (2 Bft) 100,00 %
28.03.2019 07:06 4,8 C 7,8 C 6,1 C 87 % 1032,9 hPa 0,0 l/m 3,8 km/h (1 Bft) SW 233 0 min 0,000 mm 0,0 UV-I 86 W/m 2,8 C 4,8 C 4,8 km/h (1 Bft) 100,00 %
28.03.2019 07:08 4,9 C 7,8 C 6,1 C 87 % 1032,9 hPa 0,0 l/m 4,0 km/h (1 Bft) SW 214 0 min 0,000 mm 0,0 UV-I 87 W/m 2,9 C 4,9 C 6,4 km/h (2 Bft) 100,00 %
28.03.2019 07:10 4,8 C 7,8 C 6,7 C 87 % 1032,9 hPa 0,0 l/m 3,5 km/h (1 Bft) S-SW 210 0 min 0,000 mm 0,0 UV-I 88 W/m 2,8 C 4,8 C 6,4 km/h (2 Bft) 100,00 %
28.03.2019 07:12 4,9 C 7,8 C 6,7 C 87 % 1032,9 hPa 0,0 l/m 3,1 km/h (1 Bft) S-SW 210 0 min 0,000 mm 0,0 UV-I 88 W/m 2,9 C 4,9 C 4,8 km/h (1 Bft) 100,00 %
28.03.2019 07:14 4,9 C 7,8 C 6,7 C 87 % 1032,9 hPa 0,0 l/m 3,7 km/h (1 Bft) S-SW 202 0 min 0,000 mm 0,0 UV-I 90 W/m 2,9 C 4,9 C 4,8 km/h (1 Bft) 100,00 %
28.03.2019 07:16 4,9 C 7,8 C 6,7 C 87 % 1032,9 hPa 0,0 l/m 2,8 km/h (1 Bft) S-SW 202 0 min 0,000 mm 0,0 UV-I 91 W/m 2,9 C 4,9 C 3,2 km/h (1 Bft) 100,00 %
28.03.2019 07:18 4,9 C 7,8 C 6,7 C 87 % 1032,9 hPa 0,0 l/m 2,3 km/h (1 Bft) S-SW 202 0 min 0,000 mm 0,0 UV-I 95 W/m 2,9 C 4,9 C 3,2 km/h (1 Bft) 100,00 %
28.03.2019 07:20 5,1 C 7,8 C 7,2 C 87 % 1032,9 hPa 0,0 l/m 3,5 km/h (1 Bft) S-SW 202 0 min 0,000 mm 0,0 UV-I 101 W/m 3,1 C 5,1 C 4,8 km/h (1 Bft) 100,00 %
28.03.2019 07:22 5,2 C 7,8 C 7,2 C 87 % 1032,8 hPa 0,0 l/m 4,0 km/h (1 Bft) S-SW 203 0 min 0,000 mm 0,0 UV-I 105 W/m 3,2 C 5,2 C 4,8 km/h (1 Bft) 100,00 %
28.03.2019 07:24 5,2 C 7,8 C 7,2 C 87 % 1032,9 hPa 0,0 l/m 4,1 km/h (1 Bft) SW 231 0 min 0,000 mm 0,0 UV-I 110 W/m 3,2 C 5,2 C 6,4 km/h (2 Bft) 96,00 %
28.03.2019 07:26 5,2 C 7,8 C 7,2 C 87 % 1032,9 hPa 0,0 l/m 4,6 km/h (1 Bft) SW 227 0 min 0,000 mm 0,0 UV-I 115 W/m 3,2 C 5,2 C 8,0 km/h (2 Bft) 100,00 %
28.03.2019 07:28 5,3 C 7,8 C 7,2 C 87 % 1032,9 hPa 0,0 l/m 3,1 km/h (1 Bft) SW 234 0 min 0,000 mm 0,0 UV-I 121 W/m 3,3 C 5,3 C 4,8 km/h (1 Bft) 96,23 %
28.03.2019 07:30 5,4 C 7,8 C 7,8 C 86 % 1032,8 hPa 0,0 l/m 3,5 km/h (1 Bft) SW 230 0 min 0,000 mm 0,0 UV-I 103 W/m 3,3 C 5,4 C 6,4 km/h (2 Bft) 97,87 %
28.03.2019 07:32 5,4 C 7,8 C 7,8 C 86 % 1032,8 hPa 0,0 l/m 4,1 km/h (1 Bft) W-SW 239 0 min 0,000 mm 0,0 UV-I 38 W/m 3,3 C 5,4 C 8,0 km/h (2 Bft) 97,87 %
28.03.2019 07:34 5,4 C 7,8 C 7,8 C 86 % 1032,8 hPa 0,0 l/m 4,8 km/h (1 Bft) SW 234 0 min 0,000 mm 0,0 UV-I 102 W/m 3,3 C 5,4 C 8,0 km/h (2 Bft) 98,00 %
28.03.2019 07:36 5,5 C 7,8 C 7,8 C 85 % 1032,8 hPa 0,0 l/m 5,7 km/h (1 Bft) W-SW 238 0 min 0,000 mm 0,0 UV-I 134 W/m 3,2 C 5,5 C 11,3 km/h (2 Bft) 97,37 %
28.03.2019 07:38 5,6 C 7,8 C 7,8 C 85 % 1032,8 hPa 0,0 l/m 5,8 km/h (2 Bft) W-SW 244 0 min 0,000 mm 0,0 UV-I 138 W/m 3,3 C 5,6 C 9,7 km/h (2 Bft) 97,87 %
28.03.2019 07:40 5,6 C 7,8 C 7,8 C 84 % 1032,8 hPa 0,0 l/m 6,1 km/h (2 Bft) S-SW 211 0 min 0,000 mm 0,0 UV-I 132 W/m 3,1 C 5,6 C 8,0 km/h (2 Bft) 98,00 %
28.03.2019 07:42 5,6 C 7,8 C 7,8 C 84 % 1032,8 hPa 0,0 l/m 6,1 km/h (2 Bft) W-SW 238 0 min 0,000 mm 0,0 UV-I 100 W/m 3,1 C 5,6 C 11,3 km/h (2 Bft) 95,12 %
28.03.2019 07:44 5,7 C 7,8 C 7,8 C 84 % 1032,9 hPa 0,0 l/m 5,8 km/h (2 Bft) W-SW 240 0 min 0,000 mm 0,0 UV-I 155 W/m 3,2 C 5,7 C 8,0 km/h (2 Bft) 95,12 %
28.03.2019 07:46 5,8 C 7,8 C 8,3 C 84 % 1032,9 hPa 0,0 l/m 6,0 km/h (2 Bft) S-SW 210 0 min 0,000 mm 0,0 UV-I 163 W/m 3,3 C 5,8 C 9,7 km/h (2 Bft) 96,77 %
28.03.2019 07:48 5,8 C 7,8 C 8,3 C 84 % 1032,9 hPa 0,0 l/m 5,5 km/h (1 Bft) S-SW 196 0 min 0,000 mm 0,0 UV-I 169 W/m 3,3 C 5,8 C 9,7 km/h (2 Bft) 100,00 %
28.03.2019 07:50 5,9 C 7,8 C 8,3 C 84 % 1032,9 hPa 0,0 l/m 7,3 km/h (2 Bft) SW 223 0 min 0,000 mm 0,0 UV-I 173 W/m 3,4 C 5,1 C 11,3 km/h (2 Bft) 97,37 %
28.03.2019 07:52 5,9 C 7,8 C 8,9 C 83 % 1032,9 hPa 0,0 l/m 8,0 km/h (2 Bft) SW 233 0 min 0,000 mm 0,0 UV-I 177 W/m 3,2 C 4,5 C 12,9 km/h (3 Bft) 100,00 %
28.03.2019 07:54 6,0 C 7,8 C 8,3 C 83 % 1032,9 hPa 0,0 l/m 7,9 km/h (2 Bft) SW 232 0 min 0,000 mm 0,0 UV-I 179 W/m 3,3 C 4,7 C 11,3 km/h (2 Bft) 100,00 %
28.03.2019 07:56 6,0 C 7,8 C 8,9 C 82 % 1032,9 hPa 0,0 l/m 7,1 km/h (2 Bft) S-SW 203 0 min 0,000 mm 0,0 UV-I 179 W/m 3,2 C 5,4 C 11,3 km/h (2 Bft) 100,00 %
28.03.2019 07:58 6,1 C 7,8 C 8,9 C 83 % 1032,8 hPa 0,0 l/m 6,5 km/h (2 Bft) S-SW 198 0 min 0,000 mm 0,0 UV-I 178 W/m 3,4 C 6,0 C 9,7 km/h (2 Bft) 98,00 %
28.03.2019 08:00 6,1 C 7,8 C 8,9 C 82 % 1032,8 hPa 0,0 l/m 6,6 km/h (2 Bft) SW 229 0 min 0,051 mm 0,0 UV-I 174 W/m 3,3 C 6,0 C 11,3 km/h (2 Bft) 100,00 %
28.03.2019 08:02 6,2 C 7,8 C 9,4 C 82 % 1032,8 hPa 0,0 l/m 6,3 km/h (2 Bft) SW 220 0 min 0,000 mm 0,0 UV-I 171 W/m 3,4 C 6,2 C 11,3 km/h (2 Bft) 100,00 %
28.03.2019 08:04 6,2 C 7,8 C 9,4 C 82 % 1032,8 hPa 0,0 l/m 6,7 km/h (2 Bft) SW 227 0 min 0,000 mm 0,0 UV-I 169 W/m 3,4 C 6,0 C 11,3 km/h (2 Bft) 95,74 %
28.03.2019 08:06 6,3 C 7,8 C 9,4 C 82 % 1032,8 hPa 0,0 l/m 6,4 km/h (2 Bft) SW 223 0 min 0,000 mm 0,0 UV-I 166 W/m 3,5 C 6,3 C 11,3 km/h (2 Bft) 100,00 %
28.03.2019 08:08 6,3 C 7,8 C 9,4 C 82 % 1032,8 hPa 0,0 l/m 6,7 km/h (2 Bft) S-SW 207 0 min 0,000 mm 0,0 UV-I 165 W/m 3,5 C 6,1 C 12,9 km/h (3 Bft) 97,87 %
28.03.2019 08:10 6,4 C 7,8 C 9,4 C 82 % 1032,8 hPa 0,0 l/m 4,3 km/h (1 Bft) S-SW 200 0 min 0,000 mm 0,0 UV-I 166 W/m 3,6 C 6,4 C 6,4 km/h (2 Bft) 100,00 %
28.03.2019 08:12 6,4 C 7,8 C 9,4 C 82 % 1032,8 hPa 0,0 l/m 5,6 km/h (1 Bft) SW 217 0 min 0,000 mm 0,0 UV-I 168 W/m 3,6 C 6,4 C 9,7 km/h (2 Bft) 97,56 %
28.03.2019 08:14 6,4 C 7,8 C 9,4 C 82 % 1032,8 hPa 0,0 l/m 8,8 km/h (2 Bft) SW 227 0 min 0,000 mm 0,0 UV-I 169 W/m 3,6 C 4,5 C 12,9 km/h (3 Bft) 100,00 %
28.03.2019 08:16 6,4 C 7,8 C 9,4 C 81 % 1032,8 hPa 0,0 l/m 8,1 km/h (2 Bft) S-SW 194 0 min 0,000 mm 0,0 UV-I 169 W/m 3,4 C 5,0 C 14,5 km/h (3 Bft) 100,00 %
28.03.2019 08:18 6,4 C 7,8 C 9,4 C 81 % 1032,8 hPa 0,0 l/m 7,6 km/h (2 Bft) S-SW 212 0 min 0,000 mm 0,0 UV-I 168 W/m 3,4 C 5,4 C 12,9 km/h (3 Bft) 100,00 %
28.03.2019 08:20 6,4 C 7,8 C 9,4 C 81 % 1032,8 hPa 0,0 l/m 6,8 km/h (2 Bft) SW 220 0 min 0,000 mm 0,0 UV-I 167 W/m 3,4 C 6,1 C 11,3 km/h (2 Bft) 100,00 %
28.03.2019 08:22 6,5 C 7,8 C 9,4 C 81 % 1032,8 hPa 0,0 l/m 6,4 km/h (2 Bft) S-SW 213 0 min 0,000 mm 0,5 UV-I 167 W/m 3,5 C 6,5 C 11,3 km/h (2 Bft) 100,00 %
28.03.2019 08:24 6,5 C 7,8 C 9,4 C 80 % 1032,8 hPa 0,0 l/m 8,1 km/h (2 Bft) S-SW 205 0 min 0,000 mm 0,5 UV-I 169 W/m 3,3 C 5,1 C 12,9 km/h (3 Bft) 100,00 %
28.03.2019 08:26 6,4 C 7,8 C 9,4 C 80 % 1032,9 hPa 0,0 l/m 5,0 km/h (1 Bft) SW 222 0 min 0,000 mm 0,5 UV-I 172 W/m 3,2 C 6,4 C 9,7 km/h (2 Bft) 98,11 %
28.03.2019 08:28 6,5 C 7,8 C 9,4 C 81 % 1032,9 hPa 0,0 l/m 5,1 km/h (1 Bft) W-SW 238 0 min 0,000 mm 0,5 UV-I 178 W/m 3,5 C 6,5 C 8,0 km/h (2 Bft) 100,00 %
28.03.2019 08:30 6,6 C 7,8 C 9,4 C 81 % 1032,9 hPa 0,0 l/m 4,1 km/h (1 Bft) W-SW 257 0 min 0,000 mm 0,5 UV-I 185 W/m 3,6 C 6,6 C 11,3 km/h (2 Bft) 97,87 %
28.03.2019 08:32 6,6 C 7,8 C 9,4 C 80 % 1032,9 hPa 0,0 l/m 6,2 km/h (2 Bft) SW 229 0 min 0,000 mm 0,5 UV-I 190 W/m 3,4 C 6,6 C 9,7 km/h (2 Bft) 97,87 %
28.03.2019 08:34 6,7 C 7,8 C 10,0 C 80 % 1032,9 hPa 0,0 l/m 4,2 km/h (1 Bft) W 269 0 min 0,000 mm 0,6 UV-I 193 W/m 3,5 C 6,7 C 6,4 km/h (2 Bft) 95,74 %
28.03.2019 08:36 6,7 C 7,8 C 10,0 C 81 % 1032,8 hPa 0,0 l/m 4,4 km/h (1 Bft) S-SW 206 0 min 0,000 mm 0,6 UV-I 199 W/m 3,7 C 6,7 C 6,4 km/h (2 Bft) 97,44 %
28.03.2019 08:38 6,8 C 7,8 C 10,0 C 80 % 1032,8 hPa 0,0 l/m 5,6 km/h (1 Bft) W-SW 242 0 min 0,000 mm 0,6 UV-I 208 W/m 3,6 C 6,8 C 9,7 km/h (2 Bft) 95,74 %
28.03.2019 08:40 6,8 C 7,8 C 10,0 C 80 % 1032,8 hPa 0,0 l/m 7,7 km/h (2 Bft) W-SW 253 0 min 0,000 mm 0,6 UV-I 212 W/m 3,6 C 5,7 C 12,9 km/h (3 Bft) 97,87 %
28.03.2019 08:42 6,8 C 7,8 C 10,6 C 79 % 1032,8 hPa 0,0 l/m 7,4 km/h (2 Bft) S-SW 207 0 min 0,000 mm 0,7 UV-I 215 W/m 3,4 C 6,0 C 12,9 km/h (3 Bft) 97,87 %
28.03.2019 08:44 6,8 C 7,8 C 10,6 C 79 % 1032,8 hPa 0,0 l/m 7,5 km/h (2 Bft) SW 215 0 min 0,000 mm 0,7 UV-I 220 W/m 3,4 C 5,9 C 11,3 km/h (2 Bft) 96,00 %
28.03.2019 08:46 6,9 C 7,8 C 10,6 C 80 % 1032,8 hPa 0,0 l/m 4,2 km/h (1 Bft) S-SW 211 0 min 0,000 mm 0,7 UV-I 227 W/m 3,7 C 6,9 C 6,4 km/h (2 Bft) 97,37 %
28.03.2019 08:48 6,9 C 7,8 C 11,1 C 80 % 1032,8 hPa 0,0 l/m 7,1 km/h (2 Bft) W-SW 239 0 min 0,000 mm 0,7 UV-I 238 W/m 3,7 C 6,3 C 11,3 km/h (2 Bft) 94,00 %
28.03.2019 08:50 7,0 C 7,8 C 11,1 C 80 % 1032,7 hPa 0,0 l/m 8,7 km/h (2 Bft) W-SW 244 0 min 0,000 mm 0,8 UV-I 247 W/m 3,8 C 5,2 C 11,3 km/h (2 Bft) 94,83 %
28.03.2019 08:52 7,1 C 7,8 C 11,7 C 80 % 1032,6 hPa 0,0 l/m 9,8 km/h (2 Bft) S-SW 203 0 min 0,000 mm 0,8 UV-I 255 W/m 3,9 C 4,5 C 14,5 km/h (3 Bft) 94,74 %
28.03.2019 08:54 7,1 C 7,8 C 11,7 C 79 % 1032,6 hPa 0,0 l/m 9,4 km/h (2 Bft) S 175 0 min 0,000 mm 0,8 UV-I 260 W/m 3,7 C 4,8 C 12,9 km/h (3 Bft) 93,18 %
28.03.2019 08:56 7,1 C 7,8 C 11,7 C 79 % 1032,6 hPa 0,0 l/m 11,0 km/h (2 Bft) S-SW 209 0 min 0,000 mm 0,8 UV-I 262 W/m 3,7 C 3,8 C 16,1 km/h (3 Bft) 93,18 %
28.03.2019 08:58 7,2 C 7,8 C 11,7 C 78 % 1032,6 hPa 0,0 l/m 10,4 km/h (2 Bft) SW 217 0 min 0,000 mm 0,8 UV-I 254 W/m 3,6 C 4,2 C 16,1 km/h (3 Bft) 93,22 %
28.03.2019 09:00 7,2 C 7,8 C 11,7 C 79 % 1032,6 hPa 0,0 l/m 7,4 km/h (2 Bft) SW 225 0 min 0,102 mm 0,8 UV-I 244 W/m 3,8 C 6,4 C 12,9 km/h (3 Bft) 92,68 %
28.03.2019 09:02 7,3 C 7,8 C 11,7 C 79 % 1032,6 hPa 0,0 l/m 7,1 km/h (2 Bft) SW 236 0 min 0,000 mm 0,8 UV-I 242 W/m 3,9 C 6,7 C 11,3 km/h (2 Bft) 92,00 %
28.03.2019 09:04 7,3 C 7,8 C 11,7 C 78 % 1032,6 hPa 0,0 l/m 10,5 km/h (2 Bft) S-SW 211 0 min 0,000 mm 0,8 UV-I 248 W/m 3,7 C 4,3 C 14,5 km/h (3 Bft) 96,00 %
28.03.2019 09:06 7,4 C 7,8 C 11,7 C 78 % 1032,6 hPa 0,0 l/m 7,7 km/h (2 Bft) S 188 0 min 0,000 mm 0,9 UV-I 260 W/m 3,8 C 6,4 C 14,5 km/h (3 Bft) 97,87 %
28.03.2019 09:08 7,4 C 7,8 C 11,7 C 78 % 1032,7 hPa 0,0 l/m 6,6 km/h (2 Bft) W-SW 253 0 min 0,000 mm 0,9 UV-I 270 W/m 3,8 C 7,3 C 9,7 km/h (2 Bft) 97,44 %
28.03.2019 09:10 7,4 C 7,8 C 11,7 C 77 % 1032,7 hPa 0,0 l/m 10,1 km/h (2 Bft) SW 232 0 min 0,000 mm 0,9 UV-I 273 W/m 3,6 C 4,7 C 16,1 km/h (3 Bft) 97,96 %
28.03.2019 09:12 7,4 C 7,8 C 11,7 C 76 % 1032,8 hPa 0,0 l/m 12,5 km/h (3 Bft) W-SW 249 0 min 0,000 mm 0,9 UV-I 275 W/m 3,5 C 3,2 C 17,7 km/h (3 Bft) 98,00 %
28.03.2019 09:14 7,4 C 7,8 C 11,7 C 76 % 1032,7 hPa 0,0 l/m 8,1 km/h (2 Bft) SW 234 0 min 0,000 mm 0,9 UV-I 276 W/m 3,5 C 6,0 C 14,5 km/h (3 Bft) 97,78 %
28.03.2019 09:16 7,5 C 7,8 C 11,7 C 77 % 1032,7 hPa 0,0 l/m 6,9 km/h (2 Bft) W 266 0 min 0,000 mm 0,9 UV-I 274 W/m 3,7 C 7,1 C 11,3 km/h (2 Bft) 96,23 %
28.03.2019 09:18 7,7 C 7,8 C 12,2 C 77 % 1032,7 hPa 0,0 l/m 7,1 km/h (2 Bft) W-SW 248 0 min 0,000 mm 1,0 UV-I 272 W/m 3,9 C 7,1 C 12,9 km/h (3 Bft) 97,87 %
28.03.2019 09:20 7,8 C 7,8 C 12,2 C 77 % 1032,7 hPa 0,0 l/m 6,7 km/h (2 Bft) SW 236 0 min 0,000 mm 1,0 UV-I 276 W/m 4,0 C 7,6 C 12,9 km/h (3 Bft) 97,87 %
28.03.2019 09:22 7,8 C 7,8 C 12,2 C 76 % 1032,7 hPa 0,0 l/m 5,7 km/h (1 Bft) W-NW 290 0 min 0,000 mm 1,0 UV-I 281 W/m 3,8 C 7,8 C 9,7 km/h (2 Bft) 95,12 %
28.03.2019 09:24 7,8 C 7,8 C 12,2 C 76 % 1032,8 hPa 0,0 l/m 6,8 km/h (2 Bft) W-SW 252 0 min 0,000 mm 1,0 UV-I 284 W/m 3,8 C 7,5 C 11,3 km/h (2 Bft) 97,56 %
28.03.2019 09:26 7,8 C 7,8 C 12,2 C 76 % 1032,8 hPa 0,0 l/m 6,9 km/h (2 Bft) SW 229 0 min 0,000 mm 1,0 UV-I 287 W/m 3,8 C 7,4 C 11,3 km/h (2 Bft) 98,00 %
28.03.2019 09:28 7,8 C 7,8 C 12,8 C 76 % 1032,8 hPa 0,0 l/m 3,4 km/h (1 Bft) W-SW 243 0 min 0,000 mm 1,1 UV-I 290 W/m 3,8 C 7,8 C 6,4 km/h (2 Bft) 95,74 %
28.03.2019 09:30 7,8 C 7,8 C 12,8 C 75 % 1032,8 hPa 0,0 l/m 4,3 km/h (1 Bft) S-SW 205 0 min 0,000 mm 1,1 UV-I 290 W/m 3,7 C 7,8 C 8,0 km/h (2 Bft) 98,11 %
28.03.2019 09:32 7,9 C 7,8 C 12,8 C 76 % 1032,8 hPa 0,0 l/m 4,1 km/h (1 Bft) W-SW 244 0 min 0,000 mm 1,1 UV-I 288 W/m 3,9 C 7,9 C 8,0 km/h (2 Bft) 95,74 %
28.03.2019 09:34 8,0 C 7,8 C 13,3 C 75 % 1032,8 hPa 0,0 l/m 2,7 km/h (1 Bft) S-SW 213 0 min 0,000 mm 1,1 UV-I 291 W/m 3,8 C 8,0 C 4,8 km/h (1 Bft) 93,62 %
28.03.2019 09:36 8,0 C 7,8 C 13,3 C 76 % 1032,8 hPa 0,0 l/m 3,4 km/h (1 Bft) W 273 0 min 0,000 mm 1,1 UV-I 296 W/m 4,0 C 8,0 C 6,4 km/h (2 Bft) 95,83 %
28.03.2019 09:38 8,2 C 7,8 C 13,3 C 76 % 1032,8 hPa 0,0 l/m 2,9 km/h (1 Bft) W 271 0 min 0,000 mm 1,1 UV-I 306 W/m 4,2 C 8,2 C 4,8 km/h (1 Bft) 97,01 %
28.03.2019 09:40 8,2 C 7,8 C 13,3 C 75 % 1032,8 hPa 0,0 l/m 4,8 km/h (1 Bft) W 264 2 min 0,000 mm 1,2 UV-I 315 W/m 4,0 C 8,2 C 9,7 km/h (2 Bft) 91,49 %
28.03.2019 09:42 8,2 C 7,8 C 13,9 C 75 % 1032,7 hPa 0,0 l/m 4,0 km/h (1 Bft) W-NW 293 2 min 0,000 mm 1,2 UV-I 324 W/m 4,0 C 8,2 C 6,4 km/h (2 Bft) 97,87 %
28.03.2019 09:44 8,2 C 7,8 C 13,9 C 75 % 1032,7 hPa 0,0 l/m 3,7 km/h (1 Bft) W-NW 287 2 min 0,000 mm 1,2 UV-I 330 W/m 4,0 C 8,2 C 6,4 km/h (2 Bft) 97,44 %
28.03.2019 09:46 8,2 C 7,8 C 13,9 C 75 % 1032,7 hPa 0,0 l/m 6,9 km/h (2 Bft) S-SW 209 2 min 0,000 mm 1,3 UV-I 333 W/m 4,0 C 7,8 C 9,7 km/h (2 Bft) 96,15 %
28.03.2019 09:48 8,2 C 7,8 C 14,4 C 75 % 1032,6 hPa 0,0 l/m 6,9 km/h (2 Bft) W 262 2 min 0,000 mm 1,4 UV-I 338 W/m 4,0 C 7,8 C 11,3 km/h (2 Bft) 98,11 %
28.03.2019 09:50 8,3 C 7,8 C 15,0 C 75 % 1032,6 hPa 0,0 l/m 8,0 km/h (2 Bft) SW 227 2 min 0,000 mm 1,5 UV-I 363 W/m 4,1 C 7,1 C 14,5 km/h (3 Bft) 95,24 %
28.03.2019 09:52 8,4 C 7,8 C 16,7 C 74 % 1032,6 hPa 0,0 l/m 6,1 km/h (2 Bft) S-SW 211 2 min 0,000 mm 1,8 UV-I 449 W/m 4,0 C 8,4 C 9,7 km/h (2 Bft) 97,56 %
28.03.2019 09:54 8,6 C 7,8 C 17,8 C 75 % 1032,6 hPa 0,0 l/m 5,0 km/h (1 Bft) W-SW 248 2 min 0,000 mm 1,7 UV-I 514 W/m 4,4 C 8,6 C 11,3 km/h (2 Bft) 98,11 %
28.03.2019 09:56 8,7 C 7,8 C 17,2 C 73 % 1032,6 hPa 0,0 l/m 9,5 km/h (2 Bft) W-SW 238 2 min 0,000 mm 1,6 UV-I 445 W/m 4,1 C 6,5 C 12,9 km/h (3 Bft) 97,37 %
28.03.2019 09:58 8,7 C 7,8 C 16,7 C 73 % 1032,6 hPa 0,0 l/m 7,4 km/h (2 Bft) W-SW 238 2 min 0,000 mm 1,7 UV-I 456 W/m 4,1 C 7,9 C 11,3 km/h (2 Bft) 98,21 %
28.03.2019 10:00 8,7 C 7,8 C 16,7 C 72 % 1032,7 hPa 0,0 l/m 6,9 km/h (2 Bft) NW 304 2 min 0,152 mm 1,7 UV-I 479 W/m 3,9 C 8,3 C 12,9 km/h (3 Bft) 97,87 %
28.03.2019 10:02 8,7 C 7,8 C 17,2 C 72 % 1032,7 hPa 0,0 l/m 8,2 km/h (2 Bft) W-SW 248 2 min 0,000 mm 1,8 UV-I 528 W/m 3,9 C 7,3 C 12,9 km/h (3 Bft) 97,37 %
28.03.2019 10:04 8,7 C 7,8 C 17,8 C 72 % 1032,7 hPa 0,0 l/m 7,6 km/h (2 Bft) W 269 2 min 0,000 mm 1,8 UV-I 547 W/m 3,9 C 7,8 C 12,9 km/h (3 Bft) 92,45 %
28.03.2019 10:06 8,8 C 7,8 C 17,8 C 72 % 1032,7 hPa 0,0 l/m 8,0 km/h (2 Bft) W-NW 292 2 min 0,000 mm 1,7 UV-I 494 W/m 4,0 C 7,6 C 14,5 km/h (3 Bft) 96,55 %
28.03.2019 10:08 9,1 C 7,8 C 17,8 C 73 % 1032,6 hPa 0,0 l/m 4,3 km/h (1 Bft) W-SW 242 2 min 0,000 mm 1,7 UV-I 453 W/m 4,5 C 9,1 C 9,7 km/h (2 Bft) 95,16 %
28.03.2019 10:10 9,1 C 7,8 C 17,2 C 71 % 1032,5 hPa 0,0 l/m 8,8 km/h (2 Bft) W 269 2 min 0,000 mm 1,8 UV-I 482 W/m 4,1 C 7,4 C 14,5 km/h (3 Bft) 94,34 %
28.03.2019 10:12 9,2 C 7,8 C 17,8 C 72 % 1032,5 hPa 0,0 l/m 6,1 km/h (2 Bft) W 273 2 min 0,000 mm 1,9 UV-I 503 W/m 4,4 C 9,2 C 9,7 km/h (2 Bft) 97,37 %
28.03.2019 10:14 9,3 C 7,8 C 18,9 C 71 % 1032,5 hPa 0,0 l/m 9,5 km/h (2 Bft) W-SW 238 2 min 0,000 mm 2,2 UV-I 531 W/m 4,3 C 7,1 C 16,1 km/h (3 Bft) 92,86 %
28.03.2019 10:16 9,2 C 7,8 C 18,9 C 70 % 1032,5 hPa 0,0 l/m 5,2 km/h (1 Bft) W-SW 253 2 min 0,000 mm 1,9 UV-I 531 W/m 4,0 C 9,2 C 8,0 km/h (2 Bft) 95,74 %
28.03.2019 10:19 9,1 C 7,8 C 19,4 C 71 % 1032,5 hPa 0,0 l/m 5,3 km/h (1 Bft) W 259 3 min 0,000 mm 2,0 UV-I 510 W/m 4,1 C 9,1 C 11,3 km/h (2 Bft) 95,59 %
28.03.2019 10:20 9,2 C 7,8 C 19,4 C 72 % 1032,5 hPa 0,0 l/m 6,0 km/h (2 Bft) W-NW 284 1 min 0,000 mm 1,9 UV-I 478 W/m 4,4 C 9,2 C 11,3 km/h (2 Bft) 97,07 %
28.03.2019 10:22 9,3 C 7,8 C 19,4 C 71 % 1032,5 hPa 0,0 l/m 10,3 km/h (2 Bft) W 262 2 min 0,000 mm 2,0 UV-I 508 W/m 4,3 C 6,6 C 12,9 km/h (3 Bft) 95,52 %
28.03.2019 10:24 9,3 C 7,8 C 20,0 C 70 % 1032,6 hPa 0,0 l/m 7,5 km/h (2 Bft) SW 232 2 min 0,000 mm 2,1 UV-I 538 W/m 4,1 C 8,5 C 11,3 km/h (2 Bft) 95,24 %
28.03.2019 10:26 9,4 C 7,8 C 20,0 C 70 % 1032,5 hPa 0,0 l/m 8,4 km/h (2 Bft) S-SW 198 2 min 0,000 mm 2,1 UV-I 541 W/m 4,2 C 7,9 C 12,9 km/h (3 Bft) 94,83 %
28.03.2019 10:28 9,4 C 7,8 C 21,1 C 69 % 1032,5 hPa 0,0 l/m 4,2 km/h (1 Bft) W-SW 244 2 min 0,000 mm 2,1 UV-I 536 W/m 4,0 C 9,4 C 6,4 km/h (2 Bft) 100,00 %
28.03.2019 10:30 9,6 C 7,8 C 22,2 C 70 % 1032,5 hPa 0,0 l/m 4,2 km/h (1 Bft) S-SW 199 2 min 0,000 mm 2,2 UV-I 538 W/m 4,4 C 9,6 C 6,4 km/h (2 Bft) 95,38 %
28.03.2019 10:32 9,8 C 7,8 C 22,2 C 69 % 1032,5 hPa 0,0 l/m 5,8 km/h (2 Bft) W-NW 289 2 min 0,000 mm 2,2 UV-I 570 W/m 4,4 C 9,8 C 9,7 km/h (2 Bft) 97,87 %
28.03.2019 10:34 9,9 C 7,8 C 22,2 C 68 % 1032,4 hPa 0,0 l/m 10,7 km/h (2 Bft) W 276 2 min 0,000 mm 2,4 UV-I 696 W/m 4,3 C 7,1 C 17,7 km/h (3 Bft) 95,74 %
28.03.2019 10:36 9,8 C 7,8 C 20,0 C 66 % 1032,4 hPa 0,0 l/m 8,3 km/h (2 Bft) W 270 2 min 0,000 mm 1,9 UV-I 523 W/m 3,8 C 8,4 C 12,9 km/h (3 Bft) 97,87 %
28.03.2019 10:38 9,7 C 7,8 C 19,4 C 66 % 1032,4 hPa 0,0 l/m 4,9 km/h (1 Bft) W 261 2 min 0,000 mm 2,0 UV-I 458 W/m 3,7 C 9,7 C 11,3 km/h (2 Bft) 97,87 %
28.03.2019 10:40 9,6 C 7,8 C 19,4 C 66 % 1032,4 hPa 0,0 l/m 4,3 km/h (1 Bft) S-SW 211 2 min 0,000 mm 2,1 UV-I 474 W/m 3,6 C 9,6 C 11,3 km/h (2 Bft) 100,00 %
28.03.2019 10:42 9,6 C 7,8 C 18,9 C 67 % 1032,4 hPa 0,0 l/m 9,7 km/h (2 Bft) W-NW 286 2 min 0,000 mm 2,1 UV-I 547 W/m 3,8 C 7,3 C 16,1 km/h (3 Bft) 97,56 %
28.03.2019 10:44 9,7 C 7,8 C 19,4 C 66 % 1032,3 hPa 0,0 l/m 6,4 km/h (2 Bft) SW 232 2 min 0,000 mm 2,3 UV-I 503 W/m 3,7 C 9,7 C 11,3 km/h (2 Bft) 96,00 %
28.03.2019 10:46 9,8 C 7,8 C 19,4 C 67 % 1032,3 hPa 0,0 l/m 8,8 km/h (2 Bft) W-SW 242 2 min 0,000 mm 2,0 UV-I 459 W/m 4,0 C 8,1 C 16,1 km/h (3 Bft) 94,74 %
28.03.2019 10:48 10,0 C 7,8 C 21,1 C 68 % 1032,3 hPa 0,0 l/m 6,0 km/h (2 Bft) W-SW 241 2 min 0,000 mm 2,3 UV-I 503 W/m 4,4 C 10,0 C 12,9 km/h (3 Bft) 96,00 %
28.03.2019 10:50 10,2 C 7,8 C 23,3 C 66 % 1032,3 hPa 0,0 l/m 11,3 km/h (2 Bft) S-SW 194 2 min 0,000 mm 2,6 UV-I 648 W/m 4,1 C 7,1 C 14,5 km/h (3 Bft) 98,00 %
28.03.2019 10:52 10,3 C 7,8 C 25,6 C 65 % 1032,4 hPa 0,0 l/m 7,5 km/h (2 Bft) S-SW 211 2 min 0,000 mm 2,9 UV-I 680 W/m 4,0 C 9,5 C 14,5 km/h (3 Bft) 95,74 %
28.03.2019 10:54 10,4 C 7,8 C 25,0 C 65 % 1032,4 hPa 0,0 l/m 9,5 km/h (2 Bft) W 267 2 min 0,000 mm 2,5 UV-I 883 W/m 4,1 C 8,3 C 16,1 km/h (3 Bft) 100,00 %
28.03.2019 10:56 10,4 C 7,8 C 23,3 C 63 % 1032,4 hPa 0,0 l/m 6,9 km/h (2 Bft) W-SW 238 2 min 0,000 mm 2,3 UV-I 542 W/m 3,7 C 10,0 C 11,3 km/h (2 Bft) 98,11 %
28.03.2019 10:58 10,2 C 7,8 C 22,2 C 64 % 1032,4 hPa 0,0 l/m 8,6 km/h (2 Bft) W 281 2 min 0,000 mm 2,2 UV-I 571 W/m 3,7 C 8,7 C 14,5 km/h (3 Bft) 100,00 %
28.03.2019 11:00 10,2 C 7,8 C 21,1 C 65 % 1032,3 hPa 0,0 l/m 9,8 km/h (2 Bft) S-SW 200 2 min 0,280 mm 2,4 UV-I 589 W/m 3,9 C 7,9 C 12,9 km/h (3 Bft) 100,00 %
28.03.2019 11:02 10,3 C 7,8 C 20,6 C 64 % 1032,4 hPa 0,0 l/m 8,4 km/h (2 Bft) SW 226 2 min 0,000 mm 2,2 UV-I 559 W/m 3,8 C 8,9 C 16,1 km/h (3 Bft) 100,00 %
28.03.2019 11:04 10,3 C 7,8 C 21,1 C 63 % 1032,3 hPa 0,0 l/m 6,9 km/h (2 Bft) SW 227 2 min 0,000 mm 2,2 UV-I 564 W/m 3,6 C 9,9 C 12,9 km/h (3 Bft) 98,00 %
28.03.2019 11:06 10,3 C 7,8 C 20,0 C 63 % 1032,4 hPa 0,0 l/m 10,6 km/h (2 Bft) W-SW 258 2 min 0,000 mm 2,2 UV-I 586 W/m 3,6 C 7,6 C 16,1 km/h (3 Bft) 100,00 %
28.03.2019 11:08 10,2 C 7,8 C 19,4 C 61 % 1032,4 hPa 0,0 l/m 6,6 km/h (2 Bft) W-SW 252 2 min 0,000 mm 2,0 UV-I 503 W/m 3,0 C 10,1 C 14,5 km/h (3 Bft) 97,92 %
28.03.2019 11:10 10,1 C 7,8 C 18,9 C 62 % 1032,3 hPa 0,0 l/m 4,2 km/h (1 Bft) W-NW 299 2 min 0,000 mm 2,0 UV-I 479 W/m 3,2 C 10,1 C 6,4 km/h (2 Bft) 100,00 %
28.03.2019 11:12 10,2 C 7,8 C 18,9 C 64 % 1032,4 hPa 0,0 l/m 5,6 km/h (1 Bft) S-SW 211 2 min 0,000 mm 2,0 UV-I 475 W/m 3,7 C 10,2 C 12,9 km/h (3 Bft) 100,00 %
28.03.2019 11:14 10,4 C 7,8 C 18,3 C 63 % 1032,4 hPa 0,0 l/m 10,3 km/h (2 Bft) W-SW 249 2 min 0,000 mm 1,9 UV-I 476 W/m 3,7 C 7,9 C 14,5 km/h (3 Bft) 100,00 %
28.03.2019 11:16 10,4 C 7,8 C 18,3 C 62 % 1032,4 hPa 0,0 l/m 11,0 km/h (2 Bft) S-SW 207 2 min 0,000 mm 1,9 UV-I 460 W/m 3,4 C 7,5 C 14,5 km/h (3 Bft) 100,00 %
28.03.2019 11:18 10,4 C 7,8 C 17,8 C 61 % 1032,3 hPa 0,0 l/m 8,0 km/h (2 Bft) W-SW 252 2 min 0,000 mm 1,9 UV-I 458 W/m 3,2 C 9,3 C 12,9 km/h (3 Bft) 100,00 %
28.03.2019 11:20 10,3 C 7,8 C 18,3 C 61 % 1032,3 hPa 0,0 l/m 5,8 km/h (2 Bft) SW 219 2 min 0,000 mm 1,9 UV-I 442 W/m 3,1 C 10,3 C 8,0 km/h (2 Bft) 100,00 %
28.03.2019 11:22 10,3 C 7,8 C 18,9 C 60 % 1032,3 hPa 0,0 l/m 2,3 km/h (1 Bft) W-SW 257 2 min 0,000 mm 1,9 UV-I 438 W/m 2,9 C 10,3 C 4,8 km/h (1 Bft) 100,00 %
28.03.2019 11:24 10,3 C 7,8 C 18,9 C 62 % 1032,3 hPa 0,0 l/m 5,2 km/h (1 Bft) N-NW 327 2 min 0,000 mm 2,0 UV-I 445 W/m 3,3 C 10,3 C 8,0 km/h (2 Bft) 100,00 %
28.03.2019 11:26 10,4 C 7,8 C 18,9 C 64 % 1032,3 hPa 0,0 l/m 3,7 km/h (1 Bft) W-NW 300 2 min 0,000 mm 2,0 UV-I 448 W/m 3,9 C 10,4 C 6,4 km/h (2 Bft) 98,00 %
28.03.2019 11:28 10,4 C 7,8 C 18,3 C 64 % 1032,3 hPa 0,0 l/m 5,9 km/h (2 Bft) W 272 2 min 0,000 mm 2,0 UV-I 448 W/m 3,9 C 10,4 C 11,3 km/h (2 Bft) 97,37 %
28.03.2019 11:30 10,5 C 7,8 C 18,3 C 62 % 1032,3 hPa 0,0 l/m 6,9 km/h (2 Bft) W 259 2 min 0,000 mm 2,1 UV-I 471 W/m 3,5 C 10,2 C 12,9 km/h (3 Bft) 98,00 %
28.03.2019 11:32 10,6 C 7,8 C 18,3 C 62 % 1032,3 hPa 0,0 l/m 5,9 km/h (2 Bft) W 265 2 min 0,000 mm 2,1 UV-I 461 W/m 3,6 C 10,6 C 12,9 km/h (3 Bft) 96,00 %
28.03.2019 11:34 10,4 C 7,8 C 18,9 C 61 % 1032,4 hPa 0,0 l/m 4,5 km/h (1 Bft) W 273 2 min 0,000 mm 2,1 UV-I 511 W/m 3,2 C 10,4 C 6,4 km/h (2 Bft) 100,00 %
28.03.2019 11:36 10,4 C 7,8 C 18,9 C 62 % 1032,3 hPa 0,0 l/m 4,9 km/h (1 Bft) W-NW 302 2 min 0,000 mm 2,2 UV-I 483 W/m 3,4 C 10,4 C 8,0 km/h (2 Bft) 96,43 %
28.03.2019 11:38 10,6 C 7,8 C 18,9 C 62 % 1032,3 hPa 0,0 l/m 5,2 km/h (1 Bft) N-NW 348 2 min 0,000 mm 2,2 UV-I 490 W/m 3,6 C 10,6 C 11,3 km/h (2 Bft) 97,37 %
28.03.2019 11:40 10,6 C 7,8 C 18,9 C 61 % 1032,3 hPa 0,0 l/m 6,2 km/h (2 Bft) N-NW 340 2 min 0,000 mm 2,2 UV-I 501 W/m 3,4 C 10,6 C 9,7 km/h (2 Bft) 98,00 %
28.03.2019 11:42 10,6 C 7,8 C 19,4 C 61 % 1032,3 hPa 0,0 l/m 5,6 km/h (1 Bft) N 355 2 min 0,000 mm 2,2 UV-I 520 W/m 3,4 C 10,6 C 9,7 km/h (2 Bft) 97,44 %
28.03.2019 11:44 10,6 C 7,8 C 20,0 C 61 % 1032,3 hPa 0,0 l/m 3,2 km/h (1 Bft) N 360 2 min 0,000 mm 2,2 UV-I 548 W/m 3,4 C 10,6 C 6,4 km/h (2 Bft) 98,00 %
28.03.2019 11:46 10,6 C 7,8 C 20,6 C 60 % 1032,3 hPa 0,0 l/m 2,0 km/h (1 Bft) N 355 2 min 0,000 mm 2,2 UV-I 515 W/m 3,2 C 10,6 C 3,2 km/h (1 Bft) 95,74 %
28.03.2019 11:48 10,6 C 7,8 C 20,6 C 59 % 1032,2 hPa 0,0 l/m 5,3 km/h (1 Bft) W 271 2 min 0,000 mm 2,2 UV-I 542 W/m 2,9 C 10,6 C 11,3 km/h (2 Bft) 94,00 %
28.03.2019 11:50 10,6 C 7,8 C 20,0 C 60 % 1032,2 hPa 0,0 l/m 5,2 km/h (1 Bft) S-SW 206 2 min 0,000 mm 2,3 UV-I 588 W/m 3,2 C 10,6 C 8,0 km/h (2 Bft) 100,00 %
28.03.2019 11:52 10,8 C 7,8 C 20,6 C 62 % 1032,3 hPa 0,0 l/m 6,3 km/h (2 Bft) W-SW 245 2 min 0,000 mm 2,1 UV-I 518 W/m 3,8 C 10,8 C 11,3 km/h (2 Bft) 97,87 %
28.03.2019 11:54 10,8 C 7,8 C 20,0 C 60 % 1032,2 hPa 0,0 l/m 7,9 km/h (2 Bft) SW 226 2 min 0,000 mm 2,0 UV-I 457 W/m 3,4 C 9,8 C 12,9 km/h (3 Bft) 100,00 %
28.03.2019 11:56 10,8 C 7,8 C 20,0 C 61 % 1032,2 hPa 0,0 l/m 4,7 km/h (1 Bft) SW 219 2 min 0,000 mm 2,0 UV-I 442 W/m 3,6 C 10,8 C 8,0 km/h (2 Bft) 98,11 %
28.03.2019 11:58 10,9 C 7,8 C 20,0 C 63 % 1032,2 hPa 0,0 l/m 4,1 km/h (1 Bft) W-NW 288 2 min 0,000 mm 2,1 UV-I 455 W/m 4,1 C 10,9 C 9,7 km/h (2 Bft) 98,00 %
28.03.2019 12:00 10,9 C 7,8 C 20,0 C 59 % 1032,1 hPa 0,0 l/m 4,3 km/h (1 Bft) SO 141 2 min 0,254 mm 2,5 UV-I 494 W/m 3,2 C 10,9 C 9,7 km/h (2 Bft) 100,00 %
28.03.2019 12:02 10,9 C 7,8 C 21,7 C 60 % 1032,1 hPa 0,0 l/m 2,1 km/h (1 Bft) S-SW 202 2 min 0,000 mm 2,5 UV-I 580 W/m 3,4 C 10,9 C 3,2 km/h (1 Bft) 100,00 %
28.03.2019 12:04 11,1 C 7,8 C 21,7 C 61 % 1032,1 hPa 0,0 l/m 5,0 km/h (1 Bft) N-NW 346 2 min 0,000 mm 2,4 UV-I 562 W/m 3,9 C 11,1 C 9,7 km/h (2 Bft) 97,56 %
28.03.2019 12:06 11,2 C 7,8 C 20,6 C 61 % 1032,2 hPa 0,0 l/m 8,1 km/h (2 Bft) W-NW 298 2 min 0,000 mm 2,0 UV-I 447 W/m 4,0 C 10,0 C 14,5 km/h (3 Bft) 100,00 %
28.03.2019 12:08 11,3 C 7,8 C 19,4 C 61 % 1032,2 hPa 0,0 l/m 6,3 km/h (2 Bft) W-SW 243 2 min 0,000 mm 2,0 UV-I 440 W/m 4,1 C 11,3 C 8,0 km/h (2 Bft) 100,00 %
28.03.2019 12:10 11,3 C 7,8 C 19,4 C 61 % 1032,2 hPa 0,0 l/m 7,4 km/h (2 Bft) N-NW 327 2 min 0,000 mm 2,0 UV-I 425 W/m 4,1 C 10,6 C 11,3 km/h (2 Bft) 97,87 %
28.03.2019 12:12 11,1 C 7,8 C 18,3 C 60 % 1032,2 hPa 0,0 l/m 4,9 km/h (1 Bft) N-NW 347 2 min 0,000 mm 2,0 UV-I 429 W/m 3,6 C 11,1 C 8,0 km/h (2 Bft) 98,00 %
28.03.2019 12:14 11,0 C 7,8 C 18,3 C 60 % 1032,2 hPa 0,0 l/m 5,5 km/h (1 Bft) N-NW 347 2 min 0,000 mm 2,0 UV-I 433 W/m 3,5 C 11,0 C 9,7 km/h (2 Bft) 97,62 %
28.03.2019 12:16 11,0 C 7,8 C 18,3 C 61 % 1032,2 hPa 0,0 l/m 5,5 km/h (1 Bft) N 11 2 min 0,000 mm 2,1 UV-I 462 W/m 3,8 C 11,0 C 8,0 km/h (2 Bft) 95,45 %
28.03.2019 12:18 10,9 C 7,8 C 17,8 C 62 % 1032,1 hPa 0,0 l/m 4,7 km/h (1 Bft) N-NW 342 2 min 0,000 mm 1,9 UV-I 410 W/m 3,9 C 10,9 C 11,3 km/h (2 Bft) 96,55 %
28.03.2019 12:20 10,9 C 7,8 C 18,9 C 59 % 1032,1 hPa 0,0 l/m 1,5 km/h (1 Bft) N-NW 342 2 min 0,000 mm 2,0 UV-I 411 W/m 3,2 C 10,9 C 4,8 km/h (1 Bft) 97,62 %
28.03.2019 12:22 11,0 C 7,8 C 18,9 C 60 % 1032,2 hPa 0,0 l/m 5,7 km/h (1 Bft) W-SW 240 0 min 0,000 mm 1,9 UV-I 385 W/m 3,5 C 11,0 C 11,3 km/h (2 Bft) 97,87 %
28.03.2019 12:24 10,9 C 7,8 C 17,8 C 58 % 1032,1 hPa 0,0 l/m 7,1 km/h (2 Bft) SW 226 2 min 0,000 mm 2,0 UV-I 397 W/m 3,0 C 10,4 C 9,7 km/h (2 Bft) 97,14 %
28.03.2019 12:26 10,9 C 7,8 C 18,9 C 58 % 1032,1 hPa 0,0 l/m 5,4 km/h (1 Bft) N-NW 335 2 min 0,000 mm 2,3 UV-I 495 W/m 3,0 C 10,9 C 8,0 km/h (2 Bft) 94,12 %
28.03.2019 12:29 11,2 C 7,8 C 20,0 C 59 % 1032,0 hPa 0,0 l/m 3,7 km/h (1 Bft) N 355 3 min 0,000 mm 2,3 UV-I 547 W/m 3,5 C 11,2 C 8,0 km/h (2 Bft) 95,31 %
28.03.2019 12:30 11,2 C 7,8 C 20,0 C 59 % 1032,0 hPa 0,0 l/m 1,9 km/h (1 Bft) NW 319 1 min 0,000 mm 2,2 UV-I 486 W/m 3,5 C 11,2 C 4,8 km/h (1 Bft) 91,67 %
28.03.2019 12:32 11,3 C 7,8 C 20,6 C 59 % 1032,0 hPa 0,0 l/m 3,9 km/h (1 Bft) W-NW 291 2 min 0,000 mm 2,3 UV-I 516 W/m 3,6 C 11,3 C 6,4 km/h (2 Bft) 95,45 %
28.03.2019 12:34 11,4 C 7,8 C 21,1 C 58 % 1032,0 hPa 0,0 l/m 5,4 km/h (1 Bft) W 275 2 min 0,000 mm 2,2 UV-I 521 W/m 3,4 C 11,4 C 12,9 km/h (3 Bft) 98,00 %
28.03.2019 12:36 11,5 C 7,8 C 21,1 C 57 % 1032,0 hPa 0,0 l/m 11,7 km/h (2 Bft) W 269 2 min 0,000 mm 2,4 UV-I 540 W/m 3,3 C 8,4 C 16,1 km/h (3 Bft) 97,56 %
28.03.2019 12:38 11,3 C 7,8 C 20,6 C 56 % 1032,0 hPa 0,0 l/m 7,8 km/h (2 Bft) W 261 2 min 0,000 mm 2,3 UV-I 541 W/m 2,8 C 10,3 C 12,9 km/h (3 Bft) 100,00 %
28.03.2019 12:40 11,3 C 7,8 C 20,6 C 57 % 1031,9 hPa 0,0 l/m 5,0 km/h (1 Bft) SW 217 2 min 0,000 mm 2,1 UV-I 458 W/m 3,1 C 11,3 C 6,4 km/h (2 Bft) 100,00 %
28.03.2019 12:42 11,3 C 7,8 C 20,6 C 57 % 1031,8 hPa 0,0 l/m 3,9 km/h (1 Bft) SW 225 2 min 0,000 mm 2,0 UV-I 413 W/m 3,1 C 11,3 C 8,0 km/h (2 Bft) 100,00 %
28.03.2019 12:44 11,3 C 7,8 C 20,6 C 58 % 1031,8 hPa 0,0 l/m 4,5 km/h (1 Bft) SW 234 2 min 0,000 mm 2,2 UV-I 436 W/m 3,3 C 11,3 C 11,3 km/h (2 Bft) 100,00 %
28.03.2019 12:46 11,4 C 7,8 C 20,0 C 55 % 1031,8 hPa 0,0 l/m 10,2 km/h (2 Bft) W-NW 298 2 min 0,000 mm 2,1 UV-I 447 W/m 2,7 C 9,0 C 17,7 km/h (3 Bft) 100,00 %
28.03.2019 12:48 11,6 C 7,8 C 21,7 C 53 % 1031,8 hPa 0,0 l/m 6,9 km/h (2 Bft) N 9 2 min 0,000 mm 2,4 UV-I 448 W/m 2,4 C 11,3 C 11,3 km/h (2 Bft) 98,21 %
28.03.2019 12:50 11,7 C 7,8 C 21,1 C 55 % 1031,8 hPa 0,0 l/m 5,6 km/h (1 Bft) SW 221 2 min 0,000 mm 2,1 UV-I 472 W/m 3,0 C 11,7 C 11,3 km/h (2 Bft) 95,74 %
28.03.2019 12:52 11,8 C 7,8 C 20,6 C 54 % 1031,8 hPa 0,0 l/m 7,8 km/h (2 Bft) S-SW 211 2 min 0,000 mm 2,3 UV-I 529 W/m 2,8 C 10,9 C 12,9 km/h (3 Bft) 100,00 %
28.03.2019 12:54 11,7 C 7,8 C 20,6 C 53 % 1031,8 hPa 0,0 l/m 4,4 km/h (1 Bft) W-SW 250 2 min 0,000 mm 2,2 UV-I 537 W/m 2,4 C 11,7 C 8,0 km/h (2 Bft) 96,23 %
28.03.2019 12:56 11,7 C 7,8 C 20,6 C 56 % 1031,8 hPa 0,0 l/m 3,5 km/h (1 Bft) NW 315 2 min 0,000 mm 2,0 UV-I 469 W/m 3,2 C 11,7 C 8,0 km/h (2 Bft) 97,87 %
28.03.2019 12:58 11,7 C 7,8 C 21,1 C 58 % 1031,8 hPa 0,0 l/m 3,8 km/h (1 Bft) NW 323 2 min 0,000 mm 2,3 UV-I 489 W/m 3,7 C 11,7 C 6,4 km/h (2 Bft) 95,74 %
28.03.2019 13:00 11,7 C 7,8 C 21,1 C 58 % 1031,8 hPa 0,0 l/m 6,8 km/h (2 Bft) N-NW 333 2 min 0,000 mm 1,9 UV-I 473 W/m 3,7 C 11,4 C 14,5 km/h (3 Bft) 97,44 %
28.03.2019 13:02 11,8 C 7,8 C 20,0 C 61 % 1031,8 hPa 0,0 l/m 6,1 km/h (2 Bft) NW 313 2 min 0,254 mm 1,8 UV-I 436 W/m 4,5 C 11,8 C 9,7 km/h (2 Bft) 97,73 %
28.03.2019 13:04 11,8 C 7,8 C 19,4 C 60 % 1031,8 hPa 0,0 l/m 4,1 km/h (1 Bft) W-NW 292 2 min 0,000 mm 1,6 UV-I 391 W/m 4,3 C 11,8 C 6,4 km/h (2 Bft) 98,00 %
28.03.2019 13:06 11,8 C 7,8 C 18,9 C 59 % 1031,8 hPa 0,0 l/m 3,6 km/h (1 Bft) W 268 0 min 0,000 mm 1,5 UV-I 349 W/m 4,1 C 11,8 C 6,4 km/h (2 Bft) 98,00 %
28.03.2019 13:08 11,8 C 7,8 C 18,3 C 60 % 1031,8 hPa 0,0 l/m 5,4 km/h (1 Bft) W-SW 244 0 min 0,000 mm 1,6 UV-I 352 W/m 4,3 C 11,8 C 11,3 km/h (2 Bft) 98,00 %
28.03.2019 13:10 11,7 C 7,8 C 17,8 C 61 % 1031,7 hPa 0,0 l/m 6,4 km/h (2 Bft) N 355 2 min 0,000 mm 1,6 UV-I 378 W/m 4,4 C 11,7 C 14,5 km/h (3 Bft) 97,87 %
28.03.2019 13:12 11,7 C 7,8 C 17,8 C 63 % 1031,7 hPa 0,0 l/m 5,1 km/h (1 Bft) NW 307 2 min 0,000 mm 1,7 UV-I 404 W/m 4,9 C 11,7 C 8,0 km/h (2 Bft) 97,37 %
28.03.2019 13:14 11,7 C 7,8 C 18,3 C 62 % 1031,7 hPa 0,0 l/m 7,3 km/h (2 Bft) N-NW 346 2 min 0,000 mm 1,8 UV-I 423 W/m 4,7 C 11,1 C 12,9 km/h (3 Bft) 100,00 %
28.03.2019 13:16 11,6 C 7,8 C 18,3 C 63 % 1031,7 hPa 0,0 l/m 6,8 km/h (2 Bft) N-NW 336 2 min 0,000 mm 1,8 UV-I 438 W/m 4,8 C 11,3 C 11,3 km/h (2 Bft) 100,00 %
28.03.2019 13:18 11,6 C 7,8 C 18,9 C 62 % 1031,7 hPa 0,0 l/m 5,9 km/h (2 Bft) N-NW 338 2 min 0,000 mm 1,9 UV-I 454 W/m 4,6 C 11,6 C 9,7 km/h (2 Bft) 95,74 %
28.03.2019 13:20 11,7 C 7,8 C 18,9 C 62 % 1031,6 hPa 0,0 l/m 9,3 km/h (2 Bft) N-NO 17 2 min 0,000 mm 1,9 UV-I 465 W/m 4,7 C 9,9 C 14,5 km/h (3 Bft) 100,00 %
28.03.2019 13:22 11,7 C 7,8 C 18,9 C 62 % 1031,6 hPa 0,0 l/m 6,1 km/h (2 Bft) N-NO 20 2 min 0,000 mm 1,8 UV-I 436 W/m 4,7 C 11,7 C 11,3 km/h (2 Bft) 98,00 %
28.03.2019 13:24 11,7 C 7,8 C 18,9 C 60 % 1031,6 hPa 0,0 l/m 6,4 km/h (2 Bft) NW 304 2 min 0,000 mm 1,7 UV-I 391 W/m 4,2 C 11,7 C 9,7 km/h (2 Bft) 97,14 %
28.03.2019 13:26 11,7 C 7,8 C 18,9 C 60 % 1031,6 hPa 0,0 l/m 5,1 km/h (1 Bft) W-NW 288 0 min 0,000 mm 1,6 UV-I 367 W/m 4,2 C 11,7 C 11,3 km/h (2 Bft) 100,00 %
28.03.2019 13:28 11,7 C 7,8 C 18,9 C 61 % 1031,5 hPa 0,0 l/m 4,7 km/h (1 Bft) S-SW 211 2 min 0,000 mm 1,7 UV-I 381 W/m 4,4 C 11,7 C 14,5 km/h (3 Bft) 100,00 %
28.03.2019 13:30 11,8 C 7,8 C 19,4 C 60 % 1031,5 hPa 0,0 l/m 5,7 km/h (1 Bft) W-NW 300 2 min 0,000 mm 1,8 UV-I 429 W/m 4,3 C 11,8 C 11,3 km/h (2 Bft) 100,00 %
28.03.2019 13:32 11,8 C 7,8 C 18,9 C 56 % 1031,5 hPa 0,0 l/m 9,7 km/h (2 Bft) W 263 2 min 0,000 mm 1,8 UV-I 450 W/m 3,3 C 9,7 C 16,1 km/h (3 Bft) 100,00 %
28.03.2019 13:34 11,8 C 7,8 C 18,9 C 55 % 1031,5 hPa 0,0 l/m 8,3 km/h (2 Bft) W-SW 254 2 min 0,000 mm 1,7 UV-I 436 W/m 3,1 C 10,6 C 12,9 km/h (3 Bft) 100,00 %
28.03.2019 13:36 11,8 C 7,8 C 18,3 C 57 % 1031,5 hPa 0,0 l/m 7,9 km/h (2 Bft) W-SW 246 2 min 0,000 mm 1,7 UV-I 416 W/m 3,6 C 10,8 C 14,5 km/h (3 Bft) 100,00 %
28.03.2019 13:38 11,8 C 7,8 C 18,3 C 58 % 1031,5 hPa 0,0 l/m 7,5 km/h (2 Bft) SW 235 2 min 0,000 mm 1,6 UV-I 401 W/m 3,8 C 11,1 C 14,5 km/h (3 Bft) 100,00 %
28.03.2019 13:40 11,9 C 7,8 C 18,3 C 57 % 1031,5 hPa 0,0 l/m 8,4 km/h (2 Bft) W-SW 257 2 min 0,000 mm 0,7 UV-I 389 W/m 3,7 C 10,6 C 12,9 km/h (3 Bft) 100,00 %
28.03.2019 13:42 11,9 C 7,8 C 18,3 C 57 % 1031,5 hPa 0,0 l/m 5,5 km/h (1 Bft) SW 222 2 min 0,000 mm 0,9 UV-I 400 W/m 3,7 C 11,9 C 11,3 km/h (2 Bft) 100,00 %
28.03.2019 13:44 11,8 C 7,8 C 18,3 C 55 % 1031,5 hPa 0,0 l/m 4,9 km/h (1 Bft) W 275 2 min 0,000 mm 1,6 UV-I 404 W/m 3,1 C 11,8 C 8,0 km/h (2 Bft) 100,00 %
28.03.2019 13:46 11,8 C 7,8 C 18,3 C 56 % 1031,4 hPa 0,0 l/m 3,7 km/h (1 Bft) W 272 2 min 0,000 mm 1,5 UV-I 395 W/m 3,3 C 11,8 C 8,0 km/h (2 Bft) 97,56 %
28.03.2019 13:48 11,8 C 7,8 C 18,3 C 58 % 1031,4 hPa 0,0 l/m 3,7 km/h (1 Bft) N 5 2 min 0,000 mm 1,4 UV-I 367 W/m 3,8 C 11,8 C 6,4 km/h (2 Bft) 100,00 %
28.03.2019 13:50 12,0 C 7,8 C 17,8 C 57 % 1031,4 hPa 0,0 l/m 4,1 km/h (1 Bft) W 269 0 min 0,000 mm 1,4 UV-I 353 W/m 3,8 C 12,0 C 6,4 km/h (2 Bft) 100,00 %
28.03.2019 13:52 12,0 C 7,8 C 17,8 C 55 % 1031,4 hPa 0,0 l/m 2,0 km/h (1 Bft) W 269 0 min 0,000 mm 1,4 UV-I 352 W/m 3,2 C 12,0 C 3,2 km/h (1 Bft) 100,00 %
28.03.2019 13:54 11,9 C 7,8 C 17,8 C 55 % 1031,4 hPa 0,0 l/m 2,7 km/h (1 Bft) N-NW 336 0 min 0,000 mm 1,3 UV-I 335 W/m 3,2 C 11,9 C 6,4 km/h (2 Bft) 100,00 %
28.03.2019 13:56 11,8 C 7,8 C 17,8 C 56 % 1031,4 hPa 0,0 l/m 4,1 km/h (1 Bft) N-NW 333 0 min 0,000 mm 1,2 UV-I 306 W/m 3,3 C 11,8 C 8,0 km/h (2 Bft) 100,00 %
28.03.2019 13:58 11,9 C 7,8 C 17,2 C 57 % 1031,4 hPa 0,0 l/m 3,3 km/h (1 Bft) W 273 0 min 0,000 mm 1,1 UV-I 288 W/m 3,7 C 11,9 C 4,8 km/h (1 Bft) 96,00 %
28.03.2019 14:00 11,9 C 7,8 C 17,2 C 57 % 1031,3 hPa 0,0 l/m 4,2 km/h (1 Bft) N-NW 336 0 min 0,203 mm 1,1 UV-I 282 W/m 3,7 C 11,9 C 8,0 km/h (2 Bft) 97,73 %
28.03.2019 14:02 11,8 C 7,8 C 16,7 C 57 % 1031,3 hPa 0,0 l/m 3,7 km/h (1 Bft) N-NW 336 0 min 0,000 mm 1,1 UV-I 284 W/m 3,6 C 11,8 C 6,4 km/h (2 Bft) 98,00 %
28.03.2019 14:04 11,8 C 7,8 C 16,7 C 59 % 1031,3 hPa 0,0 l/m 2,3 km/h (1 Bft) N-NW 343 0 min 0,000 mm 1,1 UV-I 283 W/m 4,1 C 11,8 C 4,8 km/h (1 Bft) 93,62 %
28.03.2019 14:06 11,9 C 7,8 C 17,2 C 60 % 1031,3 hPa 0,0 l/m 3,4 km/h (1 Bft) W-NW 303 0 min 0,000 mm 1,2 UV-I 295 W/m 4,4 C 11,9 C 6,4 km/h (2 Bft) 97,73 %
28.03.2019 14:08 12,0 C 7,8 C 17,2 C 58 % 1031,3 hPa 0,0 l/m 4,1 km/h (1 Bft) W 277 0 min 0,000 mm 1,2 UV-I 296 W/m 4,0 C 12,0 C 9,7 km/h (2 Bft) 98,00 %
28.03.2019 14:10 11,9 C 7,8 C 17,2 C 56 % 1031,2 hPa 0,0 l/m 3,0 km/h (1 Bft) W-NW 303 0 min 0,000 mm 1,2 UV-I 304 W/m 3,4 C 11,9 C 6,4 km/h (2 Bft) 98,00 %
28.03.2019 14:12 11,9 C 7,8 C 17,2 C 56 % 1031,2 hPa 0,0 l/m 3,5 km/h (1 Bft) N-NW 340 0 min 0,000 mm 1,2 UV-I 313 W/m 3,4 C 11,9 C 6,4 km/h (2 Bft) 92,59 %
28.03.2019 14:14 11,9 C 7,8 C 17,8 C 59 % 1031,2 hPa 0,0 l/m 3,7 km/h (1 Bft) N-NW 344 0 min 0,000 mm 1,3 UV-I 328 W/m 4,1 C 11,9 C 6,4 km/h (2 Bft) 96,43 %
28.03.2019 14:16 12,1 C 7,8 C 17,8 C 58 % 1031,2 hPa 0,0 l/m 2,9 km/h (1 Bft) N-NW 343 2 min 0,000 mm 1,3 UV-I 350 W/m 4,1 C 12,1 C 4,8 km/h (1 Bft) 94,00 %
28.03.2019 14:18 12,1 C 7,8 C 18,3 C 57 % 1031,2 hPa 0,0 l/m 3,3 km/h (1 Bft) W 280 2 min 0,000 mm 1,4 UV-I 377 W/m 3,8 C 12,1 C 4,8 km/h (1 Bft) 91,49 %
28.03.2019 14:20 12,2 C 7,8 C 18,3 C 58 % 1031,2 hPa 0,0 l/m 7,3 km/h (2 Bft) NW 306 2 min 0,000 mm 1,4 UV-I 387 W/m 4,2 C 11,6 C 11,3 km/h (2 Bft) 96,00 %
28.03.2019 14:22 12,1 C 7,8 C 18,3 C 58 % 1031,2 hPa 0,0 l/m 4,8 km/h (1 Bft) W 271 2 min 0,000 mm 1,3 UV-I 380 W/m 4,1 C 12,1 C 6,4 km/h (2 Bft) 93,62 %
28.03.2019 14:24 11,9 C 7,8 C 18,3 C 57 % 1031,2 hPa 0,0 l/m 7,0 km/h (2 Bft) NW 306 2 min 0,000 mm 1,3 UV-I 343 W/m 3,7 C 11,5 C 12,9 km/h (3 Bft) 96,00 %
28.03.2019 14:26 11,9 C 7,8 C 17,8 C 57 % 1031,2 hPa 0,0 l/m 5,7 km/h (1 Bft) NW 307 0 min 0,000 mm 1,1 UV-I 314 W/m 3,7 C 11,9 C 9,7 km/h (2 Bft) 94,74 %
28.03.2019 14:28 11,9 C 7,8 C 16,7 C 57 % 1031,2 hPa 0,0 l/m 5,6 km/h (1 Bft) NW 311 0 min 0,000 mm 1,1 UV-I 301 W/m 3,7 C 11,9 C 11,3 km/h (2 Bft) 96,00 %
28.03.2019 14:30 11,9 C 7,8 C 16,7 C 57 % 1031,2 hPa 0,0 l/m 6,1 km/h (2 Bft) NW 321 0 min 0,000 mm 1,1 UV-I 284 W/m 3,7 C 11,9 C 9,7 km/h (2 Bft) 96,00 %
28.03.2019 14:32 11,8 C 7,8 C 16,7 C 58 % 1031,2 hPa 0,0 l/m 4,9 km/h (1 Bft) NW 307 0 min 0,000 mm 1,0 UV-I 271 W/m 3,8 C 11,8 C 8,0 km/h (2 Bft) 98,00 %
28.03.2019 14:34 11,8 C 7,8 C 16,1 C 59 % 1031,2 hPa 0,0 l/m 8,7 km/h (2 Bft) N-NW 344 0 min 0,000 mm 1,0 UV-I 272 W/m 4,1 C 10,3 C 12,9 km/h (3 Bft) 100,00 %
28.03.2019 14:36 11,7 C 7,8 C 16,1 C 57 % 1031,2 hPa 0,0 l/m 5,3 km/h (1 Bft) W-NW 296 0 min 0,000 mm 1,0 UV-I 279 W/m 3,5 C 11,7 C 11,3 km/h (2 Bft) 100,00 %
28.03.2019 14:38 11,7 C 7,8 C 16,1 C 59 % 1031,2 hPa 0,0 l/m 3,4 km/h (1 Bft) NW 315 0 min 0,000 mm 1,0 UV-I 281 W/m 4,0 C 11,7 C 8,0 km/h (2 Bft) 100,00 %
28.03.2019 14:40 11,7 C 7,8 C 16,1 C 56 % 1031,1 hPa 0,0 l/m 4,2 km/h (1 Bft) NW 313 0 min 0,000 mm 1,0 UV-I 285 W/m 3,2 C 11,7 C 6,4 km/h (2 Bft) 100,00 %
28.03.2019 14:42 11,6 C 7,8 C 16,1 C 56 % 1031,1 hPa 0,0 l/m 2,5 km/h (1 Bft) SW 222 0 min 0,000 mm 1,0 UV-I 285 W/m 3,1 C 11,6 C 3,2 km/h (1 Bft) 98,00 %
28.03.2019 14:44 11,6 C 7,8 C 16,7 C 57 % 1031,2 hPa 0,0 l/m 4,0 km/h (1 Bft) NW 319 0 min 0,000 mm 0,9 UV-I 272 W/m 3,4 C 11,6 C 9,7 km/h (2 Bft) 97,87 %
28.03.2019 14:46 11,8 C 7,8 C 16,7 C 59 % 1031,1 hPa 0,0 l/m 2,5 km/h (1 Bft) N-NO 15 0 min 0,000 mm 0,9 UV-I 257 W/m 4,1 C 11,8 C 4,8 km/h (1 Bft) 100,00 %
28.03.2019 14:48 11,8 C 7,8 C 16,7 C 57 % 1031,0 hPa 0,0 l/m 2,6 km/h (1 Bft) NW 324 0 min 0,000 mm 0,9 UV-I 253 W/m 3,6 C 11,8 C 6,4 km/h (2 Bft) 100,00 %
28.03.2019 14:50 11,9 C 7,8 C 16,7 C 57 % 1031,1 hPa 0,0 l/m 2,8 km/h (1 Bft) W 277 0 min 0,000 mm 0,9 UV-I 253 W/m 3,7 C 11,9 C 6,4 km/h (2 Bft) 100,00 %
28.03.2019 14:52 11,9 C 7,8 C 16,7 C 58 % 1031,0 hPa 0,0 l/m 5,4 km/h (1 Bft) NW 322 0 min 0,000 mm 0,9 UV-I 251 W/m 3,9 C 11,9 C 9,7 km/h (2 Bft) 95,74 %
28.03.2019 14:54 11,8 C 7,8 C 16,1 C 57 % 1031,0 hPa 0,0 l/m 6,8 km/h (2 Bft) W 273 0 min 0,000 mm 0,9 UV-I 252 W/m 3,6 C 11,5 C 11,3 km/h (2 Bft) 97,87 %
28.03.2019 14:56 11,8 C 7,8 C 15,6 C 57 % 1031,0 hPa 0,0 l/m 7,0 km/h (2 Bft) W 263 0 min 0,000 mm 0,9 UV-I 252 W/m 3,6 C 11,4 C 12,9 km/h (3 Bft) 97,87 %
28.03.2019 14:58 11,7 C 7,8 C 15,6 C 56 % 1031,0 hPa 0,0 l/m 6,4 km/h (2 Bft) N 355 0 min 0,000 mm 0,8 UV-I 245 W/m 3,2 C 11,7 C 11,3 km/h (2 Bft) 100,00 %
28.03.2019 15:00 11,7 C 7,8 C 15,6 C 57 % 1031,0 hPa 0,0 l/m 6,4 km/h (2 Bft) NW 315 0 min 0,178 mm 0,8 UV-I 238 W/m 3,5 C 11,7 C 11,3 km/h (2 Bft) 100,00 %
28.03.2019 15:02 11,7 C 7,8 C 15,6 C 56 % 1031,0 hPa 0,0 l/m 2,6 km/h (1 Bft) NW 308 0 min 0,000 mm 0,8 UV-I 236 W/m 3,2 C 11,7 C 6,4 km/h (2 Bft) 100,00 %
28.03.2019 15:04 11,7 C 7,8 C 15,6 C 57 % 1031,0 hPa 0,0 l/m 3,7 km/h (1 Bft) NW 321 0 min 0,000 mm 0,9 UV-I 244 W/m 3,5 C 11,7 C 6,4 km/h (2 Bft) 100,00 %
28.03.2019 15:06 11,8 C 7,8 C 16,1 C 59 % 1030,9 hPa 0,0 l/m 3,0 km/h (1 Bft) W-NW 296 0 min 0,000 mm 0,9 UV-I 260 W/m 4,1 C 11,8 C 4,8 km/h (1 Bft) 97,73 %
28.03.2019 15:08 11,9 C 7,8 C 16,1 C 59 % 1030,9 hPa 0,0 l/m 3,2 km/h (1 Bft) N-NW 331 0 min 0,000 mm 0,9 UV-I 280 W/m 4,1 C 11,9 C 4,8 km/h (1 Bft) 97,87 %
28.03.2019 15:10 11,9 C 7,8 C 16,7 C 56 % 1030,9 hPa 0,0 l/m 3,5 km/h (1 Bft) N-NW 331 2 min 0,000 mm 0,9 UV-I 296 W/m 3,4 C 11,9 C 4,8 km/h (1 Bft) 97,37 %
28.03.2019 15:12 11,9 C 7,8 C 17,2 C 57 % 1030,8 hPa 0,0 l/m 2,5 km/h (1 Bft) W 277 2 min 0,000 mm 0,9 UV-I 281 W/m 3,7 C 11,9 C 4,8 km/h (1 Bft) 98,00 %
28.03.2019 15:14 12,1 C 7,8 C 17,2 C 59 % 1030,8 hPa 0,0 l/m 3,1 km/h (1 Bft) N-NW 330 0 min 0,000 mm 0,9 UV-I 261 W/m 4,3 C 12,1 C 8,0 km/h (2 Bft) 95,12 %
28.03.2019 15:16 12,1 C 7,8 C 16,7 C 54 % 1030,8 hPa 0,0 l/m 3,7 km/h (1 Bft) W 277 0 min 0,000 mm 0,9 UV-I 260 W/m 3,1 C 12,1 C 6,4 km/h (2 Bft) 98,11 %
28.03.2019 15:18 12,1 C 7,8 C 17,2 C 55 % 1030,8 hPa 0,0 l/m 4,0 km/h (1 Bft) NW 315 2 min 0,000 mm 0,9 UV-I 276 W/m 3,3 C 12,1 C 8,0 km/h (2 Bft) 95,12 %
28.03.2019 15:20 12,1 C 7,8 C 17,2 C 55 % 1030,9 hPa 0,0 l/m 5,7 km/h (1 Bft) N 355 2 min 0,000 mm 0,9 UV-I 291 W/m 3,3 C 12,1 C 12,9 km/h (3 Bft) 98,21 %
28.03.2019 15:22 12,1 C 7,8 C 16,7 C 57 % 1030,8 hPa 0,0 l/m 6,1 km/h (2 Bft) W 279 2 min 0,000 mm 0,9 UV-I 302 W/m 3,8 C 12,1 C 12,9 km/h (3 Bft) 97,56 %
28.03.2019 15:24 12,1 C 7,8 C 16,7 C 56 % 1030,8 hPa 0,0 l/m 3,8 km/h (1 Bft) W 279 2 min 0,000 mm 0,8 UV-I 283 W/m 3,6 C 12,1 C 6,4 km/h (2 Bft) 98,00 %
28.03.2019 15:26 12,1 C 7,8 C 16,7 C 55 % 1030,8 hPa 0,0 l/m 5,3 km/h (1 Bft) NW 317 2 min 0,000 mm 0,8 UV-I 284 W/m 3,3 C 12,1 C 8,0 km/h (2 Bft) 97,87 %
28.03.2019 15:28 12,1 C 7,8 C 16,7 C 56 % 1030,8 hPa 0,0 l/m 4,6 km/h (1 Bft) NW 317 2 min 0,000 mm 0,8 UV-I 296 W/m 3,6 C 12,1 C 8,0 km/h (2 Bft) 96,23 %
28.03.2019 15:30 12,1 C 7,8 C 16,7 C 55 % 1030,8 hPa 0,0 l/m 3,9 km/h (1 Bft) N-NW 336 2 min 0,000 mm 0,8 UV-I 308 W/m 3,3 C 12,1 C 6,4 km/h (2 Bft) 97,62 %
28.03.2019 15:32 12,1 C 7,8 C 17,2 C 56 % 1030,8 hPa 0,0 l/m 5,9 km/h (2 Bft) NW 306 2 min 0,000 mm 0,8 UV-I 324 W/m 3,6 C 12,1 C 8,0 km/h (2 Bft) 98,00 %
28.03.2019 15:34 12,1 C 7,8 C 16,7 C 54 % 1030,7 hPa 0,0 l/m 5,9 km/h (2 Bft) N-NW 327 2 min 0,000 mm 0,8 UV-I 297 W/m 3,1 C 12,1 C 9,7 km/h (2 Bft) 97,56 %
28.03.2019 15:36 12,1 C 7,8 C 16,7 C 54 % 1030,7 hPa 0,0 l/m 5,8 km/h (2 Bft) N 360 2 min 0,000 mm 0,8 UV-I 272 W/m 3,1 C 12,1 C 12,9 km/h (3 Bft) 95,74 %
28.03.2019 15:38 12,0 C 7,8 C 16,7 C 53 % 1030,7 hPa 0,0 l/m 4,0 km/h (1 Bft) W 262 2 min 0,000 mm 0,8 UV-I 247 W/m 2,7 C 12,0 C 14,5 km/h (3 Bft) 96,00 %
28.03.2019 15:40 12,1 C 7,8 C 16,7 C 54 % 1030,7 hPa 0,0 l/m 7,3 km/h (2 Bft) W-SW 243 0 min 0,000 mm 0,7 UV-I 241 W/m 3,1 C 11,5 C 11,3 km/h (2 Bft) 96,00 %
28.03.2019 15:42 12,1 C 7,8 C 16,1 C 52 % 1030,8 hPa 0,0 l/m 8,3 km/h (2 Bft) W 274 0 min 0,000 mm 0,7 UV-I 235 W/m 2,5 C 10,9 C 12,9 km/h (3 Bft) 97,37 %
28.03.2019 15:44 12,1 C 7,8 C 16,1 C 53 % 1030,8 hPa 0,0 l/m 3,9 km/h (1 Bft) N-NW 344 0 min 0,000 mm 0,7 UV-I 233 W/m 2,8 C 12,1 C 6,4 km/h (2 Bft) 90,00 %
28.03.2019 15:46 12,1 C 7,8 C 16,1 C 53 % 1030,8 hPa 0,0 l/m 2,6 km/h (1 Bft) W-NW 296 0 min 0,000 mm 0,7 UV-I 233 W/m 2,8 C 12,1 C 4,8 km/h (1 Bft) 94,74 %
28.03.2019 15:48 12,1 C 7,8 C 15,6 C 53 % 1030,7 hPa 0,0 l/m 4,2 km/h (1 Bft) W-SW 250 0 min 0,000 mm 0,7 UV-I 229 W/m 2,8 C 12,1 C 6,4 km/h (2 Bft) 92,86 %
28.03.2019 15:50 12,1 C 7,8 C 15,6 C 55 % 1030,8 hPa 0,0 l/m 4,5 km/h (1 Bft) W-SW 246 0 min 0,000 mm 0,7 UV-I 214 W/m 3,3 C 12,1 C 9,7 km/h (2 Bft) 92,45 %
28.03.2019 15:52 12,1 C 7,8 C 15,6 C 54 % 1030,8 hPa 0,0 l/m 7,1 km/h (2 Bft) W-NW 286 0 min 0,000 mm 0,7 UV-I 213 W/m 3,1 C 11,6 C 11,3 km/h (2 Bft) 93,62 %
28.03.2019 15:54 12,1 C 7,8 C 15,6 C 55 % 1030,7 hPa 0,0 l/m 5,6 km/h (1 Bft) W-NW 292 0 min 0,000 mm 0,6 UV-I 211 W/m 3,3 C 12,1 C 9,7 km/h (2 Bft) 91,43 %
28.03.2019 15:56 12,1 C 7,8 C 15,6 C 54 % 1030,8 hPa 0,0 l/m 5,4 km/h (1 Bft) W 275 0 min 0,000 mm 0,6 UV-I 208 W/m 3,1 C 12,1 C 12,9 km/h (3 Bft) 92,45 %
28.03.2019 15:58 12,0 C 7,8 C 15,6 C 55 % 1030,8 hPa 0,0 l/m 5,6 km/h (1 Bft) N-NW 337 0 min 0,000 mm 0,6 UV-I 205 W/m 3,2 C 12,0 C 9,7 km/h (2 Bft) 94,44 %
28.03.2019 16:00 11,9 C 7,8 C 15,6 C 54 % 1030,8 hPa 0,0 l/m 2,3 km/h (1 Bft) N-NW 337 0 min 0,152 mm 0,6 UV-I 203 W/m 2,9 C 11,9 C 4,8 km/h (1 Bft) 95,31 %
28.03.2019 16:02 11,9 C 7,8 C 15,6 C 53 % 1030,7 hPa 0,0 l/m 2,7 km/h (1 Bft) N 355 0 min 0,000 mm 0,6 UV-I 206 W/m 2,6 C 11,9 C 6,4 km/h (2 Bft) 95,45 %
28.03.2019 16:04 11,9 C 7,8 C 15,0 C 55 % 1030,7 hPa 0,0 l/m 4,1 km/h (1 Bft) NW 320 0 min 0,000 mm 0,6 UV-I 206 W/m 3,2 C 11,9 C 6,4 km/h (2 Bft) 95,74 %
28.03.2019 16:06 11,9 C 7,8 C 15,0 C 56 % 1030,7 hPa 0,0 l/m 7,5 km/h (2 Bft) N-NW 340 0 min 0,000 mm 0,6 UV-I 200 W/m 3,4 C 11,2 C 11,3 km/h (2 Bft) 95,24 %
28.03.2019 16:08 11,9 C 7,8 C 15,0 C 55 % 1030,7 hPa 0,0 l/m 4,8 km/h (1 Bft) NW 306 0 min 0,000 mm 0,5 UV-I 193 W/m 3,2 C 11,9 C 6,4 km/h (2 Bft) 96,00 %
28.03.2019 16:10 11,9 C 7,8 C 15,0 C 56 % 1030,7 hPa 0,0 l/m 3,5 km/h (1 Bft) N 5 0 min 0,000 mm 0,5 UV-I 187 W/m 3,4 C 11,9 C 4,8 km/h (1 Bft) 93,10 %
28.03.2019 16:12 11,9 C 7,8 C 15,0 C 54 % 1030,7 hPa 0,0 l/m 3,8 km/h (1 Bft) N-NW 337 0 min 0,000 mm 0,5 UV-I 182 W/m 2,9 C 11,9 C 4,8 km/h (1 Bft) 96,77 %
28.03.2019 16:14 11,9 C 7,8 C 14,4 C 55 % 1030,7 hPa 0,0 l/m 5,8 km/h (2 Bft) N 351 0 min 0,000 mm 0,5 UV-I 173 W/m 3,2 C 11,9 C 11,3 km/h (2 Bft) 92,45 %
28.03.2019 16:16 11,8 C 7,8 C 14,4 C 56 % 1030,8 hPa 0,0 l/m 5,5 km/h (1 Bft) NW 321 0 min 0,000 mm 0,5 UV-I 177 W/m 3,3 C 11,8 C 9,7 km/h (2 Bft) 95,12 %
28.03.2019 16:18 11,8 C 7,8 C 14,4 C 55 % 1030,8 hPa 0,0 l/m 4,6 km/h (1 Bft) N-NW 344 0 min 0,000 mm 0,0 UV-I 181 W/m 3,1 C 11,8 C 8,0 km/h (2 Bft) 94,74 %
28.03.2019 16:20 11,8 C 7,8 C 14,4 C 54 % 1030,8 hPa 0,0 l/m 4,1 km/h (1 Bft) NW 321 0 min 0,000 mm 0,0 UV-I 182 W/m 2,8 C 11,8 C 6,4 km/h (2 Bft) 96,43 %
28.03.2019 16:22 11,8 C 7,8 C 14,4 C 56 % 1030,8 hPa 0,0 l/m 3,1 km/h (1 Bft) NW 315 0 min 0,000 mm 0,0 UV-I 168 W/m 3,3 C 11,8 C 4,8 km/h (1 Bft) 95,45 %
28.03.2019 16:24 11,8 C 7,8 C 14,4 C 54 % 1030,8 hPa 0,0 l/m 4,1 km/h (1 Bft) NW 313 0 min 0,000 mm 0,0 UV-I 148 W/m 2,8 C 11,8 C 6,4 km/h (2 Bft) 98,11 %
28.03.2019 16:26 11,8 C 7,8 C 13,9 C 55 % 1030,9 hPa 0,0 l/m 2,8 km/h (1 Bft) W 269 0 min 0,000 mm 0,0 UV-I 134 W/m 3,1 C 11,8 C 6,4 km/h (2 Bft) 97,87 %
28.03.2019 16:28 11,8 C 7,8 C 13,9 C 53 % 1030,9 hPa 0,0 l/m 2,9 km/h (1 Bft) W 276 0 min 0,000 mm 0,0 UV-I 126 W/m 2,5 C 11,8 C 4,8 km/h (1 Bft) 97,56 %
28.03.2019 16:30 11,8 C 7,8 C 13,9 C 53 % 1030,8 hPa 0,0 l/m 3,3 km/h (1 Bft) W-SW 254 0 min 0,000 mm 0,0 UV-I 120 W/m 2,5 C 11,8 C 8,0 km/h (2 Bft) 100,00 %
28.03.2019 16:32 11,8 C 7,8 C 13,9 C 53 % 1030,8 hPa 0,0 l/m 3,7 km/h (1 Bft) W 276 0 min 0,000 mm 0,0 UV-I 121 W/m 2,5 C 11,8 C 6,4 km/h (2 Bft) 100,00 %
28.03.2019 16:34 11,8 C 7,8 C 13,9 C 55 % 1030,8 hPa 0,0 l/m 2,3 km/h (1 Bft) W 269 0 min 0,000 mm 0,0 UV-I 135 W/m 3,1 C 11,8 C 4,8 km/h (1 Bft) 98,00 %
28.03.2019 16:36 11,8 C 7,8 C 13,9 C 52 % 1030,8 hPa 0,0 l/m 2,6 km/h (1 Bft) W 269 0 min 0,000 mm 0,0 UV-I 149 W/m 2,3 C 11,8 C 4,8 km/h (1 Bft) 100,00 %
28.03.2019 16:38 11,8 C 7,8 C 13,9 C 53 % 1030,8 hPa 0,0 l/m 2,2 km/h (1 Bft) W 269 0 min 0,000 mm 0,0 UV-I 149 W/m 2,5 C 11,8 C 3,2 km/h (1 Bft) 100,00 %
28.03.2019 16:40 11,8 C 7,8 C 13,9 C 53 % 1030,8 hPa 0,0 l/m 3,9 km/h (1 Bft) W 272 0 min 0,000 mm 0,0 UV-I 142 W/m 2,5 C 11,8 C 6,4 km/h (2 Bft) 100,00 %
28.03.2019 16:42 11,8 C 7,8 C 13,9 C 54 % 1030,8 hPa 0,0 l/m 3,0 km/h (1 Bft) W-NW 293 0 min 0,000 mm 0,0 UV-I 142 W/m 2,8 C 11,8 C 4,8 km/h (1 Bft) 100,00 %
28.03.2019 16:44 11,8 C 7,8 C 13,9 C 55 % 1030,7 hPa 0,0 l/m 3,5 km/h (1 Bft) W-NW 288 2 min 0,000 mm 0,0 UV-I 155 W/m 3,1 C 11,8 C 6,4 km/h (2 Bft) 98,86 %
28.03.2019 16:46 11,8 C 7,8 C 13,9 C 57 % 1030,8 hPa 0,0 l/m 3,6 km/h (1 Bft) N-NW 327 2 min 0,000 mm 0,0 UV-I 168 W/m 3,6 C 11,8 C 4,8 km/h (1 Bft) 98,04 %
28.03.2019 16:48 11,9 C 7,8 C 13,9 C 57 % 1030,7 hPa 0,0 l/m 4,3 km/h (1 Bft) N-NO 13 2 min 0,000 mm 0,0 UV-I 252 W/m 3,7 C 11,9 C 8,0 km/h (2 Bft) 97,37 %
28.03.2019 16:50 12,0 C 7,8 C 13,9 C 54 % 1030,8 hPa 0,0 l/m 5,3 km/h (1 Bft) N 355 2 min 0,000 mm 0,0 UV-I 302 W/m 3,0 C 12,0 C 8,0 km/h (2 Bft) 100,00 %
28.03.2019 16:52 12,2 C 7,8 C 13,9 C 52 % 1030,8 hPa 0,0 l/m 6,6 km/h (2 Bft) NW 313 2 min 0,000 mm 0,0 UV-I 318 W/m 2,6 C 12,1 C 11,3 km/h (2 Bft) 100,00 %
28.03.2019 16:54 12,2 C 7,8 C 13,9 C 52 % 1030,8 hPa 0,0 l/m 2,7 km/h (1 Bft) NW 310 2 min 0,000 mm 0,0 UV-I 304 W/m 2,6 C 12,2 C 4,8 km/h (1 Bft) 100,00 %
28.03.2019 16:56 12,3 C 7,8 C 13,9 C 51 % 1030,8 hPa 0,0 l/m 4,1 km/h (1 Bft) W 280 2 min 0,000 mm 0,0 UV-I 278 W/m 2,5 C 12,3 C 9,7 km/h (2 Bft) 100,00 %
28.03.2019 16:58 12,3 C 7,8 C 13,9 C 51 % 1030,8 hPa 0,0 l/m 3,0 km/h (1 Bft) NW 306 2 min 0,000 mm 0,0 UV-I 262 W/m 2,5 C 12,3 C 6,4 km/h (2 Bft) 97,87 %
28.03.2019 17:00 12,4 C 7,8 C 13,9 C 54 % 1030,8 hPa 0,0 l/m 3,8 km/h (1 Bft) W 271 2 min 0,000 mm 0,0 UV-I 244 W/m 3,4 C 12,4 C 6,4 km/h (2 Bft) 96,15 %
28.03.2019 17:02 12,4 C 7,8 C 13,9 C 53 % 1030,8 hPa 0,0 l/m 5,2 km/h (1 Bft) N 11 2 min 0,127 mm 0,0 UV-I 222 W/m 3,1 C 12,4 C 8,0 km/h (2 Bft) 96,43 %
28.03.2019 17:04 12,4 C 7,8 C 13,9 C 52 % 1030,8 hPa 0,0 l/m 4,0 km/h (1 Bft) W-SW 252 2 min 0,000 mm 0,0 UV-I 146 W/m 2,8 C 12,4 C 6,4 km/h (2 Bft) 96,23 %
28.03.2019 17:06 12,4 C 7,8 C 13,3 C 54 % 1030,8 hPa 0,0 l/m 3,6 km/h (1 Bft) SW 231 0 min 0,000 mm 0,0 UV-I 99 W/m 3,4 C 12,4 C 6,4 km/h (2 Bft) 98,11 %
28.03.2019 17:08 12,3 C 7,8 C 13,3 C 53 % 1030,8 hPa 0,0 l/m 4,3 km/h (1 Bft) N-NW 336 0 min 0,000 mm 0,0 UV-I 96 W/m 3,0 C 12,3 C 6,4 km/h (2 Bft) 97,37 %
28.03.2019 17:10 12,2 C 7,8 C 13,3 C 51 % 1030,8 hPa 0,0 l/m 4,3 km/h (1 Bft) W 273 0 min 0,000 mm 0,0 UV-I 96 W/m 2,4 C 12,2 C 6,4 km/h (2 Bft) 95,74 %
28.03.2019 17:12 12,0 C 7,8 C 12,8 C 52 % 1030,8 hPa 0,0 l/m 4,8 km/h (1 Bft) W 279 0 min 0,000 mm 0,0 UV-I 97 W/m 2,5 C 12,0 C 6,4 km/h (2 Bft) 97,87 %
28.03.2019 17:14 11,9 C 7,8 C 12,8 C 53 % 1030,8 hPa 0,0 l/m 2,8 km/h (1 Bft) NW 322 0 min 0,000 mm 0,0 UV-I 98 W/m 2,6 C 11,9 C 6,4 km/h (2 Bft) 96,00 %
28.03.2019 17:16 11,8 C 7,8 C 12,8 C 56 % 1030,8 hPa 0,0 l/m 5,1 km/h (1 Bft) N-NW 329 0 min 0,000 mm 0,0 UV-I 98 W/m 3,3 C 11,8 C 8,0 km/h (2 Bft) 98,00 %
28.03.2019 17:18 11,8 C 7,8 C 12,8 C 56 % 1030,9 hPa 0,0 l/m 4,9 km/h (1 Bft) N-NW 333 0 min 0,000 mm 0,0 UV-I 93 W/m 3,3 C 11,8 C 12,9 km/h (3 Bft) 96,00 %
28.03.2019 17:20 11,7 C 7,8 C 12,2 C 56 % 1030,9 hPa 0,0 l/m 5,3 km/h (1 Bft) N 10 0 min 0,000 mm 0,0 UV-I 85 W/m 3,2 C 11,7 C 8,0 km/h (2 Bft) 100,00 %
28.03.2019 17:22 11,6 C 7,8 C 12,2 C 59 % 1030,8 hPa 0,0 l/m 4,6 km/h (1 Bft) NW 323 0 min 0,000 mm 0,0 UV-I 77 W/m 3,9 C 11,6 C 8,0 km/h (2 Bft) 100,00 %
28.03.2019 17:24 11,6 C 7,8 C 12,2 C 58 % 1030,8 hPa 0,0 l/m 5,4 km/h (1 Bft) NW 304 0 min 0,000 mm 0,0 UV-I 73 W/m 3,6 C 11,6 C 8,0 km/h (2 Bft) 100,00 %
28.03.2019 17:26 11,5 C 7,8 C 12,2 C 57 % 1030,8 hPa 0,0 l/m 3,4 km/h (1 Bft) NW 304 0 min 0,000 mm 0,0 UV-I 66 W/m 3,3 C 11,5 C 6,4 km/h (2 Bft) 100,00 %
28.03.2019 17:29 11,4 C 7,8 C 11,7 C 59 % 1030,8 hPa 0,0 l/m 3,2 km/h (1 Bft) NW 305 0 min 0,000 mm 0,0 UV-I 57 W/m 3,7 C 11,4 C 4,8 km/h (1 Bft) 100,00 %
28.03.2019 17:30 11,4 C 7,8 C 11,7 C 60 % 1030,8 hPa 0,0 l/m 4,0 km/h (1 Bft) NW 306 0 min 0,000 mm 0,0 UV-I 51 W/m 3,9 C 11,4 C 4,8 km/h (1 Bft) 100,00 %
28.03.2019 17:32 11,3 C 7,8 C 11,7 C 60 % 1030,8 hPa 0,0 l/m 3,1 km/h (1 Bft) N-NW 338 0 min 0,000 mm 0,0 UV-I 52 W/m 3,8 C 11,3 C 8,0 km/h (2 Bft) 96,23 %
28.03.2019 17:34 11,2 C 7,8 C 11,1 C 62 % 1030,8 hPa 0,0 l/m 4,8 km/h (1 Bft) W 281 0 min 0,000 mm 0,0 UV-I 54 W/m 4,2 C 11,2 C 8,0 km/h (2 Bft) 100,00 %
28.03.2019 17:36 11,2 C 7,8 C 11,1 C 61 % 1030,7 hPa 0,0 l/m 3,2 km/h (1 Bft) NW 306 0 min 0,000 mm 0,0 UV-I 54 W/m 4,0 C 11,2 C 4,8 km/h (1 Bft) 98,00 %
28.03.2019 17:38 11,2 C 7,8 C 11,1 C 61 % 1030,7 hPa 0,0 l/m 4,5 km/h (1 Bft) NW 319 0 min 0,000 mm 0,0 UV-I 53 W/m 4,0 C 11,2 C 11,3 km/h (2 Bft) 98,00 %
28.03.2019 17:40 11,2 C 7,8 C 11,1 C 60 % 1030,7 hPa 0,0 l/m 2,3 km/h (1 Bft) NW 318 0 min 0,000 mm 0,0 UV-I 54 W/m 3,7 C 11,2 C 3,2 km/h (1 Bft) 96,23 %
28.03.2019 17:42 11,1 C 7,8 C 11,1 C 60 % 1030,7 hPa 0,0 l/m 2,8 km/h (1 Bft) W 272 0 min 0,000 mm 0,0 UV-I 55 W/m 3,6 C 11,1 C 4,8 km/h (1 Bft) 100,00 %
28.03.2019 17:44 11,1 C 7,8 C 11,1 C 60 % 1030,8 hPa 0,0 l/m 3,3 km/h (1 Bft) W-NW 296 0 min 0,000 mm 0,0 UV-I 54 W/m 3,6 C 11,1 C 4,8 km/h (1 Bft) 95,74 %
28.03.2019 17:46 11,1 C 7,8 C 11,1 C 62 % 1030,8 hPa 0,0 l/m 2,5 km/h (1 Bft) W-NW 296 0 min 0,000 mm 0,0 UV-I 52 W/m 4,1 C 11,1 C 4,8 km/h (1 Bft) 98,11 %
28.03.2019 17:48 11,0 C 7,8 C 11,1 C 61 % 1030,7 hPa 0,0 l/m 3,7 km/h (1 Bft) N-NW 343 0 min 0,000 mm 0,0 UV-I 49 W/m 3,8 C 11,0 C 8,0 km/h (2 Bft) 95,12 %
28.03.2019 17:50 11,0 C 7,8 C 10,6 C 62 % 1030,8 hPa 0,0 l/m 2,5 km/h (1 Bft) NW 310 0 min 0,000 mm 0,0 UV-I 44 W/m 4,0 C 11,0 C 4,8 km/h (1 Bft) 98,11 %
28.03.2019 17:52 11,0 C 7,8 C 10,6 C 63 % 1030,8 hPa 0,0 l/m 1,2 km/h (1 Bft) NW 311 0 min 0,000 mm 0,0 UV-I 37 W/m 4,2 C 11,0 C 3,2 km/h (1 Bft) 95,83 %
28.03.2019 17:54 10,9 C 7,8 C 10,6 C 62 % 1030,8 hPa 0,0 l/m 2,1 km/h (1 Bft) W-NW 301 0 min 0,000 mm 0,0 UV-I 31 W/m 3,9 C 10,9 C 4,8 km/h (1 Bft) 98,57 %
28.03.2019 17:56 10,9 C 7,8 C 10,6 C 62 % 1030,8 hPa 0,0 l/m 2,6 km/h (1 Bft) W-NW 284 0 min 0,000 mm 0,0 UV-I 26 W/m 3,9 C 10,9 C 4,8 km/h (1 Bft) 95,74 %
28.03.2019 17:58 10,9 C 7,8 C 10,6 C 62 % 1030,8 hPa 0,0 l/m 2,7 km/h (1 Bft) W-NW 290 0 min 0,000 mm 0,0 UV-I 23 W/m 3,9 C 10,9 C 4,8 km/h (1 Bft) 94,87 %
28.03.2019 18:00 10,9 C 7,8 C 10,0 C 63 % 1030,8 hPa 0,0 l/m 1,0 km/h (0 Bft) W-NW 290 0 min 0,051 mm 0,0 UV-I 20 W/m 4,1 C 10,9 C 1,6 km/h (1 Bft) 94,55 %
28.03.2019 18:02 10,8 C 7,8 C 10,0 C 64 % 1030,9 hPa 0,0 l/m 1,2 km/h (1 Bft) W-NW 290 0 min 0,000 mm 0,0 UV-I 19 W/m 4,3 C 10,8 C 3,2 km/h (1 Bft) 97,44 %
28.03.2019 18:04 10,8 C 7,8 C 10,0 C 67 % 1030,9 hPa 0,0 l/m 1,5 km/h (1 Bft) W-NW 290 0 min 0,000 mm 0,0 UV-I 16 W/m 4,9 C 10,8 C 3,2 km/h (1 Bft) 96,43 %
28.03.2019 18:06 10,7 C 7,8 C 9,4 C 65 % 1030,9 hPa 0,0 l/m 0,5 km/h (0 Bft) W-NW 290 0 min 0,000 mm 0,0 UV-I 14 W/m 4,4 C 10,7 C 1,6 km/h (1 Bft) 97,37 %
28.03.2019 18:08 10,7 C 7,8 C 9,4 C 64 % 1031,0 hPa 0,0 l/m 1,2 km/h (1 Bft) W-NW 290 0 min 0,000 mm 0,0 UV-I 13 W/m 4,2 C 10,7 C 3,2 km/h (1 Bft) 98,00 %
28.03.2019 18:10 10,7 C 7,8 C 9,4 C 64 % 1031,0 hPa 0,0 l/m 2,4 km/h (1 Bft) NW 304 0 min 0,000 mm 0,0 UV-I 12 W/m 4,2 C 10,7 C 4,8 km/h (1 Bft) 95,74 %
28.03.2019 18:12 10,7 C 7,8 C 9,4 C 63 % 1031,0 hPa 0,0 l/m 2,4 km/h (1 Bft) NW 305 0 min 0,000 mm 0,0 UV-I 12 W/m 3,9 C 10,7 C 4,8 km/h (1 Bft) 100,00 %
28.03.2019 18:14 10,7 C 7,8 C 9,4 C 64 % 1031,0 hPa 0,0 l/m 3,4 km/h (1 Bft) NW 323 0 min 0,000 mm 0,0 UV-I 10 W/m 4,2 C 10,7 C 4,8 km/h (1 Bft) 96,00 %
28.03.2019 18:16 10,7 C 7,8 C 9,4 C 64 % 1031,0 hPa 0,0 l/m 2,4 km/h (1 Bft) NW 323 0 min 0,000 mm 0,0 UV-I 9 W/m 4,2 C 10,7 C 4,8 km/h (1 Bft) 100,00 %
28.03.2019 18:18 10,6 C 7,8 C 8,9 C 64 % 1031,0 hPa 0,0 l/m 1,1 km/h (1 Bft) NW 323 0 min 0,000 mm 0,0 UV-I 9 W/m 4,1 C 10,6 C 3,2 km/h (1 Bft) 100,00 %
28.03.2019 18:20 10,6 C 7,8 C 8,9 C 65 % 1031,0 hPa 0,0 l/m 1,9 km/h (1 Bft) NW 323 0 min 0,000 mm 0,0 UV-I 7 W/m 4,3 C 10,6 C 4,8 km/h (1 Bft) 96,23 %
28.03.2019 18:22 10,6 C 7,8 C 8,9 C 65 % 1031,0 hPa 0,0 l/m 1,5 km/h (1 Bft) NW 323 0 min 0,000 mm 0,0 UV-I 7 W/m 4,3 C 10,6 C 3,2 km/h (1 Bft) 96,23 %
28.03.2019 18:24 10,6 C 7,8 C 8,9 C 64 % 1031,1 hPa 0,0 l/m 3,5 km/h (1 Bft) NW 325 0 min 0,000 mm 0,0 UV-I 7 W/m 4,1 C 10,6 C 4,8 km/h (1 Bft) 97,87 %
28.03.2019 18:26 10,6 C 7,8 C 8,9 C 64 % 1031,1 hPa 0,0 l/m 3,6 km/h (1 Bft) NW 325 0 min 0,000 mm 0,0 UV-I 5 W/m 4,1 C 10,6 C 4,8 km/h (1 Bft) 97,56 %
28.03.2019 18:28 10,6 C 7,8 C 8,9 C 64 % 1031,1 hPa 0,0 l/m 3,2 km/h (1 Bft) N 9 0 min 0,000 mm 0,0 UV-I 5 W/m 4,1 C 10,6 C 6,4 km/h (2 Bft) 98,00 %
28.03.2019 18:30 10,6 C 7,8 C 8,9 C 65 % 1031,1 hPa 0,0 l/m 3,1 km/h (1 Bft) N 355 0 min 0,000 mm 0,0 UV-I 5 W/m 4,3 C 10,6 C 4,8 km/h (1 Bft) 95,74 %
28.03.2019 18:32 10,5 C 7,8 C 8,9 C 65 % 1031,1 hPa 0,0 l/m 3,5 km/h (1 Bft) N 360 0 min 0,000 mm 0,0 UV-I 5 W/m 4,2 C 10,5 C 4,8 km/h (1 Bft) 97,62 %
28.03.2019 18:34 10,5 C 7,8 C 8,9 C 65 % 1031,1 hPa 0,0 l/m 2,6 km/h (1 Bft) N-NW 336 0 min 0,000 mm 0,0 UV-I 0 W/m 4,2 C 10,5 C 4,8 km/h (1 Bft) 98,18 %
28.03.2019 18:36 10,5 C 7,8 C 8,9 C 64 % 1031,1 hPa 0,0 l/m 3,7 km/h (1 Bft) N-NW 333 0 min 0,000 mm 0,0 UV-I 0 W/m 4,0 C 10,5 C 6,4 km/h (2 Bft) 97,44 %
28.03.2019 18:38 10,5 C 7,8 C 8,9 C 64 % 1031,1 hPa 0,0 l/m 3,0 km/h (1 Bft) N-NW 331 0 min 0,000 mm 0,0 UV-I 0 W/m 4,0 C 10,5 C 4,8 km/h (1 Bft) 95,74 %
28.03.2019 18:40 10,5 C 7,8 C 8,9 C 64 % 1031,2 hPa 0,0 l/m 1,8 km/h (1 Bft) N-NW 331 0 min 0,000 mm 0,0 UV-I 0 W/m 4,0 C 10,5 C 3,2 km/h (1 Bft) 98,00 %
28.03.2019 18:42 10,5 C 7,8 C 8,9 C 65 % 1031,2 hPa 0,0 l/m 3,5 km/h (1 Bft) N-NW 331 0 min 0,000 mm 0,0 UV-I 0 W/m 4,2 C 10,5 C 4,8 km/h (1 Bft) 100,00 %
28.03.2019 18:44 10,4 C 7,8 C 8,9 C 66 % 1031,2 hPa 0,0 l/m 1,4 km/h (1 Bft) N-NW 331 0 min 0,000 mm 0,0 UV-I 0 W/m 4,3 C 10,4 C 3,2 km/h (1 Bft) 93,62 %
28.03.2019 18:46 10,4 C 7,8 C 8,3 C 66 % 1031,2 hPa 0,0 l/m 0,9 km/h (0 Bft) N-NW 331 0 min 0,000 mm 0,0 UV-I 0 W/m 4,3 C 10,4 C 1,6 km/h (1 Bft) 97,37 %
28.03.2019 18:48 10,4 C 7,8 C 8,3 C 66 % 1031,2 hPa 0,0 l/m 0,0 km/h (0 Bft) N-NW 331 0 min 0,000 mm 0,0 UV-I 0 W/m 4,3 C 10,4 C 0,0 km/h (0 Bft) 100,00 %
28.03.2019 18:50 10,3 C 7,8 C 8,3 C 68 % 1031,3 hPa 0,0 l/m 0,0 km/h (0 Bft) N-NW 331 0 min 0,000 mm 0,0 UV-I 0 W/m 4,7 C 10,3 C 0,0 km/h (0 Bft) 96,00 %
28.03.2019 18:52 10,3 C 7,8 C 8,3 C 69 % 1031,3 hPa 0,0 l/m 0,6 km/h (0 Bft) N-NW 332 0 min 0,000 mm 0,0 UV-I 0 W/m 4,9 C 10,3 C 3,2 km/h (1 Bft) 100,00 %
28.03.2019 18:54 10,2 C 7,8 C 8,3 C 71 % 1031,3 hPa 0,0 l/m 0,1 km/h (0 Bft) N-NW 332 0 min 0,000 mm 0,0 UV-I 0 W/m 5,2 C 10,2 C 1,6 km/h (1 Bft) 100,00 %
28.03.2019 18:56 10,1 C 7,8 C 7,8 C 70 % 1031,3 hPa 0,0 l/m 0,0 km/h (0 Bft) N-NW 332 0 min 0,000 mm 0,0 UV-I 0 W/m 4,9 C 10,1 C 0,0 km/h (0 Bft) 100,00 %
28.03.2019 18:58 10,2 C 7,8 C 7,8 C 69 % 1031,4 hPa 0,0 l/m 2,0 km/h (1 Bft) N-NW 332 0 min 0,000 mm 0,0 UV-I 0 W/m 4,8 C 10,2 C 3,2 km/h (1 Bft) 100,00 %
28.03.2019 19:00 10,0 C 7,8 C 7,8 C 72 % 1031,4 hPa 0,0 l/m 2,1 km/h (1 Bft) N-NW 332 0 min 0,025 mm 0,0 UV-I 0 W/m 5,2 C 10,0 C 3,2 km/h (1 Bft) 100,00 %
28.03.2019 19:02 9,9 C 7,8 C 7,8 C 74 % 1031,4 hPa 0,0 l/m 2,0 km/h (1 Bft) N-NO 26 0 min 0,000 mm 0,0 UV-I 0 W/m 5,5 C 9,9 C 4,8 km/h (1 Bft) 97,56 %
28.03.2019 19:04 9,8 C 7,8 C 7,8 C 73 % 1031,5 hPa 0,0 l/m 3,6 km/h (1 Bft) N-NO 26 0 min 0,000 mm 0,0 UV-I 0 W/m 5,2 C 9,8 C 4,8 km/h (1 Bft) 100,00 %
28.03.2019 19:06 9,7 C 7,8 C 7,8 C 73 % 1031,4 hPa 0,0 l/m 2,7 km/h (1 Bft) N-NO 27 0 min 0,000 mm 0,0 UV-I 0 W/m 5,1 C 9,7 C 4,8 km/h (1 Bft) 98,11 %
28.03.2019 19:08 9,8 C 7,8 C 7,8 C 73 % 1031,5 hPa 0,0 l/m 3,0 km/h (1 Bft) N-NO 28 0 min 0,000 mm 0,0 UV-I 0 W/m 5,2 C 9,8 C 4,8 km/h (1 Bft) 100,00 %
28.03.2019 19:10 9,7 C 7,8 C 7,8 C 73 % 1031,5 hPa 0,0 l/m 1,9 km/h (1 Bft) N-NO 28 0 min 0,000 mm 0,0 UV-I 0 W/m 5,1 C 9,7 C 3,2 km/h (1 Bft) 100,00 %
28.03.2019 19:12 9,7 C 7,8 C 7,8 C 74 % 1031,5 hPa 0,0 l/m 3,3 km/h (1 Bft) O-NO 78 0 min 0,000 mm 0,0 UV-I 0 W/m 5,3 C 9,7 C 4,8 km/h (1 Bft) 100,00 %
28.03.2019 19:14 9,6 C 7,8 C 7,8 C 74 % 1031,5 hPa 0,0 l/m 3,2 km/h (1 Bft) O-NO 78 0 min 0,000 mm 0,0 UV-I 0 W/m 5,2 C 9,6 C 4,8 km/h (1 Bft) 100,00 %
28.03.2019 19:16 9,5 C 7,8 C 7,8 C 75 % 1031,5 hPa 0,0 l/m 5,6 km/h (1 Bft) NO 36 0 min 0,000 mm 0,0 UV-I 0 W/m 5,3 C 9,5 C 9,7 km/h (2 Bft) 100,00 %
28.03.2019 19:18 9,6 C 7,8 C 7,8 C 72 % 1031,5 hPa 0,0 l/m 6,0 km/h (2 Bft) N 10 0 min 0,000 mm 0,0 UV-I 0 W/m 4,8 C 9,6 C 8,0 km/h (2 Bft) 100,00 %
28.03.2019 19:20 9,6 C 7,8 C 7,8 C 74 % 1031,5 hPa 0,0 l/m 3,1 km/h (1 Bft) N 11 0 min 0,000 mm 0,0 UV-I 0 W/m 5,2 C 9,6 C 4,8 km/h (1 Bft) 100,00 %
28.03.2019 19:22 9,6 C 7,8 C 7,8 C 75 % 1031,5 hPa 0,0 l/m 2,3 km/h (1 Bft) N 11 0 min 0,000 mm 0,0 UV-I 0 W/m 5,4 C 9,6 C 4,8 km/h (1 Bft) 97,87 %
28.03.2019 19:24 9,6 C 7,8 C 7,8 C 73 % 1031,5 hPa 0,0 l/m 1,1 km/h (1 Bft) N 11 0 min 0,000 mm 0,0 UV-I 0 W/m 5,0 C 9,6 C 1,6 km/h (1 Bft) 100,00 %
28.03.2019 19:26 9,7 C 7,8 C 7,2 C 72 % 1031,5 hPa 0,0 l/m 3,0 km/h (1 Bft) N 11 0 min 0,000 mm 0,0 UV-I 0 W/m 4,9 C 9,7 C 4,8 km/h (1 Bft) 97,87 %
28.03.2019 19:28 9,7 C 7,8 C 7,2 C 71 % 1031,5 hPa 0,0 l/m 2,6 km/h (1 Bft) N 11 0 min 0,000 mm 0,0 UV-I 0 W/m 4,7 C 9,7 C 3,2 km/h (1 Bft) 100,00 %
28.03.2019 19:30 9,7 C 7,8 C 7,2 C 73 % 1031,6 hPa 0,0 l/m 2,4 km/h (1 Bft) N 11 0 min 0,000 mm 0,0 UV-I 0 W/m 5,1 C 9,7 C 3,2 km/h (1 Bft) 100,00 %
28.03.2019 19:32 9,6 C 7,8 C 7,2 C 73 % 1031,6 hPa 0,0 l/m 2,1 km/h (1 Bft) N 11 0 min 0,000 mm 0,0 UV-I 0 W/m 5,0 C 9,6 C 3,2 km/h (1 Bft) 100,00 %
28.03.2019 19:34 9,6 C 7,8 C 7,2 C 74 % 1031,6 hPa 0,0 l/m 1,9 km/h (1 Bft) N 11 0 min 0,000 mm 0,0 UV-I 0 W/m 5,2 C 9,6 C 3,2 km/h (1 Bft) 98,11 %
28.03.2019 19:36 9,5 C 7,8 C 7,2 C 73 % 1031,6 hPa 0,0 l/m 2,0 km/h (1 Bft) N 11 0 min 0,000 mm 0,0 UV-I 0 W/m 4,9 C 9,5 C 4,8 km/h (1 Bft) 100,00 %
28.03.2019 19:38 9,5 C 7,8 C 7,2 C 73 % 1031,6 hPa 0,0 l/m 2,3 km/h (1 Bft) N 11 0 min 0,000 mm 0,0 UV-I 0 W/m 4,9 C 9,5 C 4,8 km/h (1 Bft) 100,00 %
28.03.2019 19:40 9,6 C 7,8 C 7,2 C 72 % 1031,6 hPa 0,0 l/m 2,1 km/h (1 Bft) N 11 0 min 0,000 mm 0,0 UV-I 0 W/m 4,8 C 9,6 C 3,2 km/h (1 Bft) 100,00 %
28.03.2019 19:42 9,7 C 7,8 C 7,2 C 72 % 1031,6 hPa 0,0 l/m 1,6 km/h (1 Bft) N 11 0 min 0,000 mm 0,0 UV-I 0 W/m 4,9 C 9,7 C 3,2 km/h (1 Bft) 100,00 %
28.03.2019 19:44 9,7 C 7,8 C 7,2 C 71 % 1031,6 hPa 0,0 l/m 1,5 km/h (1 Bft) N 11 0 min 0,000 mm 0,0 UV-I 0 W/m 4,7 C 9,7 C 3,2 km/h (1 Bft) 95,74 %
28.03.2019 19:46 9,7 C 7,8 C 7,2 C 71 % 1031,6 hPa 0,0 l/m 3,2 km/h (1 Bft) N 11 0 min 0,000 mm 0,0 UV-I 0 W/m 4,7 C 9,7 C 4,8 km/h (1 Bft) 93,62 %
28.03.2019 19:48 9,6 C 7,8 C 7,2 C 72 % 1031,6 hPa 0,0 l/m 2,4 km/h (1 Bft) N 11 0 min 0,000 mm 0,0 UV-I 0 W/m 4,8 C 9,6 C 4,8 km/h (1 Bft) 92,86 %
28.03.2019 19:50 9,6 C 7,8 C 7,8 C 71 % 1031,6 hPa 0,0 l/m 4,6 km/h (1 Bft) N 11 0 min 0,000 mm 0,0 UV-I 0 W/m 4,6 C 9,6 C 6,4 km/h (2 Bft) 93,62 %
28.03.2019 19:52 9,6 C 7,8 C 7,8 C 72 % 1031,7 hPa 0,0 l/m 3,8 km/h (1 Bft) N-NO 13 0 min 0,000 mm 0,0 UV-I 0 W/m 4,8 C 9,6 C 4,8 km/h (1 Bft) 90,48 %
28.03.2019 19:54 9,5 C 7,8 C 7,8 C 73 % 1031,7 hPa 0,0 l/m 3,0 km/h (1 Bft) N-NO 13 0 min 0,000 mm 0,0 UV-I 0 W/m 4,9 C 9,5 C 3,2 km/h (1 Bft) 94,00 %
28.03.2019 19:56 9,4 C 7,8 C 7,8 C 74 % 1031,7 hPa 0,0 l/m 4,1 km/h (1 Bft) N-NO 20 0 min 0,000 mm 0,0 UV-I 0 W/m 5,0 C 9,4 C 6,4 km/h (2 Bft) 92,68 %
28.03.2019 19:58 9,3 C 7,8 C 7,8 C 75 % 1031,7 hPa 0,0 l/m 6,8 km/h (2 Bft) N-NO 22 0 min 0,000 mm 0,0 UV-I 0 W/m 5,1 C 9,0 C 12,9 km/h (3 Bft) 94,00 %
28.03.2019 20:00 9,3 C 7,8 C 7,8 C 75 % 1031,8 hPa 0,0 l/m 5,3 km/h (1 Bft) N-NO 26 0 min 0,026 mm 0,0 UV-I 0 W/m 5,1 C 9,3 C 8,0 km/h (2 Bft) 91,49 %
28.03.2019 20:02 9,3 C 7,8 C 7,8 C 75 % 1031,8 hPa 0,0 l/m 6,4 km/h (2 Bft) N-NO 25 0 min 0,000 mm 0,0 UV-I 0 W/m 5,1 C 9,3 C 8,0 km/h (2 Bft) 94,00 %
28.03.2019 20:04 9,2 C 7,8 C 7,8 C 76 % 1031,8 hPa 0,0 l/m 6,3 km/h (2 Bft) N-NO 29 0 min 0,000 mm 0,0 UV-I 0 W/m 5,2 C 9,2 C 8,0 km/h (2 Bft) 92,11 %
28.03.2019 20:06 9,2 C 7,8 C 7,8 C 76 % 1031,8 hPa 0,0 l/m 7,3 km/h (2 Bft) N-NO 24 0 min 0,000 mm 0,0 UV-I 0 W/m 5,2 C 8,5 C 9,7 km/h (2 Bft) 94,64 %
28.03.2019 20:08 9,2 C 7,8 C 7,8 C 76 % 1031,8 hPa 0,0 l/m 7,1 km/h (2 Bft) NO 53 0 min 0,000 mm 0,0 UV-I 0 W/m 5,2 C 8,7 C 9,7 km/h (2 Bft) 92,11 %
28.03.2019 20:10 9,2 C 7,8 C 8,3 C 76 % 1031,8 hPa 0,0 l/m 9,2 km/h (2 Bft) NO 40 0 min 0,000 mm 0,0 UV-I 0 W/m 5,2 C 7,2 C 14,5 km/h (3 Bft) 94,00 %
28.03.2019 20:12 9,2 C 7,8 C 8,3 C 76 % 1031,8 hPa 0,0 l/m 11,6 km/h (2 Bft) N-NO 15 0 min 0,000 mm 0,0 UV-I 0 W/m 5,2 C 5,8 C 16,1 km/h (3 Bft) 96,23 %
28.03.2019 20:14 9,2 C 7,8 C 8,3 C 76 % 1031,9 hPa 0,0 l/m 10,1 km/h (2 Bft) N-NO 22 0 min 0,000 mm 0,0 UV-I 0 W/m 5,2 C 6,7 C 16,1 km/h (3 Bft) 95,74 %
28.03.2019 20:16 9,1 C 7,8 C 8,3 C 77 % 1031,9 hPa 0,0 l/m 7,5 km/h (2 Bft) N 5 0 min 0,000 mm 0,0 UV-I 0 W/m 5,3 C 8,3 C 12,9 km/h (3 Bft) 94,29 %
28.03.2019 20:18 9,1 C 7,8 C 8,3 C 77 % 1031,9 hPa 0,0 l/m 8,3 km/h (2 Bft) N-NO 26 0 min 0,000 mm 0,0 UV-I 0 W/m 5,3 C 7,7 C 12,9 km/h (3 Bft) 94,34 %
28.03.2019 20:20 9,1 C 7,8 C 8,3 C 77 % 1031,9 hPa 0,0 l/m 10,8 km/h (2 Bft) N-NO 19 0 min 0,000 mm 0,0 UV-I 0 W/m 5,3 C 6,1 C 14,5 km/h (3 Bft) 97,87 %
28.03.2019 20:22 9,1 C 7,8 C 8,3 C 78 % 1032,0 hPa 0,0 l/m 11,2 km/h (2 Bft) N 11 0 min 0,000 mm 0,0 UV-I 0 W/m 5,5 C 5,9 C 16,1 km/h (3 Bft) 96,00 %
28.03.2019 20:24 9,0 C 7,8 C 8,3 C 79 % 1031,9 hPa 0,0 l/m 11,8 km/h (2 Bft) NO 36 0 min 0,000 mm 0,0 UV-I 0 W/m 5,6 C 5,5 C 14,5 km/h (3 Bft) 98,00 %
28.03.2019 20:26 8,9 C 7,8 C 8,3 C 79 % 1032,0 hPa 0,0 l/m 10,5 km/h (2 Bft) NO 38 0 min 0,000 mm 0,0 UV-I 0 W/m 5,5 C 6,1 C 16,1 km/h (3 Bft) 97,56 %
28.03.2019 20:28 8,9 C 7,8 C 8,3 C 80 % 1032,0 hPa 0,0 l/m 10,8 km/h (2 Bft) N-NO 30 0 min 0,000 mm 0,0 UV-I 0 W/m 5,6 C 5,9 C 14,5 km/h (3 Bft) 98,00 %
28.03.2019 20:30 8,8 C 7,8 C 8,3 C 81 % 1031,9 hPa 0,0 l/m 9,5 km/h (2 Bft) N-NO 28 0 min 0,000 mm 0,0 UV-I 0 W/m 5,7 C 6,6 C 12,9 km/h (3 Bft) 95,74 %
28.03.2019 20:32 8,8 C 7,8 C 8,3 C 81 % 1032,0 hPa 0,0 l/m 9,8 km/h (2 Bft) N-NO 30 0 min 0,000 mm 0,0 UV-I 0 W/m 5,7 C 6,4 C 12,9 km/h (3 Bft) 98,00 %
28.03.2019 20:34 8,7 C 7,8 C 7,8 C 81 % 1032,0 hPa 0,0 l/m 4,5 km/h (1 Bft) N-NO 17 0 min 0,000 mm 0,0 UV-I 0 W/m 5,6 C 8,7 C 8,0 km/h (2 Bft) 97,44 %
28.03.2019 20:36 8,7 C 7,8 C 7,8 C 82 % 1032,0 hPa 0,0 l/m 5,2 km/h (1 Bft) N 10 0 min 0,000 mm 0,0 UV-I 0 W/m 5,8 C 8,7 C 8,0 km/h (2 Bft) 95,74 %
28.03.2019 20:38 8,7 C 7,8 C 7,8 C 81 % 1032,0 hPa 0,0 l/m 5,6 km/h (1 Bft) N 5 0 min 0,000 mm 0,0 UV-I 0 W/m 5,6 C 8,7 C 8,0 km/h (2 Bft) 95,12 %
28.03.2019 20:40 8,7 C 7,8 C 7,8 C 82 % 1032,1 hPa 0,0 l/m 5,5 km/h (1 Bft) N-NO 19 0 min 0,000 mm 0,0 UV-I 0 W/m 5,8 C 8,7 C 8,0 km/h (2 Bft) 98,11 %
28.03.2019 20:42 8,7 C 7,8 C 7,8 C 83 % 1032,1 hPa 0,0 l/m 5,3 km/h (1 Bft) NO 34 0 min 0,000 mm 0,0 UV-I 0 W/m 6,0 C 8,7 C 6,4 km/h (2 Bft) 97,87 %
28.03.2019 20:44 8,6 C 7,8 C 7,8 C 83 % 1032,1 hPa 0,0 l/m 5,9 km/h (2 Bft) N-NO 15 0 min 0,000 mm 0,0 UV-I 0 W/m 5,9 C 8,6 C 8,0 km/h (2 Bft) 96,23 %
28.03.2019 20:46 8,6 C 7,8 C 7,8 C 83 % 1032,1 hPa 0,0 l/m 5,0 km/h (1 Bft) N-NO 29 0 min 0,000 mm 0,0 UV-I 0 W/m 5,9 C 8,6 C 6,4 km/h (2 Bft) 97,87 %
28.03.2019 20:48 8,5 C 7,8 C 7,8 C 84 % 1032,1 hPa 0,0 l/m 3,9 km/h (1 Bft) N-NO 32 0 min 0,000 mm 0,0 UV-I 0 W/m 6,0 C 8,5 C 4,8 km/h (1 Bft) 97,37 %
28.03.2019 20:50 8,4 C 7,8 C 7,8 C 84 % 1032,1 hPa 0,0 l/m 4,0 km/h (1 Bft) N-NO 32 0 min 0,000 mm 0,0 UV-I 0 W/m 5,9 C 8,4 C 4,8 km/h (1 Bft) 96,23 %
28.03.2019 20:52 8,4 C 7,8 C 7,2 C 84 % 1032,1 hPa 0,0 l/m 2,5 km/h (1 Bft) N-NO 33 0 min 0,000 mm 0,0 UV-I 0 W/m 5,9 C 8,4 C 4,8 km/h (1 Bft) 94,74 %
28.03.2019 20:54 8,4 C 7,8 C 7,2 C 84 % 1032,1 hPa 0,0 l/m 2,7 km/h (1 Bft) N-NO 33 0 min 0,000 mm 0,0 UV-I 0 W/m 5,9 C 8,4 C 4,8 km/h (1 Bft) 96,23 %
28.03.2019 20:56 8,4 C 7,8 C 7,2 C 84 % 1032,1 hPa 0,0 l/m 2,4 km/h (1 Bft) N-NO 33 0 min 0,000 mm 0,0 UV-I 0 W/m 5,9 C 8,4 C 3,2 km/h (1 Bft) 100,00 %
28.03.2019 20:58 8,4 C 7,8 C 7,2 C 85 % 1032,1 hPa 0,0 l/m 1,4 km/h (1 Bft) N-NO 33 0 min 0,000 mm 0,0 UV-I 0 W/m 6,0 C 8,4 C 3,2 km/h (1 Bft) 100,00 %
28.03.2019 21:00 8,3 C 7,8 C 7,2 C 85 % 1032,1 hPa 0,0 l/m 1,4 km/h (1 Bft) N-NO 33 0 min 0,000 mm 0,0 UV-I 0 W/m 5,9 C 8,3 C 3,2 km/h (1 Bft) 100,00 %
28.03.2019 21:02 8,3 C 7,8 C 7,2 C 86 % 1032,1 hPa 0,0 l/m 0,9 km/h (0 Bft) N-NO 33 0 min 0,025 mm 0,0 UV-I 0 W/m 6,1 C 8,3 C 1,6 km/h (1 Bft) 100,00 %
28.03.2019 21:04 8,3 C 7,8 C 7,2 C 86 % 1032,1 hPa 0,0 l/m 1,0 km/h (0 Bft) N-NO 33 0 min 0,000 mm 0,0 UV-I 0 W/m 6,1 C 8,3 C 1,6 km/h (1 Bft) 100,00 %
28.03.2019 21:06 8,3 C 7,8 C 7,2 C 86 % 1032,2 hPa 0,0 l/m 1,2 km/h (1 Bft) N-NO 33 0 min 0,000 mm 0,0 UV-I 0 W/m 6,1 C 8,3 C 3,2 km/h (1 Bft) 98,18 %
28.03.2019 21:08 8,2 C 7,8 C 7,2 C 86 % 1032,1 hPa 0,0 l/m 1,5 km/h (1 Bft) N-NO 33 0 min 0,000 mm 0,0 UV-I 0 W/m 6,0 C 8,2 C 3,2 km/h (1 Bft) 97,44 %
28.03.2019 21:10 8,2 C 7,8 C 7,2 C 86 % 1032,1 hPa 0,0 l/m 0,6 km/h (0 Bft) N-NO 33 0 min 0,000 mm 0,0 UV-I 0 W/m 6,0 C 8,2 C 1,6 km/h (1 Bft) 98,00 %
28.03.2019 21:12 8,2 C 7,8 C 7,2 C 87 % 1032,1 hPa 0,0 l/m 0,2 km/h (0 Bft) N-NO 33 0 min 0,000 mm 0,0 UV-I 0 W/m 6,2 C 8,2 C 1,6 km/h (1 Bft) 95,74 %
28.03.2019 21:14 8,2 C 7,8 C 6,7 C 87 % 1032,1 hPa 0,0 l/m 1,0 km/h (0 Bft) N-NO 33 0 min 0,000 mm 0,0 UV-I 0 W/m 6,2 C 8,2 C 3,2 km/h (1 Bft) 95,74 %
28.03.2019 21:16 8,2 C 7,8 C 6,7 C 87 % 1032,2 hPa 0,0 l/m 1,5 km/h (1 Bft) N-NO 33 0 min 0,000 mm 0,0 UV-I 0 W/m 6,2 C 8,2 C 3,2 km/h (1 Bft) 98,11 %
28.03.2019 21:18 8,2 C 7,8 C 6,7 C 87 % 1032,2 hPa 0,0 l/m 1,5 km/h (1 Bft) N-NO 33 0 min 0,000 mm 0,0 UV-I 0 W/m 6,2 C 8,2 C 3,2 km/h (1 Bft) 95,74 %
28.03.2019 21:20 8,2 C 7,8 C 6,7 C 86 % 1032,1 hPa 0,0 l/m 1,2 km/h (1 Bft) N-NO 33 0 min 0,000 mm 0,0 UV-I 0 W/m 6,0 C 8,2 C 1,6 km/h (1 Bft) 98,00 %
28.03.2019 21:22 8,3 C 7,8 C 6,7 C 86 % 1032,2 hPa 0,0 l/m 0,5 km/h (0 Bft) N-NO 33 0 min 0,000 mm 0,0 UV-I 0 W/m 6,1 C 8,3 C 1,6 km/h (1 Bft) 97,87 %
28.03.2019 21:24 8,2 C 7,8 C 6,7 C 86 % 1032,1 hPa 0,0 l/m 0,6 km/h (0 Bft) N-NO 33 0 min 0,000 mm 0,0 UV-I 0 W/m 6,0 C 8,2 C 1,6 km/h (1 Bft) 97,56 %
28.03.2019 21:26 8,3 C 7,8 C 6,7 C 86 % 1032,2 hPa 0,0 l/m 0,0 km/h (0 Bft) N-NO 33 0 min 0,000 mm 0,0 UV-I 0 W/m 6,1 C 8,3 C 0,0 km/h (0 Bft) 96,23 %
28.03.2019 21:28 8,3 C 7,8 C 6,7 C 85 % 1032,2 hPa 0,0 l/m 0,0 km/h (0 Bft) N-NO 33 0 min 0,000 mm 0,0 UV-I 0 W/m 5,9 C 8,3 C 0,0 km/h (0 Bft) 94,29 %
28.03.2019 21:31 8,3 C 7,8 C 6,7 C 85 % 1032,2 hPa 0,0 l/m 0,0 km/h (0 Bft) N-NO 33 0 min 0,000 mm 0,0 UV-I 0 W/m 5,9 C 8,3 C 0,0 km/h (0 Bft) 100,00 %
28.03.2019 21:32 8,3 C 7,8 C 6,7 C 85 % 1032,3 hPa 0,0 l/m 0,0 km/h (0 Bft) N-NO 33 0 min 0,000 mm 0,0 UV-I 0 W/m 5,9 C 8,3 C 0,0 km/h (0 Bft) 100,00 %
28.03.2019 21:34 8,3 C 7,8 C 6,7 C 85 % 1032,2 hPa 0,0 l/m 0,0 km/h (0 Bft) N-NO 33 0 min 0,000 mm 0,0 UV-I 0 W/m 5,9 C 8,3 C 0,0 km/h (0 Bft) 100,00 %
28.03.2019 21:36 8,3 C 7,8 C 6,7 C 86 % 1032,3 hPa 0,0 l/m 0,0 km/h (0 Bft) N-NO 33 0 min 0,000 mm 0,0 UV-I 0 W/m 6,1 C 8,3 C 0,0 km/h (0 Bft) 100,00 %
28.03.2019 21:38 8,3 C 7,8 C 6,7 C 85 % 1032,2 hPa 0,0 l/m 0,0 km/h (0 Bft) N-NO 33 0 min 0,000 mm 0,0 UV-I 0 W/m 5,9 C 8,3 C 0,0 km/h (0 Bft) 100,00 %
28.03.2019 21:40 8,3 C 7,8 C 6,7 C 86 % 1032,2 hPa 0,0 l/m 0,0 km/h (0 Bft) N-NO 33 0 min 0,000 mm 0,0 UV-I 0 W/m 6,1 C 8,3 C 0,0 km/h (0 Bft) 98,00 %
28.03.2019 21:42 8,3 C 7,8 C 7,2 C 86 % 1032,2 hPa 0,0 l/m 0,0 km/h (0 Bft) N-NO 33 0 min 0,000 mm 0,0 UV-I 0 W/m 6,1 C 8,3 C 0,0 km/h (0 Bft) 100,00 %
28.03.2019 21:44 8,3 C 7,8 C 7,2 C 86 % 1032,2 hPa 0,0 l/m 0,0 km/h (0 Bft) N-NO 33 0 min 0,000 mm 0,0 UV-I 0 W/m 6,1 C 8,3 C 0,0 km/h (0 Bft) 100,00 %
28.03.2019 21:46 8,3 C 7,8 C 7,2 C 86 % 1032,3 hPa 0,0 l/m 0,0 km/h (0 Bft) N-NO 33 0 min 0,000 mm 0,0 UV-I 0 W/m 6,1 C 8,3 C 0,0 km/h (0 Bft) 100,00 %
28.03.2019 21:48 8,3 C 7,8 C 7,2 C 86 % 1032,2 hPa 0,0 l/m 0,0 km/h (0 Bft) N-NO 33 0 min 0,000 mm 0,0 UV-I 0 W/m 6,1 C 8,3 C 0,0 km/h (0 Bft) 97,87 %
28.03.2019 21:50 8,3 C 7,8 C 7,2 C 87 % 1032,3 hPa 0,0 l/m 0,0 km/h (0 Bft) N-NO 33 0 min 0,000 mm 0,0 UV-I 0 W/m 6,3 C 8,3 C 0,0 km/h (0 Bft) 97,37 %
28.03.2019 21:52 8,2 C 7,8 C 7,2 C 87 % 1032,3 hPa 0,0 l/m 0,0 km/h (0 Bft) N-NO 33 0 min 0,000 mm 0,0 UV-I 0 W/m 6,2 C 8,2 C 0,0 km/h (0 Bft) 98,11 %
28.03.2019 21:54 8,2 C 7,8 C 7,2 C 88 % 1032,3 hPa 0,0 l/m 0,0 km/h (0 Bft) N-NO 33 0 min 0,000 mm 0,0 UV-I 0 W/m 6,3 C 8,2 C 0,0 km/h (0 Bft) 95,74 %
28.03.2019 21:56 8,1 C 7,8 C 7,2 C 88 % 1032,3 hPa 0,0 l/m 0,0 km/h (0 Bft) N-NO 33 0 min 0,000 mm 0,0 UV-I 0 W/m 6,2 C 8,1 C 0,0 km/h (0 Bft) 98,11 %
28.03.2019 21:58 7,9 C 7,8 C 7,2 C 89 % 1032,3 hPa 0,0 l/m 0,0 km/h (0 Bft) N-NO 33 0 min 0,000 mm 0,0 UV-I 0 W/m 6,2 C 7,9 C 0,0 km/h (0 Bft) 97,87 %
28.03.2019 22:00 7,9 C 7,8 C 7,2 C 89 % 1032,3 hPa 0,0 l/m 0,0 km/h (0 Bft) N-NO 33 0 min 0,000 mm 0,0 UV-I 0 W/m 6,2 C 7,9 C 0,0 km/h (0 Bft) 97,37 %
28.03.2019 22:02 7,8 C 7,8 C 7,2 C 89 % 1032,4 hPa 0,0 l/m 0,0 km/h (0 Bft) N-NO 33 0 min 0,000 mm 0,0 UV-I 0 W/m 6,1 C 7,8 C 0,0 km/h (0 Bft) 96,00 %
28.03.2019 22:04 7,8 C 7,8 C 7,2 C 89 % 1032,4 hPa 0,0 l/m 0,0 km/h (0 Bft) N-NO 33 0 min 0,000 mm 0,0 UV-I 0 W/m 6,1 C 7,8 C 0,0 km/h (0 Bft) 98,00 %
28.03.2019 22:06 7,8 C 7,8 C 7,2 C 89 % 1032,4 hPa 0,0 l/m 0,0 km/h (0 Bft) N-NO 33 0 min 0,000 mm 0,0 UV-I 0 W/m 6,1 C 7,8 C 0,0 km/h (0 Bft) 97,87 %
28.03.2019 22:08 7,8 C 7,8 C 7,2 C 89 % 1032,4 hPa 0,0 l/m 0,0 km/h (0 Bft) N-NO 33 0 min 0,000 mm 0,0 UV-I 0 W/m 6,1 C 7,8 C 0,0 km/h (0 Bft) 98,00 %
28.03.2019 22:10 7,9 C 7,8 C 7,2 C 89 % 1032,5 hPa 0,0 l/m 0,0 km/h (0 Bft) N-NO 33 0 min 0,000 mm 0,0 UV-I 0 W/m 6,2 C 7,9 C 0,0 km/h (0 Bft) 97,37 %
28.03.2019 22:12 7,9 C 7,8 C 7,2 C 88 % 1032,5 hPa 0,0 l/m 0,0 km/h (0 Bft) N-NO 33 0 min 0,000 mm 0,0 UV-I 0 W/m 6,0 C 7,9 C 0,0 km/h (0 Bft) 98,00 %
28.03.2019 22:14 7,9 C 7,8 C 7,2 C 88 % 1032,5 hPa 0,0 l/m 0,0 km/h (0 Bft) N-NO 33 0 min 0,000 mm 0,0 UV-I 0 W/m 6,0 C 7,9 C 0,0 km/h (0 Bft) 98,00 %
28.03.2019 22:16 8,0 C 7,8 C 7,2 C 88 % 1032,5 hPa 0,0 l/m 0,0 km/h (0 Bft) N-NO 33 0 min 0,000 mm 0,0 UV-I 0 W/m 6,1 C 8,0 C 0,0 km/h (0 Bft) 96,00 %
28.03.2019 22:18 8,1 C 7,8 C 7,2 C 88 % 1032,4 hPa 0,0 l/m 0,0 km/h (0 Bft) N-NO 33 0 min 0,000 mm 0,0 UV-I 0 W/m 6,2 C 8,1 C 0,0 km/h (0 Bft) 97,37 %
28.03.2019 22:20 8,1 C 7,8 C 7,2 C 88 % 1032,4 hPa 0,0 l/m 0,0 km/h (0 Bft) N-NO 33 0 min 0,000 mm 0,0 UV-I 0 W/m 6,2 C 8,1 C 0,0 km/h (0 Bft) 94,00 %
28.03.2019 22:22 8,1 C 7,8 C 7,2 C 87 % 1032,4 hPa 0,0 l/m 0,0 km/h (0 Bft) N-NO 33 0 min 0,000 mm 0,0 UV-I 0 W/m 6,1 C 8,1 C 0,0 km/h (0 Bft) 96,00 %
28.03.2019 22:24 8,0 C 7,8 C 7,2 C 88 % 1032,5 hPa 0,0 l/m 0,0 km/h (0 Bft) N-NO 33 0 min 0,000 mm 0,0 UV-I 0 W/m 6,1 C 8,0 C 0,0 km/h (0 Bft) 97,22 %
28.03.2019 22:27 7,8 C 7,8 C 7,2 C 88 % 1032,5 hPa 0,0 l/m 0,0 km/h (0 Bft) N-NO 33 0 min 0,000 mm 0,0 UV-I 0 W/m 5,9 C 7,8 C 0,0 km/h (0 Bft) 98,73 %
28.03.2019 22:28 7,8 C 7,8 C 7,2 C 88 % 1032,5 hPa 0,0 l/m 0,0 km/h (0 Bft) N-NO 33 0 min 0,000 mm 0,0 UV-I 0 W/m 5,9 C 7,8 C 0,0 km/h (0 Bft) 100,00 %
28.03.2019 22:30 7,8 C 7,8 C 7,2 C 89 % 1032,5 hPa 0,0 l/m 0,0 km/h (0 Bft) N-NO 33 0 min 0,000 mm 0,0 UV-I 0 W/m 6,1 C 7,8 C 0,0 km/h (0 Bft) 93,62 %
28.03.2019 22:32 7,8 C 7,8 C 7,2 C 88 % 1032,5 hPa 0,0 l/m 0,0 km/h (0 Bft) N-NO 33 0 min 0,000 mm 0,0 UV-I 0 W/m 5,9 C 7,8 C 0,0 km/h (0 Bft) 100,00 %
28.03.2019 22:34 7,9 C 7,8 C 7,2 C 89 % 1032,5 hPa 0,0 l/m 0,0 km/h (0 Bft) N-NO 33 0 min 0,000 mm 0,0 UV-I 0 W/m 6,2 C 7,9 C 0,0 km/h (0 Bft) 96,00 %
28.03.2019 22:36 7,9 C 7,8 C 7,2 C 89 % 1032,5 hPa 0,0 l/m 0,0 km/h (0 Bft) N-NO 33 0 min 0,000 mm 0,0 UV-I 0 W/m 6,2 C 7,9 C 0,0 km/h (0 Bft) 96,00 %
28.03.2019 22:38 7,9 C 7,8 C 7,2 C 89 % 1032,6 hPa 0,0 l/m 0,0 km/h (0 Bft) N-NO 33 0 min 0,000 mm 0,0 UV-I 0 W/m 6,2 C 7,9 C 0,0 km/h (0 Bft) 97,37 %
28.03.2019 22:40 7,9 C 7,8 C 7,2 C 89 % 1032,6 hPa 0,0 l/m 0,0 km/h (0 Bft) N-NO 33 0 min 0,000 mm 0,0 UV-I 0 W/m 6,2 C 7,9 C 0,0 km/h (0 Bft) 98,11 %
28.03.2019 22:42 7,8 C 7,8 C 7,2 C 90 % 1032,6 hPa 0,0 l/m 0,0 km/h (0 Bft) N-NO 33 0 min 0,000 mm 0,0 UV-I 0 W/m 6,3 C 7,8 C 0,0 km/h (0 Bft) 98,00 %
28.03.2019 22:44 7,8 C 7,8 C 7,2 C 90 % 1032,5 hPa 0,0 l/m 0,0 km/h (0 Bft) N-NO 33 0 min 0,000 mm 0,0 UV-I 0 W/m 6,3 C 7,8 C 0,0 km/h (0 Bft) 97,87 %
28.03.2019 22:46 7,8 C 7,8 C 7,2 C 90 % 1032,5 hPa 0,0 l/m 0,0 km/h (0 Bft) N-NO 33 0 min 0,000 mm 0,0 UV-I 0 W/m 6,3 C 7,8 C 0,0 km/h (0 Bft) 97,87 %
28.03.2019 22:48 7,8 C 7,8 C 7,2 C 90 % 1032,5 hPa 0,0 l/m 0,0 km/h (0 Bft) N-NO 33 0 min 0,000 mm 0,0 UV-I 0 W/m 6,3 C 7,8 C 0,0 km/h (0 Bft) 97,56 %
28.03.2019 22:50 7,9 C 7,8 C 6,7 C 90 % 1032,5 hPa 0,0 l/m 0,0 km/h (0 Bft) N-NO 33 0 min 0,000 mm 0,0 UV-I 0 W/m 6,4 C 7,9 C 0,0 km/h (0 Bft) 96,23 %
28.03.2019 22:52 7,9 C 7,8 C 7,2 C 90 % 1032,4 hPa 0,0 l/m 0,0 km/h (0 Bft) N-NO 33 0 min 0,000 mm 0,0 UV-I 0 W/m 6,4 C 7,9 C 0,0 km/h (0 Bft) 100,00 %
28.03.2019 22:54 7,8 C 7,8 C 7,2 C 90 % 1032,5 hPa 0,0 l/m 0,0 km/h (0 Bft) N-NO 33 0 min 0,000 mm 0,0 UV-I 0 W/m 6,3 C 7,8 C 0,0 km/h (0 Bft) 97,87 %
28.03.2019 22:56 7,8 C 7,8 C 7,2 C 90 % 1032,5 hPa 0,0 l/m 0,0 km/h (0 Bft) N-NO 33 0 min 0,000 mm 0,0 UV-I 0 W/m 6,3 C 7,8 C 0,0 km/h (0 Bft) 98,11 %
28.03.2019 22:58 7,7 C 7,8 C 6,7 C 90 % 1032,5 hPa 0,0 l/m 0,0 km/h (0 Bft) N-NO 33 0 min 0,000 mm 0,0 UV-I 0 W/m 6,2 C 7,7 C 0,0 km/h (0 Bft) 100,00 %
28.03.2019 23:00 7,7 C 7,8 C 6,7 C 91 % 1032,4 hPa 0,0 l/m 0,0 km/h (0 Bft) N-NO 33 0 min 0,000 mm 0,0 UV-I 0 W/m 6,3 C 7,7 C 0,0 km/h (0 Bft) 98,00 %
28.03.2019 23:02 7,7 C 7,8 C 6,7 C 91 % 1032,4 hPa 0,0 l/m 0,0 km/h (0 Bft) N-NO 33 0 min 0,000 mm 0,0 UV-I 0 W/m 6,3 C 7,7 C 0,0 km/h (0 Bft) 100,00 %
28.03.2019 23:04 7,6 C 7,8 C 6,7 C 90 % 1032,5 hPa 0,0 l/m 1,6 km/h (1 Bft) NO 35 0 min 0,000 mm 0,0 UV-I 0 W/m 6,1 C 7,6 C 4,8 km/h (1 Bft) 100,00 %
28.03.2019 23:06 7,5 C 7,8 C 6,7 C 91 % 1032,5 hPa 0,0 l/m 2,0 km/h (1 Bft) NO 35 0 min 0,000 mm 0,0 UV-I 0 W/m 6,1 C 7,5 C 3,2 km/h (1 Bft) 98,11 %
28.03.2019 23:08 7,4 C 7,8 C 6,7 C 91 % 1032,5 hPa 0,0 l/m 0,7 km/h (0 Bft) NO 35 0 min 0,000 mm 0,0 UV-I 0 W/m 6,0 C 7,4 C 1,6 km/h (1 Bft) 100,00 %
28.03.2019 23:11 7,4 C 7,8 C 6,7 C 91 % 1032,5 hPa 0,0 l/m 0,1 km/h (0 Bft) NO 35 0 min 0,000 mm 0,0 UV-I 0 W/m 6,0 C 7,4 C 1,6 km/h (1 Bft) 98,63 %
28.03.2019 23:12 7,4 C 7,8 C 6,7 C 91 % 1032,5 hPa 0,0 l/m 0,0 km/h (0 Bft) NO 35 0 min 0,000 mm 0,0 UV-I 0 W/m 6,0 C 7,4 C 0,0 km/h (0 Bft) 100,00 %
28.03.2019 23:16 7,6 C 7,8 C 6,7 C 91 % 1032,5 hPa 0,0 l/m 1,9 km/h (1 Bft) NO 35 0 min 0,000 mm 0,0 UV-I 0 W/m 6,2 C 7,6 C 3,2 km/h (1 Bft) 100,00 %
28.03.2019 23:18 7,6 C 7,8 C 6,7 C 91 % 1032,5 hPa 0,0 l/m 0,7 km/h (0 Bft) NO 35 0 min 0,000 mm 0,0 UV-I 0 W/m 6,2 C 7,6 C 1,6 km/h (1 Bft) 98,00 %
28.03.2019 23:20 7,6 C 7,8 C 6,7 C 91 % 1032,5 hPa 0,0 l/m 1,5 km/h (1 Bft) NO 35 0 min 0,000 mm 0,0 UV-I 0 W/m 6,2 C 7,6 C 1,6 km/h (1 Bft) 100,00 %
28.03.2019 23:22 7,7 C 7,8 C 6,7 C 91 % 1032,5 hPa 0,0 l/m 1,5 km/h (1 Bft) NO 35 0 min 0,000 mm 0,0 UV-I 0 W/m 6,3 C 7,7 C 1,6 km/h (1 Bft) 96,00 %
28.03.2019 23:24 7,6 C 7,8 C 6,7 C 91 % 1032,5 hPa 0,0 l/m 1,1 km/h (1 Bft) NO 35 0 min 0,000 mm 0,0 UV-I 0 W/m 6,2 C 7,6 C 1,6 km/h (1 Bft) 100,00 %
28.03.2019 23:26 7,6 C 7,8 C 6,7 C 90 % 1032,5 hPa 0,0 l/m 0,4 km/h (0 Bft) NO 35 0 min 0,000 mm 0,0 UV-I 0 W/m 6,1 C 7,6 C 1,6 km/h (1 Bft) 100,00 %
28.03.2019 23:28 7,6 C 7,8 C 6,7 C 91 % 1032,4 hPa 0,0 l/m 0,0 km/h (0 Bft) NO 35 0 min 0,000 mm 0,0 UV-I 0 W/m 6,2 C 7,6 C 0,0 km/h (0 Bft) 100,00 %
28.03.2019 23:30 7,6 C 7,8 C 6,7 C 90 % 1032,5 hPa 0,0 l/m 0,0 km/h (0 Bft) NO 35 0 min 0,000 mm 0,0 UV-I 0 W/m 6,1 C 7,6 C 0,0 km/h (0 Bft) 100,00 %
28.03.2019 23:33 7,4 C 7,8 C 6,7 C 90 % 1032,4 hPa 0,0 l/m 0,3 km/h (0 Bft) NO 35 0 min 0,000 mm 0,0 UV-I 0 W/m 5,9 C 7,4 C 1,6 km/h (1 Bft) 100,00 %
28.03.2019 23:34 7,4 C 7,8 C 6,7 C 91 % 1032,4 hPa 0,0 l/m 0,2 km/h (0 Bft) NO 35 0 min 0,000 mm 0,0 UV-I 0 W/m 6,0 C 7,4 C 1,6 km/h (1 Bft) 100,00 %
28.03.2019 23:36 7,3 C 7,8 C 6,7 C 91 % 1032,4 hPa 0,0 l/m 0,0 km/h (0 Bft) NO 35 0 min 0,000 mm 0,0 UV-I 0 W/m 5,9 C 7,3 C 0,0 km/h (0 Bft) 97,87 %
28.03.2019 23:38 7,3 C 7,8 C 6,7 C 91 % 1032,4 hPa 0,0 l/m 0,0 km/h (0 Bft) NO 35 0 min 0,000 mm 0,0 UV-I 0 W/m 5,9 C 7,3 C 0,0 km/h (0 Bft) 100,00 %
28.03.2019 23:40 7,2 C 7,8 C 6,7 C 91 % 1032,4 hPa 0,0 l/m 0,0 km/h (0 Bft) NO 35 0 min 0,000 mm 0,0 UV-I 0 W/m 5,8 C 7,2 C 0,0 km/h (0 Bft) 100,00 %
28.03.2019 23:42 7,2 C 7,8 C 6,7 C 92 % 1032,4 hPa 0,0 l/m 0,0 km/h (0 Bft) NO 35 0 min 0,000 mm 0,0 UV-I 0 W/m 6,0 C 7,2 C 0,0 km/h (0 Bft) 95,74 %
28.03.2019 23:44 7,2 C 7,8 C 6,7 C 92 % 1032,4 hPa 0,0 l/m 0,0 km/h (0 Bft) NO 35 0 min 0,000 mm 0,0 UV-I 0 W/m 6,0 C 7,2 C 0,0 km/h (0 Bft) 100,00 %
28.03.2019 23:46 7,2 C 7,8 C 6,7 C 92 % 1032,4 hPa 0,0 l/m 0,0 km/h (0 Bft) NO 35 0 min 0,000 mm 0,0 UV-I 0 W/m 6,0 C 7,2 C 0,0 km/h (0 Bft) 97,56 %
28.03.2019 23:49 7,2 C 7,8 C 6,7 C 92 % 1032,3 hPa 0,0 l/m 0,0 km/h (0 Bft) NO 35 0 min 0,000 mm 0,0 UV-I 0 W/m 6,0 C 7,2 C 0,0 km/h (0 Bft) 98,70 %
28.03.2019 23:50 7,2 C 7,8 C 6,7 C 92 % 1032,3 hPa 0,0 l/m 0,0 km/h (0 Bft) NO 35 0 min 0,000 mm 0,0 UV-I 0 W/m 6,0 C 7,2 C 0,0 km/h (0 Bft) 92,86 %
28.03.2019 23:52 7,2 C 7,8 C 6,7 C 92 % 1032,3 hPa 0,0 l/m 0,0 km/h (0 Bft) NO 35 0 min 0,000 mm 0,0 UV-I 0 W/m 6,0 C 7,2 C 0,0 km/h (0 Bft) 97,87 %
28.03.2019 23:54 7,1 C 7,8 C 6,1 C 92 % 1032,3 hPa 0,0 l/m 0,0 km/h (0 Bft) NO 35 0 min 0,000 mm 0,0 UV-I 0 W/m 5,9 C 7,1 C 0,0 km/h (0 Bft) 96,00 %
28.03.2019 23:57 7,2 C 7,8 C 6,1 C 93 % 1032,3 hPa 0,0 l/m 0,0 km/h (0 Bft) NO 35 0 min 0,000 mm 0,0 UV-I 0 W/m 6,1 C 7,2 C 0,0 km/h (0 Bft) 91,55 %
28.03.2019 23:58 7,2 C 7,8 C 6,1 C 93 % 1032,3 hPa 0,0 l/m 0,0 km/h (0 Bft) NO 35 0 min 0,000 mm 0,0 UV-I 0 W/m 6,1 C 7,2 C 0,0 km/h (0 Bft) 95,65 %
_ Min-Zeit 05:24 00:00 05:16 16:56 15:34 - 18:48 - - - - - - 16:36 09:12 18:48 05:06
Minimum _ 3,9 C 7,8 C 3,3 C 51 % 1030,7 hPa - 0,0 km/h (0 Bft) - - - - - - 2,3 C 3,2 C 0,0 km/h (0 Bft) 87,80 %
_ Max-Zeit 17:00 00:00 10:52 23:57 07:06 00:00 09:12 - - 10:19 11:00 10:52 10:54 22:50 17:00 09:12 00:00
Maximum _ 12,4 C 7,8 C 25,6 C 93 % 1032,9 hPa 0,0 l/m 12,5 km/h
W-SW (3 Bft)
- - 3 min 0,280 mm 2,9 UV-I 883 W/m 6,4 C 12,4 C 17,7 km/h
W-SW (3 Bft)
100,00 %
Durchschnitt _ 8,1 C 7,8 C 10,0 C 75 % 1032,0 hPa #0,0 l/m 4,2 km/h (1 Bft) SW - #5:00 h #1,905 mm 1,4 UV-I 265 W/m 3,7 C 7,9 C 6,8 km/h (2 Bft) 97,42 %